Darstellungsparameter: Aktuell verwendete Einstellungen:
Skalierung der Graphiken ... ?
xyx+y,   Skalierungsfaktor:      Skalierung: Modus: x, Faktor: 1
Darstellungszeitraum ... ?
Vom - - bis: - -   Zeitraum: 01.01.2021 - 07.03.2021
Min/Max/Avg-Anzeige ... ?
Zeige MMA aktuell
Zeige MMA Monat
Zeige MMA alles
Zeige --A aktuell
Zeige --A Monat
Zeige --A alles
Keine MMA-Anzeige
MMA:
Minimum Maximum Average (ber die Originaldaten)
MMA-Basis: 01.01.2021 - 07.03.2021
Quicknavigation für Darstellung... ?
Tage:      1T, 2T, 3T, 5T -1T -2T -3T -5T +1T +2T +3T +5T
Wochen: 1W, 2W, 3W -1W -2W -3W +1W +2W +3W
Monate: 1M, 3M, 6M -1M -3M -6M +1M +3M +6M
Jahre:    1J, 3J, 5J, 10J -1J -3J -5J -10J +1J +3J +5J +10J
Nutze für die Darstellung ... ?
Originaldaten oder Mittelwerte auf ...
Stundenbasis Tagesbasis Wochenbasis
Monatsbasis Jahresbasis      Datenbasis: Original-Daten
Darstellen als:
Statistik (Auto) Statistik J:M      Darstellung:
Zur Graphik,    zurück zur Übersicht aller Sensoren.
 
Tabellarische Datenbersicht: ?
 
Sensor: Nr:Datum:Temp:Abs-Feuchte:Windchill:Wind:
Aussen-T/F 1 01-01-2021 00:00:00 1.1 C 4.96 g/m*3 1.1 C 0 km/h
2 01-01-2021 00:05:00 1.1 C 4.96 g/m*3 1.1 C 0 km/h
3 01-01-2021 00:10:00 1.1 C 5.02 g/m*3 1.1 C 0 km/h
4 01-01-2021 00:15:00 1.1 C 5.02 g/m*3 1.1 C 0 km/h
5 01-01-2021 00:20:00 1.1 C 5.02 g/m*3 1.1 C 0 km/h
6 01-01-2021 00:25:00 1.1 C 5.02 g/m*3 1.1 C 0 km/h
7 01-01-2021 00:30:00 1.1 C 5.02 g/m*3 1.1 C 0 km/h
8 01-01-2021 00:35:00 1.1 C 5.02 g/m*3 1.1 C 0 km/h
9 01-01-2021 00:40:00 1.1 C 5.02 g/m*3 1.1 C 0 km/h
10 01-01-2021 00:45:00 1.1 C 5.02 g/m*3 1.1 C 0 km/h
11 01-01-2021 00:50:00 1.1 C 5.02 g/m*3 1.1 C 0 km/h
12 01-01-2021 00:55:00 1.1 C 5.02 g/m*3 1.1 C 0 km/h
13 01-01-2021 01:00:00 1.1 C 5.02 g/m*3 1.1 C 0 km/h
14 01-01-2021 01:05:00 1.1 C 5.02 g/m*3 1.1 C 0 km/h
15 01-01-2021 01:10:00 1.1 C 5.02 g/m*3 1.1 C 0 km/h
16 01-01-2021 01:15:00 1.1 C 5.02 g/m*3 1.1 C 0 km/h
17 01-01-2021 01:20:00 1.2 C 5.05 g/m*3 1.2 C 0 km/h
18 01-01-2021 01:25:00 1.2 C 5.05 g/m*3 1.2 C 0 km/h
19 01-01-2021 01:30:00 1.2 C 5.05 g/m*3 1.2 C 0 km/h
20 01-01-2021 01:35:00 1.2 C 5.05 g/m*3 1.2 C 0 km/h
21 01-01-2021 01:40:00 1.2 C 5.05 g/m*3 1.2 C 0 km/h
22 01-01-2021 01:45:00 1.2 C 5.05 g/m*3 1.2 C 0 km/h
23 01-01-2021 01:50:00 1.2 C 5.05 g/m*3 1.2 C 0 km/h
24 01-01-2021 01:55:00 1.2 C 5.05 g/m*3 1.2 C 0 km/h
25 01-01-2021 02:00:00 1.3 C 5.09 g/m*3 1.3 C 0 km/h
Sensor: Nr:Datum:Temp:Abs-Feuchte:Windchill:Wind:
Aussen-T/F 26 01-01-2021 02:05:00 1.3 C 5.09 g/m*3 1.3 C 0 km/h
27 01-01-2021 02:10:00 1.3 C 5.09 g/m*3 1.3 C 0 km/h
28 01-01-2021 02:15:00 1.3 C 5.09 g/m*3 1.3 C 0 km/h
29 01-01-2021 02:20:00 1.4 C 5.12 g/m*3 1.4 C 0 km/h
30 01-01-2021 02:25:00 1.4 C 5.12 g/m*3 1.4 C 0 km/h
31 01-01-2021 02:30:00 1.4 C 5.12 g/m*3 1.4 C 0 km/h
32 01-01-2021 02:35:00 1.4 C 5.12 g/m*3 1.4 C 0 km/h
33 01-01-2021 02:40:00 1.5 C 5.16 g/m*3 1.5 C 0 km/h
34 01-01-2021 02:45:00 1.6 C 5.19 g/m*3 1.6 C 0 km/h
35 01-01-2021 02:50:00 1.6 C 5.19 g/m*3 1.6 C 0 km/h
36 01-01-2021 02:55:00 1.6 C 5.19 g/m*3 1.6 C 0 km/h
37 01-01-2021 03:00:00 1.6 C 5.19 g/m*3 1.6 C 0 km/h
38 01-01-2021 03:05:00 1.6 C 5.19 g/m*3 1.6 C 1.6 km/h
39 01-01-2021 03:10:00 1.7 C 5.23 g/m*3 1.7 C 0 km/h
40 01-01-2021 03:15:00 1.7 C 5.23 g/m*3 1.7 C 0 km/h
41 01-01-2021 03:20:00 1.7 C 5.23 g/m*3 1.7 C 0 km/h
42 01-01-2021 03:25:00 1.7 C 5.23 g/m*3 1.7 C 0 km/h
43 01-01-2021 03:30:00 1.7 C 5.23 g/m*3 1.7 C 0 km/h
44 01-01-2021 03:35:00 1.8 C 5.26 g/m*3 1.8 C 0 km/h
45 01-01-2021 03:40:00 1.8 C 5.26 g/m*3 1.8 C 0 km/h
46 01-01-2021 03:45:00 1.8 C 5.32 g/m*3 1.8 C 0 km/h
47 01-01-2021 03:50:00 1.8 C 5.32 g/m*3 1.8 C 0 km/h
48 01-01-2021 03:55:00 1.8 C 5.32 g/m*3 1.8 C 0 km/h
49 01-01-2021 04:00:00 1.8 C 5.32 g/m*3 1.8 C 0 km/h
50 01-01-2021 04:05:00 1.8 C 5.32 g/m*3 1.8 C 0 km/h
Sensor: Nr:Datum:Temp:Abs-Feuchte:Windchill:Wind:
Aussen-T/F 51 01-01-2021 04:10:00 1.9 C 5.35 g/m*3 1.9 C 0 km/h
52 01-01-2021 04:15:00 1.9 C 5.35 g/m*3 1.9 C 0 km/h
53 01-01-2021 04:20:00 1.9 C 5.35 g/m*3 1.9 C 0 km/h
54 01-01-2021 04:25:00 1.9 C 5.35 g/m*3 1.9 C 0 km/h
55 01-01-2021 04:30:00 1.9 C 5.35 g/m*3 1.9 C 4.8 km/h
56 01-01-2021 04:35:00 1.9 C 5.35 g/m*3 1.9 C 4.8 km/h
57 01-01-2021 04:40:00 1.9 C 5.35 g/m*3 1.9 C 3.2 km/h
58 01-01-2021 04:45:00 1.9 C 5.35 g/m*3 1.9 C 3.2 km/h
59 01-01-2021 04:50:00 1.9 C 5.35 g/m*3 1.9 C 0 km/h
60 01-01-2021 04:55:00 1.9 C 5.35 g/m*3 1.9 C 1.6 km/h
61 01-01-2021 05:00:00 2 C 5.39 g/m*3 2 C 0 km/h
62 01-01-2021 05:05:00 2 C 5.39 g/m*3 2 C 0 km/h
63 01-01-2021 05:10:00 2 C 5.39 g/m*3 2 C 4.8 km/h
64 01-01-2021 05:15:00 2 C 5.39 g/m*3 2 C 0 km/h
65 01-01-2021 05:20:00 2 C 5.39 g/m*3 2 C 1.6 km/h
66 01-01-2021 05:25:00 2.1 C 5.43 g/m*3 2.1 C 0 km/h
67 01-01-2021 05:30:00 2.1 C 5.43 g/m*3 2.1 C 0 km/h
68 01-01-2021 05:35:00 2.1 C 5.43 g/m*3 2.1 C 0 km/h
69 01-01-2021 05:40:00 2.1 C 5.43 g/m*3 2.1 C 0 km/h
70 01-01-2021 05:45:00 2.1 C 5.43 g/m*3 2.1 C 0 km/h
71 01-01-2021 05:50:00 2.1 C 5.43 g/m*3 2.1 C 0 km/h
72 01-01-2021 05:55:00 2.1 C 5.43 g/m*3 2.1 C 0 km/h
73 01-01-2021 06:00:00 2.2 C 5.46 g/m*3 2.2 C 0 km/h
74 01-01-2021 06:05:00 2.2 C 5.46 g/m*3 2.2 C 0 km/h
75 01-01-2021 06:10:00 2.2 C 5.46 g/m*3 2.2 C 0 km/h
Sensor: Nr:Datum:Temp:Abs-Feuchte:Windchill:Wind:
Aussen-T/F 76 01-01-2021 06:15:00 2.2 C 5.46 g/m*3 2.2 C 0 km/h
77 01-01-2021 06:20:00 2.2 C 5.46 g/m*3 2.2 C 0 km/h
78 01-01-2021 06:25:00 2.2 C 5.46 g/m*3 2.2 C 0 km/h
79 01-01-2021 06:30:00 2.2 C 5.46 g/m*3 2.2 C 0 km/h
80 01-01-2021 06:35:00 2.3 C 5.5 g/m*3 2.3 C 0 km/h
81 01-01-2021 06:40:00 2.3 C 5.5 g/m*3 2.3 C 0 km/h
82 01-01-2021 06:45:00 2.3 C 5.5 g/m*3 2.3 C 0 km/h
83 01-01-2021 06:50:00 2.3 C 5.5 g/m*3 2.3 C 0 km/h
84 01-01-2021 06:55:00 2.3 C 5.5 g/m*3 2.3 C 0 km/h
85 01-01-2021 07:00:00 2.3 C 5.5 g/m*3 2.3 C 0 km/h
86 01-01-2021 07:05:00 2.3 C 5.5 g/m*3 2.3 C 0 km/h
87 01-01-2021 07:10:00 2.4 C 5.54 g/m*3 2.4 C 0 km/h
88 01-01-2021 07:15:00 2.4 C 5.54 g/m*3 2.4 C 0 km/h
89 01-01-2021 07:20:00 2.4 C 5.54 g/m*3 2.4 C 0 km/h
90 01-01-2021 07:25:00 2.4 C 5.54 g/m*3 2.4 C 0 km/h
91 01-01-2021 07:30:00 2.4 C 5.54 g/m*3 2.4 C 0 km/h
92 01-01-2021 07:35:00 2.5 C 5.58 g/m*3 2.5 C 0 km/h
93 01-01-2021 07:40:00 2.5 C 5.58 g/m*3 2.5 C 0 km/h
94 01-01-2021 07:45:00 2.5 C 5.58 g/m*3 2.5 C 1.6 km/h
95 01-01-2021 07:50:00 2.5 C 5.58 g/m*3 2.5 C 1.6 km/h
96 01-01-2021 07:55:00 2.5 C 5.58 g/m*3 2.5 C 0 km/h
97 01-01-2021 08:00:00 2.5 C 5.58 g/m*3 2.5 C 0 km/h
98 01-01-2021 08:05:00 2.5 C 5.58 g/m*3 2.5 C 0 km/h
99 01-01-2021 08:10:00 2.5 C 5.58 g/m*3 2.5 C 0 km/h
100 01-01-2021 08:15:00 2.5 C 5.58 g/m*3 2.5 C 0 km/h
Sensor: Nr:Datum:Temp:Abs-Feuchte:Windchill:Wind:
Aussen-T/F 101 01-01-2021 08:20:00 2.5 C 5.58 g/m*3 2.5 C 0 km/h
102 01-01-2021 08:25:00 2.5 C 5.58 g/m*3 2.5 C 1.6 km/h
103 01-01-2021 08:30:00 2.5 C 5.58 g/m*3 2.5 C 0 km/h
104 01-01-2021 08:35:00 2.5 C 5.58 g/m*3 2.5 C 0 km/h
105 01-01-2021 08:40:00 2.5 C 5.58 g/m*3 2.5 C 1.6 km/h
106 01-01-2021 08:45:00 2.5 C 5.58 g/m*3 2.5 C 0 km/h
107 01-01-2021 08:50:00 2.5 C 5.58 g/m*3 2.5 C 0 km/h
108 01-01-2021 08:55:00 2.5 C 5.58 g/m*3 2.5 C 0 km/h
109 01-01-2021 09:00:00 2.5 C 5.58 g/m*3 2.5 C 0 km/h
110 01-01-2021 09:05:00 2.5 C 5.58 g/m*3 2.5 C 0 km/h
111 01-01-2021 09:10:00 2.5 C 5.58 g/m*3 2.5 C 0 km/h
112 01-01-2021 09:15:00 2.5 C 5.58 g/m*3 2.5 C 0 km/h
113 01-01-2021 09:20:00 2.5 C 5.58 g/m*3 2.5 C 0 km/h
114 01-01-2021 09:25:00 2.5 C 5.58 g/m*3 2.5 C 0 km/h
115 01-01-2021 09:30:00 2.6 C 5.61 g/m*3 2.6 C 0 km/h
116 01-01-2021 09:35:00 2.6 C 5.61 g/m*3 2.6 C 0 km/h
117 01-01-2021 09:40:00 2.6 C 5.61 g/m*3 2.6 C 0 km/h
118 01-01-2021 09:45:00 2.6 C 5.61 g/m*3 2.6 C 0 km/h
119 01-01-2021 09:50:00 2.6 C 5.61 g/m*3 2.6 C 0 km/h
120 01-01-2021 09:55:00 2.6 C 5.61 g/m*3 2.6 C 0 km/h
121 01-01-2021 10:00:00 2.6 C 5.61 g/m*3 2.6 C 0 km/h
122 01-01-2021 10:05:00 2.7 C 5.65 g/m*3 2.7 C 0 km/h
123 01-01-2021 10:10:00 2.7 C 5.65 g/m*3 2.7 C 0 km/h
124 01-01-2021 10:15:00 2.7 C 5.65 g/m*3 2.7 C 0 km/h
125 01-01-2021 10:20:00 2.7 C 5.65 g/m*3 2.7 C 0 km/h
Sensor: Nr:Datum:Temp:Abs-Feuchte:Windchill:Wind:
Aussen-T/F 126 01-01-2021 10:25:00 2.7 C 5.65 g/m*3 2.7 C 0 km/h
127 01-01-2021 10:30:00 2.7 C 5.65 g/m*3 2.7 C 0 km/h
128 01-01-2021 10:35:00 2.8 C 5.69 g/m*3 2.8 C 0 km/h
129 01-01-2021 10:40:00 2.8 C 5.69 g/m*3 2.8 C 0 km/h
130 01-01-2021 10:45:00 2.8 C 5.69 g/m*3 2.8 C 0 km/h
131 01-01-2021 10:50:00 2.8 C 5.69 g/m*3 2.8 C 0 km/h
132 01-01-2021 10:55:00 2.8 C 5.69 g/m*3 2.8 C 0 km/h
133 01-01-2021 11:00:00 2.9 C 5.73 g/m*3 2.9 C 1.6 km/h
134 01-01-2021 11:05:00 2.9 C 5.73 g/m*3 2.9 C 0 km/h
135 01-01-2021 11:10:00 3 C 5.77 g/m*3 3 C 0 km/h
136 01-01-2021 11:15:00 3 C 5.77 g/m*3 3 C 0 km/h
137 01-01-2021 11:20:00 3.1 C 5.81 g/m*3 3.1 C 0 km/h
138 01-01-2021 11:25:00 3.1 C 5.81 g/m*3 3.1 C 1.6 km/h
139 01-01-2021 11:30:00 3.1 C 5.81 g/m*3 3.1 C 0 km/h
140 01-01-2021 11:35:00 3 C 5.77 g/m*3 3 C 3.2 km/h
141 01-01-2021 11:40:00 3 C 5.77 g/m*3 3 C 4.8 km/h
142 01-01-2021 11:45:00 3 C 5.77 g/m*3 1.28 C 6.4 km/h
143 01-01-2021 11:50:00 2.9 C 5.73 g/m*3 1.17 C 6.4 km/h
144 01-01-2021 11:55:00 2.9 C 5.73 g/m*3 1.17 C 6.4 km/h
145 01-01-2021 12:00:00 2.9 C 5.73 g/m*3 2.9 C 0 km/h
146 01-01-2021 12:05:00 2.9 C 5.73 g/m*3 2.9 C 4.8 km/h
147 01-01-2021 12:10:00 2.9 C 5.73 g/m*3 1.17 C 6.4 km/h
148 01-01-2021 12:15:00 2.9 C 5.73 g/m*3 2.9 C 3.2 km/h
149 01-01-2021 12:20:00 2.9 C 5.73 g/m*3 2.9 C 0 km/h
150 01-01-2021 12:25:00 2.9 C 5.73 g/m*3 2.9 C 0 km/h
Sensor: Nr:Datum:Temp:Abs-Feuchte:Windchill:Wind:
Aussen-T/F 151 01-01-2021 12:30:00 3 C 5.77 g/m*3 3 C 0 km/h
152 01-01-2021 12:35:00 3 C 5.77 g/m*3 3 C 3.2 km/h
153 01-01-2021 12:40:00 3 C 5.77 g/m*3 3 C 0 km/h
154 01-01-2021 12:45:00 3 C 5.77 g/m*3 3 C 0 km/h
155 01-01-2021 12:50:00 3 C 5.77 g/m*3 3 C 3.2 km/h
156 01-01-2021 12:55:00 3 C 5.77 g/m*3 3 C 3.2 km/h
157 01-01-2021 13:00:00 3 C 5.77 g/m*3 3 C 3.2 km/h
158 01-01-2021 13:05:00 3 C 5.71 g/m*3 1.28 C 6.4 km/h
159 01-01-2021 13:10:00 3 C 5.71 g/m*3 3 C 0 km/h
160 01-01-2021 13:15:00 3 C 5.71 g/m*3 3 C 3.2 km/h
161 01-01-2021 13:20:00 3 C 5.71 g/m*3 3 C 0 km/h
162 01-01-2021 13:25:00 3.1 C 5.75 g/m*3 3.1 C 0 km/h
163 01-01-2021 13:30:00 3.1 C 5.75 g/m*3 3.1 C 0 km/h
164 01-01-2021 13:35:00 3.1 C 5.75 g/m*3 3.1 C 4.8 km/h
165 01-01-2021 13:40:00 3 C 5.71 g/m*3 3 C 3.2 km/h
166 01-01-2021 13:45:00 3 C 5.71 g/m*3 3 C 1.6 km/h
167 01-01-2021 13:50:00 3 C 5.71 g/m*3 3 C 0 km/h
168 01-01-2021 13:55:00 3 C 5.71 g/m*3 3 C 1.6 km/h
169 01-01-2021 14:00:00 3 C 5.71 g/m*3 3 C 0 km/h
170 01-01-2021 14:05:00 3 C 5.71 g/m*3 3 C 0 km/h
171 01-01-2021 14:10:00 3 C 5.71 g/m*3 3 C 0 km/h
172 01-01-2021 14:15:00 3.1 C 5.75 g/m*3 3.1 C 0 km/h
173 01-01-2021 14:20:00 3.1 C 5.75 g/m*3 3.1 C 4.8 km/h
174 01-01-2021 14:25:00 3.1 C 5.75 g/m*3 3.1 C 0 km/h
175 01-01-2021 14:30:00 3.1 C 5.75 g/m*3 3.1 C 0 km/h
Sensor: Nr:Datum:Temp:Abs-Feuchte:Windchill:Wind:
Aussen-T/F 176 01-01-2021 14:35:00 3.1 C 5.75 g/m*3 3.1 C 1.6 km/h
177 01-01-2021 14:40:00 3.1 C 5.75 g/m*3 3.1 C 0 km/h
178 01-01-2021 14:45:00 3.1 C 5.75 g/m*3 3.1 C 0 km/h
179 01-01-2021 14:50:00 3.1 C 5.75 g/m*3 3.1 C 0 km/h
180 01-01-2021 14:55:00 3.1 C 5.75 g/m*3 3.1 C 0 km/h
181 01-01-2021 15:00:00 3.1 C 5.75 g/m*3 3.1 C 0 km/h
182 01-01-2021 15:05:00 3.1 C 5.75 g/m*3 3.1 C 0 km/h
183 01-01-2021 15:10:00 3.1 C 5.75 g/m*3 3.1 C 0 km/h
184 01-01-2021 15:15:00 3.1 C 5.75 g/m*3 3.1 C 0 km/h
185 01-01-2021 15:20:00 3.2 C 5.79 g/m*3 3.2 C 1.6 km/h
186 01-01-2021 15:25:00 3.2 C 5.79 g/m*3 3.2 C 3.2 km/h
187 01-01-2021 15:30:00 3.2 C 5.79 g/m*3 3.2 C 3.2 km/h
188 01-01-2021 15:35:00 3.2 C 5.79 g/m*3 3.2 C 3.2 km/h
189 01-01-2021 15:40:00 3.1 C 5.75 g/m*3 3.1 C 3.2 km/h
190 01-01-2021 15:45:00 3.1 C 5.75 g/m*3 3.1 C 0 km/h
191 01-01-2021 15:50:00 3.1 C 5.75 g/m*3 3.1 C 0 km/h
192 01-01-2021 15:55:00 3.1 C 5.75 g/m*3 3.1 C 0 km/h
193 01-01-2021 16:00:00 3.1 C 5.75 g/m*3 3.1 C 0 km/h
194 01-01-2021 16:05:00 3 C 5.71 g/m*3 3 C 3.2 km/h
195 01-01-2021 16:10:00 3 C 5.71 g/m*3 3 C 3.2 km/h
196 01-01-2021 16:15:00 3 C 5.71 g/m*3 3 C 3.2 km/h
197 01-01-2021 16:20:00 2.9 C 5.67 g/m*3 2.9 C 0 km/h
198 01-01-2021 16:25:00 2.9 C 5.67 g/m*3 2.9 C 0 km/h
199 01-01-2021 16:30:00 2.9 C 5.67 g/m*3 2.9 C 0 km/h
200 01-01-2021 16:35:00 2.8 C 5.63 g/m*3 2.8 C 0 km/h
Sensor: Nr:Datum:Temp:Abs-Feuchte:Windchill:Wind:
Aussen-T/F 201 01-01-2021 16:40:00 2.8 C 5.63 g/m*3 2.8 C 0 km/h
202 01-01-2021 16:45:00 2.8 C 5.63 g/m*3 2.8 C 0 km/h
203 01-01-2021 16:50:00 2.8 C 5.63 g/m*3 2.8 C 0 km/h
204 01-01-2021 16:55:00 2.8 C 5.63 g/m*3 2.8 C 0 km/h
205 01-01-2021 17:00:00 2.7 C 5.59 g/m*3 2.7 C 0 km/h
206 01-01-2021 17:05:00 2.7 C 5.59 g/m*3 2.7 C 0 km/h
207 01-01-2021 17:10:00 2.7 C 5.59 g/m*3 2.7 C 0 km/h
208 01-01-2021 17:15:00 2.7 C 5.59 g/m*3 2.7 C 0 km/h
209 01-01-2021 17:20:00 2.7 C 5.59 g/m*3 2.7 C 0 km/h
210 01-01-2021 17:25:00 2.7 C 5.59 g/m*3 2.7 C 0 km/h
211 01-01-2021 17:30:00 2.7 C 5.59 g/m*3 2.7 C 0 km/h
212 01-01-2021 17:35:00 2.7 C 5.59 g/m*3 2.7 C 0 km/h
213 01-01-2021 17:40:00 2.7 C 5.59 g/m*3 2.7 C 0 km/h
214 01-01-2021 17:45:00 2.7 C 5.59 g/m*3 2.7 C 0 km/h
215 01-01-2021 17:50:00 2.6 C 5.56 g/m*3 2.6 C 0 km/h
216 01-01-2021 17:55:00 2.6 C 5.56 g/m*3 2.6 C 0 km/h
217 01-01-2021 18:00:00 2.6 C 5.56 g/m*3 2.6 C 0 km/h
218 01-01-2021 18:05:00 2.6 C 5.56 g/m*3 2.6 C 0 km/h
219 01-01-2021 18:10:00 2.6 C 5.56 g/m*3 2.6 C 0 km/h
220 01-01-2021 18:15:00 2.6 C 5.56 g/m*3 2.6 C 0 km/h
221 01-01-2021 18:20:00 2.6 C 5.56 g/m*3 2.6 C 0 km/h
222 01-01-2021 18:25:00 2.6 C 5.56 g/m*3 2.6 C 0 km/h
223 01-01-2021 18:30:00 2.5 C 5.52 g/m*3 2.5 C 0 km/h
224 01-01-2021 18:35:00 2.5 C 5.52 g/m*3 2.5 C 0 km/h
225 01-01-2021 18:40:00 2.5 C 5.52 g/m*3 2.5 C 0 km/h
Sensor: Nr:Datum:Temp:Abs-Feuchte:Windchill:Wind:
Aussen-T/F 226 01-01-2021 18:45:00 2.4 C 5.48 g/m*3 2.4 C 0 km/h
227 01-01-2021 18:50:00 2.4 C 5.48 g/m*3 2.4 C 0 km/h
228 01-01-2021 18:55:00 2.4 C 5.48 g/m*3 2.4 C 0 km/h
229 01-01-2021 19:00:00 2.3 C 5.44 g/m*3 2.3 C 0 km/h
230 01-01-2021 19:05:00 2.2 C 5.41 g/m*3 2.2 C 0 km/h
231 01-01-2021 19:10:00 2.1 C 5.37 g/m*3 2.1 C 0 km/h
232 01-01-2021 19:15:00 2 C 5.33 g/m*3 2 C 0 km/h
233 01-01-2021 19:20:00 1.9 C 5.3 g/m*3 1.9 C 0 km/h
234 01-01-2021 19:25:00 1.9 C 5.3 g/m*3 1.9 C 0 km/h
235 01-01-2021 19:30:00 1.8 C 5.26 g/m*3 1.8 C 0 km/h
236 01-01-2021 19:35:00 1.7 C 5.23 g/m*3 1.7 C 0 km/h
237 01-01-2021 19:40:00 1.6 C 5.19 g/m*3 1.6 C 0 km/h
238 01-01-2021 19:45:00 1.5 C 5.16 g/m*3 1.5 C 0 km/h
239 01-01-2021 19:50:00 1.4 C 5.12 g/m*3 1.4 C 0 km/h
240 01-01-2021 19:55:00 1.3 C 5.09 g/m*3 1.3 C 0 km/h
241 01-01-2021 20:00:00 1.3 C 5.09 g/m*3 1.3 C 0 km/h
242 01-01-2021 20:05:00 1.2 C 5.05 g/m*3 1.2 C 0 km/h
243 01-01-2021 20:10:00 1.2 C 5.05 g/m*3 1.2 C 0 km/h
244 01-01-2021 20:15:00 1.3 C 5.09 g/m*3 1.3 C 0 km/h
245 01-01-2021 20:20:00 1.3 C 5.09 g/m*3 1.3 C 0 km/h
246 01-01-2021 20:25:00 1.4 C 5.12 g/m*3 1.4 C 0 km/h
247 01-01-2021 20:30:00 1.4 C 5.12 g/m*3 1.4 C 0 km/h
248 01-01-2021 20:35:00 1.4 C 5.12 g/m*3 1.4 C 0 km/h
249 01-01-2021 20:40:00 1.3 C 5.09 g/m*3 1.3 C 0 km/h
250 01-01-2021 20:45:00 1.2 C 5.05 g/m*3 1.2 C 0 km/h
Sensor: Nr:Datum:Temp:Abs-Feuchte:Windchill:Wind:
Aussen-T/F 251 01-01-2021 20:50:00 1.1 C 5.02 g/m*3 1.1 C 0 km/h
252 01-01-2021 20:55:00 1.1 C 5.02 g/m*3 1.1 C 0 km/h
253 01-01-2021 21:00:00 1.1 C 5.02 g/m*3 1.1 C 0 km/h
254 01-01-2021 21:05:00 1.1 C 5.02 g/m*3 1.1 C 0 km/h
255 01-01-2021 21:10:00 1.1 C 5.02 g/m*3 1.1 C 0 km/h
256 01-01-2021 21:15:00 1 C 4.98 g/m*3 1 C 0 km/h
257 01-01-2021 21:20:00 0.9 C 4.95 g/m*3 0.9 C 0 km/h
258 01-01-2021 21:25:00 0.8 C 4.91 g/m*3 0.8 C 0 km/h
259 01-01-2021 21:30:00 0.7 C 4.88 g/m*3 0.7 C 0 km/h
260 01-01-2021 21:35:00 0.7 C 4.88 g/m*3 0.7 C 0 km/h
261 01-01-2021 21:40:00 0.6 C 4.85 g/m*3 0.6 C 0 km/h
262 01-01-2021 21:45:00 0.6 C 4.85 g/m*3 0.6 C 0 km/h
263 01-01-2021 21:50:00 0.6 C 4.85 g/m*3 0.6 C 0 km/h
264 01-01-2021 21:55:00 0.4 C 4.78 g/m*3 0.4 C 0 km/h
265 01-01-2021 22:00:00 0.4 C 4.78 g/m*3 0.4 C 0 km/h
266 01-01-2021 22:05:00 0.4 C 4.78 g/m*3 0.4 C 0 km/h
267 01-01-2021 22:10:00 0.4 C 4.78 g/m*3 0.4 C 0 km/h
268 01-01-2021 22:15:00 0.4 C 4.78 g/m*3 0.4 C 0 km/h
269 01-01-2021 22:20:00 0.5 C 4.81 g/m*3 0.5 C 0 km/h
270 01-01-2021 22:25:00 0.6 C 4.9 g/m*3 0.6 C 0 km/h
271 01-01-2021 22:30:00 0.7 C 4.93 g/m*3 0.7 C 0 km/h
272 01-01-2021 22:35:00 0.7 C 4.93 g/m*3 0.7 C 0 km/h
273 01-01-2021 22:40:00 0.8 C 4.97 g/m*3 0.8 C 0 km/h
274 01-01-2021 22:45:00 0.8 C 4.97 g/m*3 0.8 C 0 km/h
275 01-01-2021 22:50:00 0.8 C 4.97 g/m*3 0.8 C 0 km/h
Sensor: Nr:Datum:Temp:Abs-Feuchte:Windchill:Wind:
Aussen-T/F 276 01-01-2021 22:55:00 0.8 C 4.97 g/m*3 0.8 C 0 km/h
277 01-01-2021 23:00:00 0.8 C 4.97 g/m*3 0.8 C 0 km/h
278 01-01-2021 23:05:00 0.8 C 4.97 g/m*3 0.8 C 0 km/h
279 01-01-2021 23:10:00 0.8 C 4.97 g/m*3 0.8 C 0 km/h
280 01-01-2021 23:15:00 0.8 C 4.97 g/m*3 0.8 C 0 km/h
281 01-01-2021 23:20:00 0.8 C 4.97 g/m*3 0.8 C 0 km/h
282 01-01-2021 23:25:00 0.8 C 4.97 g/m*3 0.8 C 0 km/h
283 01-01-2021 23:30:00 0.8 C 4.97 g/m*3 0.8 C 0 km/h
284 01-01-2021 23:35:00 0.8 C 4.97 g/m*3 0.8 C 0 km/h
285 01-01-2021 23:40:00 0.7 C 4.93 g/m*3 0.7 C 0 km/h
286 01-01-2021 23:45:00 0.7 C 4.93 g/m*3 0.7 C 0 km/h
287 01-01-2021 23:50:00 0.7 C 4.93 g/m*3 0.7 C 0 km/h
288 01-01-2021 23:55:00 0.7 C 4.93 g/m*3 0.7 C 0 km/h
289 02-01-2021 00:00:00 0.7 C 4.93 g/m*3 0.7 C 0 km/h
290 02-01-2021 00:05:00 0.7 C 4.93 g/m*3 0.7 C 0 km/h
291 02-01-2021 00:10:00 0.8 C 4.97 g/m*3 0.8 C 0 km/h
292 02-01-2021 00:15:00 0.8 C 4.97 g/m*3 0.8 C 0 km/h
293 02-01-2021 00:20:00 0.8 C 4.97 g/m*3 0.8 C 0 km/h
294 02-01-2021 00:25:00 0.8 C 4.97 g/m*3 0.8 C 0 km/h
295 02-01-2021 00:30:00 0.8 C 4.97 g/m*3 0.8 C 0 km/h
296 02-01-2021 00:35:00 0.8 C 4.97 g/m*3 0.8 C 0 km/h
297 02-01-2021 00:40:00 0.8 C 4.97 g/m*3 0.8 C 0 km/h
298 02-01-2021 00:45:00 0.9 C 5 g/m*3 0.9 C 3.2 km/h
299 02-01-2021 00:50:00 0.9 C 5 g/m*3 0.9 C 4.8 km/h
300 02-01-2021 00:55:00 0.9 C 5 g/m*3 -1.14 C 6.4 km/h
Sensor: Nr:Datum:Temp:Abs-Feuchte:Windchill:Wind:
Aussen-T/F 301 02-01-2021 01:00:00 0.8 C 4.97 g/m*3 0.8 C 3.2 km/h
302 02-01-2021 01:05:00 0.8 C 4.97 g/m*3 0.8 C 1.6 km/h
303 02-01-2021 01:10:00 0.8 C 4.97 g/m*3 0.8 C 3.2 km/h
304 02-01-2021 01:15:00 0.8 C 4.97 g/m*3 0.8 C 1.6 km/h
305 02-01-2021 01:20:00 0.8 C 4.97 g/m*3 0.8 C 3.2 km/h
306 02-01-2021 01:25:00 0.8 C 4.97 g/m*3 0.8 C 3.2 km/h
307 02-01-2021 01:30:00 0.7 C 4.93 g/m*3 0.7 C 0 km/h
308 02-01-2021 01:35:00 0.7 C 4.93 g/m*3 0.7 C 0 km/h
309 02-01-2021 01:40:00 0.7 C 4.93 g/m*3 0.7 C 0 km/h
310 02-01-2021 01:45:00 0.7 C 4.93 g/m*3 0.7 C 0 km/h
311 02-01-2021 01:50:00 0.7 C 4.93 g/m*3 0.7 C 0 km/h
312 02-01-2021 01:55:00 0.7 C 4.93 g/m*3 0.7 C 0 km/h
313 02-01-2021 02:00:00 0.7 C 4.93 g/m*3 0.7 C 0 km/h
314 02-01-2021 02:05:00 0.7 C 4.93 g/m*3 0.7 C 0 km/h
315 02-01-2021 02:10:00 0.7 C 4.93 g/m*3 0.7 C 0 km/h
316 02-01-2021 02:15:00 0.7 C 4.93 g/m*3 0.7 C 0 km/h
317 02-01-2021 02:20:00 0.7 C 4.93 g/m*3 0.7 C 0 km/h
318 02-01-2021 02:25:00 0.8 C 4.97 g/m*3 0.8 C 0 km/h
319 02-01-2021 02:30:00 0.8 C 4.97 g/m*3 0.8 C 0 km/h
320 02-01-2021 02:35:00 0.8 C 4.97 g/m*3 0.8 C 0 km/h
321 02-01-2021 02:40:00 0.8 C 4.97 g/m*3 0.8 C 0 km/h
322 02-01-2021 02:45:00 0.8 C 4.97 g/m*3 0.8 C 0 km/h
323 02-01-2021 02:50:00 0.8 C 4.97 g/m*3 0.8 C 0 km/h
324 02-01-2021 02:55:00 0.8 C 4.97 g/m*3 0.8 C 0 km/h
325 02-01-2021 03:00:00 0.8 C 4.97 g/m*3 0.8 C 0 km/h
Sensor: Nr:Datum:Temp:Abs-Feuchte:Windchill:Wind:
Aussen-T/F 326 02-01-2021 03:05:00 0.8 C 4.97 g/m*3 0.8 C 0 km/h
327 02-01-2021 03:10:00 0.8 C 4.97 g/m*3 0.8 C 0 km/h
328 02-01-2021 03:15:00 0.8 C 4.97 g/m*3 0.8 C 0 km/h
329 02-01-2021 03:20:00 0.7 C 4.93 g/m*3 0.7 C 0 km/h
330 02-01-2021 03:25:00 0.7 C 4.93 g/m*3 0.7 C 0 km/h
331 02-01-2021 03:30:00 0.7 C 4.93 g/m*3 0.7 C 0 km/h
332 02-01-2021 03:35:00 0.6 C 4.9 g/m*3 0.6 C 0 km/h
333 02-01-2021 03:40:00 0.6 C 4.9 g/m*3 0.6 C 0 km/h
334 02-01-2021 03:45:00 0.6 C 4.9 g/m*3 0.6 C 0 km/h
335 02-01-2021 03:50:00 0.5 C 4.86 g/m*3 0.5 C 4.8 km/h
336 02-01-2021 03:55:00 0.5 C 4.86 g/m*3 0.5 C 4.8 km/h
337 02-01-2021 04:00:00 0.4 C 4.83 g/m*3 0.4 C 1.6 km/h
338 02-01-2021 04:05:00 0.4 C 4.83 g/m*3 0.4 C 1.6 km/h
339 02-01-2021 04:10:00 0.4 C 4.83 g/m*3 0.4 C 1.6 km/h
340 02-01-2021 04:15:00 0.4 C 4.83 g/m*3 0.4 C 4.8 km/h
341 02-01-2021 04:20:00 0.4 C 4.83 g/m*3 0.4 C 0 km/h
342 02-01-2021 04:25:00 0.3 C 4.8 g/m*3 0.3 C 0 km/h
343 02-01-2021 04:30:00 0.3 C 4.8 g/m*3 0.3 C 1.6 km/h
344 02-01-2021 04:35:00 0.3 C 4.8 g/m*3 0.3 C 1.6 km/h
345 02-01-2021 04:40:00 0.4 C 4.83 g/m*3 0.4 C 3.2 km/h
346 02-01-2021 04:45:00 0.4 C 4.83 g/m*3 0.4 C 3.2 km/h
347 02-01-2021 04:50:00 0.4 C 4.83 g/m*3 0.4 C 3.2 km/h
348 02-01-2021 04:55:00 0.4 C 4.83 g/m*3 0.4 C 1.6 km/h
349 02-01-2021 05:00:00 0.4 C 4.83 g/m*3 0.4 C 1.6 km/h
350 02-01-2021 05:05:00 0.3 C 4.8 g/m*3 0.3 C 1.6 km/h
Sensor: Nr:Datum:Temp:Abs-Feuchte:Windchill:Wind:
Aussen-T/F 351 02-01-2021 05:10:00 0.4 C 4.83 g/m*3 0.4 C 4.8 km/h
352 02-01-2021 05:15:00 0.3 C 4.8 g/m*3 0.3 C 4.8 km/h
353 02-01-2021 05:20:00 0.3 C 4.8 g/m*3 0.3 C 3.2 km/h
354 02-01-2021 05:25:00 0.3 C 4.8 g/m*3 0.3 C 1.6 km/h
355 02-01-2021 05:30:00 0.3 C 4.8 g/m*3 -1.84 C 6.4 km/h
356 02-01-2021 05:35:00 0.3 C 4.8 g/m*3 0.3 C 3.2 km/h
357 02-01-2021 05:40:00 0.3 C 4.8 g/m*3 0.3 C 3.2 km/h
358 02-01-2021 05:45:00 0.3 C 4.8 g/m*3 0.3 C 3.2 km/h
359 02-01-2021 05:50:00 0.3 C 4.8 g/m*3 0.3 C 1.6 km/h
360 02-01-2021 05:55:00 0.4 C 4.83 g/m*3 0.4 C 1.6 km/h
361 02-01-2021 06:00:00 0.4 C 4.83 g/m*3 0.4 C 3.2 km/h
362 02-01-2021 06:05:00 0.4 C 4.83 g/m*3 0.4 C 1.6 km/h
363 02-01-2021 06:10:00 0.4 C 4.83 g/m*3 0.4 C 1.6 km/h
364 02-01-2021 06:15:00 0.4 C 4.83 g/m*3 0.4 C 3.2 km/h
365 02-01-2021 06:20:00 0.4 C 4.83 g/m*3 0.4 C 4.8 km/h
366 02-01-2021 06:25:00 0.5 C 4.86 g/m*3 -1.6 C 6.4 km/h
367 02-01-2021 06:30:00 0.4 C 4.83 g/m*3 0.4 C 1.6 km/h
368 02-01-2021 06:35:00 0.5 C 4.86 g/m*3 0.5 C 3.2 km/h
369 02-01-2021 06:40:00 0.4 C 4.83 g/m*3 0.4 C 4.8 km/h
370 02-01-2021 06:45:00 0.4 C 4.83 g/m*3 0.4 C 1.6 km/h
371 02-01-2021 06:50:00 0.5 C 4.86 g/m*3 0.5 C 4.8 km/h
372 02-01-2021 06:55:00 0.4 C 4.83 g/m*3 0.4 C 4.8 km/h
373 02-01-2021 07:00:00 0.4 C 4.83 g/m*3 0.4 C 4.8 km/h
374 02-01-2021 07:05:00 0.4 C 4.83 g/m*3 0.4 C 3.2 km/h
375 02-01-2021 07:10:00 0.4 C 4.83 g/m*3 0.4 C 4.8 km/h
Sensor: Nr:Datum:Temp:Abs-Feuchte:Windchill:Wind:
Aussen-T/F 376 02-01-2021 07:15:00 0.4 C 4.83 g/m*3 0.4 C 3.2 km/h
377 02-01-2021 07:20:00 0.5 C 4.86 g/m*3 0.5 C 3.2 km/h
378 02-01-2021 07:25:00 0.4 C 4.83 g/m*3 0.4 C 4.8 km/h
379 02-01-2021 07:30:00 0.4 C 4.83 g/m*3 0.4 C 4.8 km/h
380 02-01-2021 07:35:00 0.4 C 4.83 g/m*3 0.4 C 4.8 km/h
381 02-01-2021 07:40:00 0.4 C 4.83 g/m*3 0.4 C 3.2 km/h
382 02-01-2021 07:45:00 0.4 C 4.83 g/m*3 0.4 C 1.6 km/h
383 02-01-2021 07:50:00 0.4 C 4.83 g/m*3 0.4 C 3.2 km/h
384 02-01-2021 07:55:00 0.4 C 4.83 g/m*3 0.4 C 4.8 km/h
385 02-01-2021 08:00:00 0.4 C 4.83 g/m*3 0.4 C 1.6 km/h
386 02-01-2021 08:05:00 0.4 C 4.83 g/m*3 0.4 C 3.2 km/h
387 02-01-2021 08:10:00 0.4 C 4.83 g/m*3 0.4 C 3.2 km/h
388 02-01-2021 08:15:00 0.4 C 4.83 g/m*3 0.4 C 4.8 km/h
389 02-01-2021 08:20:00 0.4 C 4.83 g/m*3 0.4 C 3.2 km/h
390 02-01-2021 08:25:00 0.4 C 4.83 g/m*3 0.4 C 0 km/h
391 02-01-2021 08:30:00 0.4 C 4.83 g/m*3 0.4 C 0 km/h
392 02-01-2021 08:35:00 0.4 C 4.83 g/m*3 0.4 C 1.6 km/h
393 02-01-2021 08:40:00 0.4 C 4.83 g/m*3 0.4 C 3.2 km/h
394 02-01-2021 08:45:00 0.4 C 4.83 g/m*3 0.4 C 1.6 km/h
395 02-01-2021 08:50:00 0.4 C 4.83 g/m*3 0.4 C 0 km/h
396 02-01-2021 08:55:00 0.4 C 4.83 g/m*3 0.4 C 0 km/h
397 02-01-2021 09:00:00 0.4 C 4.83 g/m*3 0.4 C 1.6 km/h
398 02-01-2021 09:05:00 0.5 C 4.86 g/m*3 0.5 C 1.6 km/h
399 02-01-2021 09:10:00 0.4 C 4.83 g/m*3 0.4 C 0 km/h
400 02-01-2021 09:15:00 0.5 C 4.86 g/m*3 0.5 C 0 km/h
Sensor: Nr:Datum:Temp:Abs-Feuchte:Windchill:Wind:
Aussen-T/F 401 02-01-2021 09:20:00 0.5 C 4.86 g/m*3 0.5 C 1.6 km/h
402 02-01-2021 09:25:00 0.5 C 4.86 g/m*3 0.5 C 0 km/h
403 02-01-2021 09:30:00 0.5 C 4.86 g/m*3 0.5 C 0 km/h
404 02-01-2021 09:35:00 0.6 C 4.9 g/m*3 0.6 C 1.6 km/h
405 02-01-2021 09:40:00 0.6 C 4.9 g/m*3 0.6 C 3.2 km/h
406 02-01-2021 09:45:00 0.6 C 4.9 g/m*3 0.6 C 0 km/h
407 02-01-2021 09:50:00 0.6 C 4.9 g/m*3 0.6 C 0 km/h
408 02-01-2021 09:55:00 0.7 C 4.93 g/m*3 0.7 C 3.2 km/h
409 02-01-2021 10:00:00 0.7 C 4.93 g/m*3 0.7 C 1.6 km/h
410 02-01-2021 10:05:00 0.7 C 4.93 g/m*3 0.7 C 0 km/h
411 02-01-2021 10:10:00 0.7 C 4.93 g/m*3 0.7 C 0 km/h
412 02-01-2021 10:15:00 0.8 C 4.97 g/m*3 0.8 C 0 km/h
413 02-01-2021 10:20:00 0.8 C 4.97 g/m*3 0.8 C 1.6 km/h
414 02-01-2021 10:25:00 0.8 C 4.97 g/m*3 0.8 C 0 km/h
415 02-01-2021 10:30:00 0.8 C 4.97 g/m*3 0.8 C 0 km/h
416 02-01-2021 10:35:00 0.8 C 4.97 g/m*3 0.8 C 1.6 km/h
417 02-01-2021 10:40:00 0.9 C 5 g/m*3 0.9 C 3.2 km/h
418 02-01-2021 10:45:00 0.9 C 5 g/m*3 0.9 C 1.6 km/h
419 02-01-2021 10:50:00 0.9 C 5 g/m*3 0.9 C 0 km/h
420 02-01-2021 10:55:00 1 C 5.03 g/m*3 1 C 0 km/h
421 02-01-2021 11:00:00 1.1 C 5.07 g/m*3 1.1 C 0 km/h
422 02-01-2021 11:05:00 1.1 C 5.07 g/m*3 1.1 C 1.6 km/h
423 02-01-2021 11:10:00 1.2 C 5.1 g/m*3 1.2 C 0 km/h
424 02-01-2021 11:15:00 1.2 C 5.1 g/m*3 1.2 C 1.6 km/h
425 02-01-2021 11:20:00 1.2 C 5.1 g/m*3 1.2 C 1.6 km/h
Sensor: Nr:Datum:Temp:Abs-Feuchte:Windchill:Wind:
Aussen-T/F 426 02-01-2021 11:25:00 1.3 C 5.14 g/m*3 1.3 C 0 km/h
427 02-01-2021 11:30:00 1.3 C 5.14 g/m*3 1.3 C 0 km/h
428 02-01-2021 11:35:00 1.3 C 5.14 g/m*3 1.3 C 0 km/h
429 02-01-2021 11:40:00 1.4 C 5.17 g/m*3 1.4 C 0 km/h
430 02-01-2021 11:45:00 1.4 C 5.17 g/m*3 1.4 C 0 km/h
431 02-01-2021 11:50:00 1.5 C 5.16 g/m*3 1.5 C 0 km/h
432 02-01-2021 11:55:00 1.6 C 5.25 g/m*3 1.6 C 0 km/h
433 02-01-2021 12:00:00 1.6 C 5.19 g/m*3 1.6 C 1.6 km/h
434 02-01-2021 12:05:00 1.7 C 5.23 g/m*3 1.7 C 0 km/h
435 02-01-2021 12:10:00 1.8 C 5.26 g/m*3 1.8 C 0 km/h
436 02-01-2021 12:15:00 1.8 C 5.26 g/m*3 1.8 C 1.6 km/h
437 02-01-2021 12:20:00 1.8 C 5.26 g/m*3 1.8 C 0 km/h
438 02-01-2021 12:25:00 1.8 C 5.26 g/m*3 1.8 C 0 km/h
439 02-01-2021 12:30:00 1.8 C 5.26 g/m*3 1.8 C 3.2 km/h
440 02-01-2021 12:35:00 1.8 C 5.26 g/m*3 1.8 C 0 km/h
441 02-01-2021 12:40:00 1.9 C 5.3 g/m*3 1.9 C 0 km/h
442 02-01-2021 12:45:00 2 C 5.28 g/m*3 2 C 0 km/h
443 02-01-2021 12:50:00 2.1 C 5.31 g/m*3 2.1 C 0 km/h
444 02-01-2021 12:55:00 2.1 C 5.31 g/m*3 2.1 C 3.2 km/h
445 02-01-2021 13:00:00 2.1 C 5.31 g/m*3 2.1 C 1.6 km/h
446 02-01-2021 13:05:00 2.1 C 5.31 g/m*3 2.1 C 3.2 km/h
447 02-01-2021 13:10:00 2.1 C 5.26 g/m*3 2.1 C 3.2 km/h
448 02-01-2021 13:15:00 2.2 C 5.29 g/m*3 2.2 C 0 km/h
449 02-01-2021 13:20:00 2.2 C 5.35 g/m*3 2.2 C 0 km/h
450 02-01-2021 13:25:00 2.2 C 5.35 g/m*3 2.2 C 3.2 km/h
Sensor: Nr:Datum:Temp:Abs-Feuchte:Windchill:Wind:
Aussen-T/F 451 02-01-2021 13:30:00 2.3 C 5.39 g/m*3 2.3 C 3.2 km/h
452 02-01-2021 13:35:00 2.3 C 5.33 g/m*3 2.3 C 0 km/h
453 02-01-2021 13:40:00 2.3 C 5.33 g/m*3 2.3 C 0 km/h
454 02-01-2021 13:45:00 2.4 C 5.37 g/m*3 2.4 C 0 km/h
455 02-01-2021 13:50:00 2.3 C 5.33 g/m*3 2.3 C 0 km/h
456 02-01-2021 13:55:00 2.3 C 5.33 g/m*3 2.3 C 1.6 km/h
457 02-01-2021 14:00:00 2.3 C 5.33 g/m*3 2.3 C 1.6 km/h
458 02-01-2021 14:05:00 2.4 C 5.37 g/m*3 2.4 C 3.2 km/h
459 02-01-2021 14:10:00 2.4 C 5.37 g/m*3 2.4 C 0 km/h
460 02-01-2021 14:15:00 2.4 C 5.37 g/m*3 2.4 C 0 km/h
461 02-01-2021 14:20:00 2.4 C 5.37 g/m*3 2.4 C 1.6 km/h
462 02-01-2021 14:25:00 2.4 C 5.37 g/m*3 2.4 C 0 km/h
463 02-01-2021 14:30:00 2.4 C 5.37 g/m*3 2.4 C 1.6 km/h
464 02-01-2021 14:35:00 2.4 C 5.37 g/m*3 2.4 C 0 km/h
465 02-01-2021 14:40:00 2.5 C 5.4 g/m*3 2.5 C 0 km/h
466 02-01-2021 14:45:00 2.5 C 5.4 g/m*3 2.5 C 0 km/h
467 02-01-2021 14:50:00 2.5 C 5.4 g/m*3 2.5 C 0 km/h
468 02-01-2021 14:55:00 2.5 C 5.4 g/m*3 2.5 C 0 km/h
469 02-01-2021 15:00:00 2.6 C 5.44 g/m*3 2.6 C 3.2 km/h
470 02-01-2021 15:05:00 2.6 C 5.44 g/m*3 2.6 C 0 km/h
471 02-01-2021 15:10:00 2.6 C 5.44 g/m*3 2.6 C 3.2 km/h
472 02-01-2021 15:15:00 2.6 C 5.44 g/m*3 2.6 C 1.6 km/h
473 02-01-2021 15:20:00 2.6 C 5.44 g/m*3 2.6 C 3.2 km/h
474 02-01-2021 15:25:00 2.6 C 5.44 g/m*3 2.6 C 3.2 km/h
475 02-01-2021 15:30:00 2.7 C 5.48 g/m*3 2.7 C 0 km/h
Sensor: Nr:Datum:Temp:Abs-Feuchte:Windchill:Wind:
Aussen-T/F 476 02-01-2021 15:35:00 2.7 C 5.48 g/m*3 2.7 C 0 km/h
477 02-01-2021 15:40:00 2.7 C 5.48 g/m*3 2.7 C 1.6 km/h
478 02-01-2021 15:45:00 2.7 C 5.48 g/m*3 2.7 C 0 km/h
479 02-01-2021 15:50:00 2.7 C 5.48 g/m*3 2.7 C 1.6 km/h
480 02-01-2021 15:55:00 2.7 C 5.48 g/m*3 2.7 C 1.6 km/h
481 02-01-2021 16:00:00 2.7 C 5.48 g/m*3 2.7 C 1.6 km/h
482 02-01-2021 16:05:00 2.6 C 5.44 g/m*3 2.6 C 1.6 km/h
483 02-01-2021 16:10:00 2.6 C 5.44 g/m*3 2.6 C 0 km/h
484 02-01-2021 16:15:00 2.6 C 5.44 g/m*3 2.6 C 0 km/h
485 02-01-2021 16:20:00 2.6 C 5.44 g/m*3 2.6 C 0 km/h
486 02-01-2021 16:25:00 2.6 C 5.44 g/m*3 2.6 C 0 km/h
487 02-01-2021 16:30:00 2.5 C 5.4 g/m*3 2.5 C 0 km/h
488 02-01-2021 16:35:00 2.5 C 5.4 g/m*3 2.5 C 0 km/h
489 02-01-2021 16:40:00 2.5 C 5.4 g/m*3 2.5 C 1.6 km/h
490 02-01-2021 16:45:00 2.4 C 5.37 g/m*3 2.4 C 0 km/h
491 02-01-2021 16:50:00 2.4 C 5.37 g/m*3 2.4 C 0 km/h
492 02-01-2021 16:55:00 2.3 C 5.33 g/m*3 2.3 C 0 km/h
493 02-01-2021 17:00:00 2.3 C 5.33 g/m*3 2.3 C 3.2 km/h
494 02-01-2021 17:05:00 2.3 C 5.33 g/m*3 2.3 C 0 km/h
495 02-01-2021 17:10:00 2.3 C 5.39 g/m*3 2.3 C 0 km/h
496 02-01-2021 17:15:00 2.2 C 5.35 g/m*3 2.2 C 1.6 km/h
497 02-01-2021 17:20:00 2.2 C 5.35 g/m*3 2.2 C 0 km/h
498 02-01-2021 17:25:00 2.2 C 5.35 g/m*3 2.2 C 0 km/h
499 02-01-2021 17:30:00 2.2 C 5.35 g/m*3 2.2 C 0 km/h
500 02-01-2021 17:35:00 2.1 C 5.31 g/m*3 2.1 C 0 km/h
Sensor: Nr:Datum:Temp:Abs-Feuchte:Windchill:Wind:
Aussen-T/F 501 02-01-2021 17:40:00 2.1 C 5.31 g/m*3 2.1 C 0 km/h
502 02-01-2021 17:45:00 2.1 C 5.31 g/m*3 2.1 C 0 km/h
503 02-01-2021 17:50:00 2.1 C 5.31 g/m*3 2.1 C 0 km/h
504 02-01-2021 17:55:00 2.1 C 5.31 g/m*3 2.1 C 0 km/h
505 02-01-2021 18:00:00 2.1 C 5.31 g/m*3 2.1 C 0 km/h
506 02-01-2021 18:05:00 2.1 C 5.31 g/m*3 2.1 C 0 km/h
507 02-01-2021 18:10:00 2.1 C 5.31 g/m*3 2.1 C 0 km/h
508 02-01-2021 18:15:00 2.1 C 5.31 g/m*3 2.1 C 0 km/h
509 02-01-2021 18:20:00 2 C 5.28 g/m*3 2 C 0 km/h
510 02-01-2021 18:25:00 2 C 5.28 g/m*3 2 C 0 km/h
511 02-01-2021 18:30:00 2 C 5.28 g/m*3 2 C 0 km/h
512 02-01-2021 18:35:00 2 C 5.28 g/m*3 2 C 0 km/h
513 02-01-2021 18:40:00 2 C 5.28 g/m*3 2 C 0 km/h
514 02-01-2021 18:45:00 2 C 5.28 g/m*3 2 C 0 km/h
515 02-01-2021 18:50:00 2 C 5.28 g/m*3 2 C 0 km/h
516 02-01-2021 18:55:00 2 C 5.28 g/m*3 2 C 0 km/h
517 02-01-2021 19:00:00 1.9 C 5.24 g/m*3 1.9 C 0 km/h
518 02-01-2021 19:05:00 1.9 C 5.24 g/m*3 1.9 C 0 km/h
519 02-01-2021 19:10:00 1.9 C 5.24 g/m*3 1.9 C 0 km/h
520 02-01-2021 19:15:00 1.9 C 5.24 g/m*3 1.9 C 0 km/h
521 02-01-2021 19:20:00 2 C 5.28 g/m*3 2 C 0 km/h
522 02-01-2021 19:25:00 2 C 5.33 g/m*3 2 C 0 km/h
523 02-01-2021 19:30:00 2 C 5.33 g/m*3 2 C 0 km/h
524 02-01-2021 19:35:00 2 C 5.33 g/m*3 2 C 0 km/h
525 02-01-2021 19:40:00 2 C 5.33 g/m*3 2 C 0 km/h
Sensor: Nr:Datum:Temp:Abs-Feuchte:Windchill:Wind:
Aussen-T/F 526 02-01-2021 19:45:00 2 C 5.33 g/m*3 2 C 0 km/h
527 02-01-2021 19:50:00 2 C 5.33 g/m*3 2 C 0 km/h
528 02-01-2021 19:55:00 1.9 C 5.3 g/m*3 1.9 C 0 km/h
529 02-01-2021 20:00:00 1.9 C 5.3 g/m*3 1.9 C 0 km/h
530 02-01-2021 20:05:00 1.9 C 5.3 g/m*3 1.9 C 0 km/h
531 02-01-2021 20:10:00 1.9 C 5.3 g/m*3 1.9 C 0 km/h
532 02-01-2021 20:15:00 1.9 C 5.3 g/m*3 1.9 C 0 km/h
533 02-01-2021 20:20:00 1.9 C 5.3 g/m*3 1.9 C 0 km/h
534 02-01-2021 20:25:00 1.9 C 5.3 g/m*3 1.9 C 0 km/h
535 02-01-2021 20:30:00 1.9 C 5.3 g/m*3 1.9 C 0 km/h
536 02-01-2021 20:35:00 1.9 C 5.3 g/m*3 1.9 C 0 km/h
537 02-01-2021 20:40:00 1.9 C 5.3 g/m*3 1.9 C 0 km/h
538 02-01-2021 20:45:00 1.9 C 5.3 g/m*3 1.9 C 0 km/h
539 02-01-2021 20:50:00 1.9 C 5.3 g/m*3 1.9 C 0 km/h
540 02-01-2021 20:55:00 1.9 C 5.3 g/m*3 1.9 C 0 km/h
541 02-01-2021 21:00:00 1.9 C 5.3 g/m*3 1.9 C 0 km/h
542 02-01-2021 21:05:00 1.9 C 5.3 g/m*3 1.9 C 0 km/h
543 02-01-2021 21:10:00 1.9 C 5.3 g/m*3 1.9 C 0 km/h
544 02-01-2021 21:15:00 1.9 C 5.3 g/m*3 1.9 C 0 km/h
545 02-01-2021 21:20:00 1.9 C 5.3 g/m*3 1.9 C 0 km/h
546 02-01-2021 21:25:00 1.9 C 5.3 g/m*3 1.9 C 0 km/h
547 02-01-2021 21:30:00 1.9 C 5.3 g/m*3 1.9 C 0 km/h
548 02-01-2021 21:35:00 1.9 C 5.3 g/m*3 1.9 C 0 km/h
549 02-01-2021 21:40:00 1.9 C 5.3 g/m*3 1.9 C 0 km/h
550 02-01-2021 21:45:00 1.9 C 5.3 g/m*3 1.9 C 0 km/h
Sensor: Nr:Datum:Temp:Abs-Feuchte:Windchill:Wind:
Aussen-T/F 551 02-01-2021 21:50:00 1.8 C 5.26 g/m*3 1.8 C 0 km/h
552 02-01-2021 21:55:00 1.9 C 5.3 g/m*3 1.9 C 0 km/h
553 02-01-2021 22:00:00 1.8 C 5.26 g/m*3 1.8 C 0 km/h
554 02-01-2021 22:05:00 1.8 C 5.26 g/m*3 1.8 C 0 km/h
555 02-01-2021 22:10:00 1.8 C 5.26 g/m*3 1.8 C 0 km/h
556 02-01-2021 22:15:00 1.8 C 5.26 g/m*3 1.8 C 0 km/h
557 02-01-2021 22:20:00 1.8 C 5.26 g/m*3 1.8 C 0 km/h
558 02-01-2021 22:25:00 1.8 C 5.26 g/m*3 1.8 C 0 km/h
559 02-01-2021 22:30:00 1.8 C 5.26 g/m*3 1.8 C 0 km/h
560 02-01-2021 22:35:00 1.8 C 5.26 g/m*3 1.8 C 0 km/h
561 02-01-2021 22:40:00 1.8 C 5.26 g/m*3 1.8 C 0 km/h
562 02-01-2021 22:45:00 1.8 C 5.26 g/m*3 1.8 C 0 km/h
563 02-01-2021 22:50:00 1.8 C 5.26 g/m*3 1.8 C 0 km/h
564 02-01-2021 22:55:00 1.8 C 5.26 g/m*3 1.8 C 0 km/h
565 02-01-2021 23:00:00 1.8 C 5.26 g/m*3 1.8 C 0 km/h
566 02-01-2021 23:05:00 1.8 C 5.26 g/m*3 1.8 C 0 km/h
567 02-01-2021 23:10:00 1.8 C 5.26 g/m*3 1.8 C 0 km/h
568 02-01-2021 23:15:00 1.8 C 5.26 g/m*3 1.8 C 0 km/h
569 02-01-2021 23:20:00 1.8 C 5.26 g/m*3 1.8 C 0 km/h
570 02-01-2021 23:25:00 1.8 C 5.26 g/m*3 1.8 C 0 km/h
571 02-01-2021 23:30:00 1.8 C 5.26 g/m*3 1.8 C 0 km/h
572 02-01-2021 23:35:00 1.8 C 5.26 g/m*3 1.8 C 0 km/h
573 02-01-2021 23:40:00 1.8 C 5.26 g/m*3 1.8 C 0 km/h
574 02-01-2021 23:45:00 1.8 C 5.26 g/m*3 1.8 C 0 km/h
575 02-01-2021 23:50:00 1.8 C 5.26 g/m*3 1.8 C 0 km/h
Sensor: Nr:Datum:Temp:Abs-Feuchte:Windchill:Wind:
Aussen-T/F 576 02-01-2021 23:55:00 1.8 C 5.26 g/m*3 1.8 C 0 km/h
577 03-01-2021 00:00:00 1.8 C 5.26 g/m*3 1.8 C 0 km/h
578 03-01-2021 00:05:00 1.8 C 5.26 g/m*3 1.8 C 0 km/h
579 03-01-2021 00:10:00 1.9 C 5.3 g/m*3 1.9 C 0 km/h
580 03-01-2021 00:15:00 1.9 C 5.3 g/m*3 1.9 C 0 km/h
581 03-01-2021 00:20:00 1.9 C 5.3 g/m*3 1.9 C 0 km/h
582 03-01-2021 00:25:00 1.9 C 5.3 g/m*3 1.9 C 0 km/h
583 03-01-2021 00:30:00 1.9 C 5.3 g/m*3 1.9 C 0 km/h
584 03-01-2021 00:35:00 1.9 C 5.3 g/m*3 1.9 C 0 km/h
585 03-01-2021 00:40:00 1.9 C 5.3 g/m*3 1.9 C 0 km/h
586 03-01-2021 00:45:00 1.9 C 5.3 g/m*3 1.9 C 0 km/h
587 03-01-2021 00:50:00 1.9 C 5.3 g/m*3 1.9 C 0 km/h
588 03-01-2021 00:55:00 1.9 C 5.3 g/m*3 1.9 C 0 km/h
589 03-01-2021 01:00:00 1.8 C 5.26 g/m*3 1.8 C 0 km/h
590 03-01-2021 01:05:00 1.8 C 5.26 g/m*3 1.8 C 0 km/h
591 03-01-2021 01:10:00 1.8 C 5.26 g/m*3 -0.1 C 6.4 km/h
592 03-01-2021 01:15:00 1.8 C 5.26 g/m*3 1.8 C 1.6 km/h
593 03-01-2021 01:20:00 1.8 C 5.26 g/m*3 1.8 C 1.6 km/h
594 03-01-2021 01:25:00 1.8 C 5.26 g/m*3 1.8 C 3.2 km/h
595 03-01-2021 01:30:00 1.8 C 5.26 g/m*3 1.8 C 1.6 km/h
596 03-01-2021 01:35:00 1.8 C 5.26 g/m*3 1.8 C 3.2 km/h
597 03-01-2021 01:40:00 1.8 C 5.26 g/m*3 1.8 C 3.2 km/h
598 03-01-2021 01:45:00 1.8 C 5.26 g/m*3 1.8 C 4.8 km/h
599 03-01-2021 01:50:00 1.8 C 5.26 g/m*3 1.8 C 4.8 km/h
600 03-01-2021 01:55:00 1.8 C 5.26 g/m*3 -0.65 C 8.1 km/h
Sensor: Nr:Datum:Temp:Abs-Feuchte:Windchill:Wind:
Aussen-T/F 601 03-01-2021 02:00:00 1.8 C 5.21 g/m*3 1.8 C 0 km/h
602 03-01-2021 02:05:00 1.8 C 5.21 g/m*3 1.8 C 1.6 km/h
603 03-01-2021 02:10:00 1.8 C 5.21 g/m*3 1.8 C 0 km/h
604 03-01-2021 02:15:00 1.8 C 5.21 g/m*3 1.8 C 3.2 km/h
605 03-01-2021 02:20:00 1.8 C 5.21 g/m*3 1.8 C 0 km/h
606 03-01-2021 02:25:00 1.7 C 5.17 g/m*3 1.7 C 1.6 km/h
607 03-01-2021 02:30:00 1.7 C 5.17 g/m*3 1.7 C 0 km/h
608 03-01-2021 02:35:00 1.7 C 5.17 g/m*3 1.7 C 1.6 km/h
609 03-01-2021 02:40:00 1.7 C 5.17 g/m*3 1.7 C 1.6 km/h
610 03-01-2021 02:45:00 1.7 C 5.17 g/m*3 1.7 C 3.2 km/h
611 03-01-2021 02:50:00 1.7 C 5.17 g/m*3 -0.22 C 6.4 km/h
612 03-01-2021 02:55:00 1.7 C 5.12 g/m*3 1.7 C 1.6 km/h
613 03-01-2021 03:00:00 1.7 C 5.06 g/m*3 1.7 C 4.8 km/h
614 03-01-2021 03:05:00 1.8 C 5.04 g/m*3 1.8 C 3.2 km/h
615 03-01-2021 03:10:00 1.9 C 5.02 g/m*3 1.9 C 1.6 km/h
616 03-01-2021 03:15:00 1.9 C 5.02 g/m*3 1.9 C 0 km/h
617 03-01-2021 03:20:00 2 C 5.06 g/m*3 2 C 3.2 km/h
618 03-01-2021 03:25:00 2.1 C 5.04 g/m*3 2.1 C 4.8 km/h
619 03-01-2021 03:30:00 2.1 C 5.04 g/m*3 2.1 C 1.6 km/h
620 03-01-2021 03:35:00 2.2 C 5.01 g/m*3 2.2 C 3.2 km/h
621 03-01-2021 03:40:00 2.2 C 5.01 g/m*3 2.2 C 1.6 km/h
622 03-01-2021 03:45:00 2.2 C 5.07 g/m*3 2.2 C 1.6 km/h
623 03-01-2021 03:50:00 2.2 C 5.07 g/m*3 2.2 C 3.2 km/h
624 03-01-2021 03:55:00 2.2 C 5.07 g/m*3 2.2 C 1.6 km/h
625 03-01-2021 04:00:00 2.2 C 5.01 g/m*3 2.2 C 3.2 km/h
Sensor: Nr:Datum:Temp:Abs-Feuchte:Windchill:Wind:
Aussen-T/F 626 03-01-2021 04:05:00 2.2 C 5.01 g/m*3 2.2 C 3.2 km/h
627 03-01-2021 04:10:00 2.3 C 5.05 g/m*3 2.3 C 1.6 km/h
628 03-01-2021 04:15:00 2.3 C 5.05 g/m*3 2.3 C 1.6 km/h
629 03-01-2021 04:20:00 2.3 C 5.05 g/m*3 2.3 C 3.2 km/h
630 03-01-2021 04:25:00 2.3 C 5.05 g/m*3 2.3 C 4.8 km/h
631 03-01-2021 04:30:00 2.3 C 5.05 g/m*3 2.3 C 0 km/h
632 03-01-2021 04:35:00 2.3 C 5.1 g/m*3 2.3 C 3.2 km/h
633 03-01-2021 04:40:00 2.3 C 5.1 g/m*3 2.3 C 1.6 km/h
634 03-01-2021 04:45:00 2.3 C 5.1 g/m*3 2.3 C 1.6 km/h
635 03-01-2021 04:50:00 2.2 C 5.07 g/m*3 2.2 C 1.6 km/h
636 03-01-2021 04:55:00 2.2 C 5.07 g/m*3 0.36 C 6.4 km/h
637 03-01-2021 05:00:00 2.2 C 5.07 g/m*3 2.2 C 0 km/h
638 03-01-2021 05:05:00 2.2 C 5.13 g/m*3 2.2 C 0 km/h
639 03-01-2021 05:10:00 2.1 C 5.09 g/m*3 2.1 C 1.6 km/h
640 03-01-2021 05:15:00 2.1 C 5.09 g/m*3 2.1 C 0 km/h
641 03-01-2021 05:20:00 2.1 C 5.09 g/m*3 2.1 C 0 km/h
642 03-01-2021 05:25:00 2.1 C 5.09 g/m*3 2.1 C 0 km/h
643 03-01-2021 05:30:00 2.1 C 5.09 g/m*3 2.1 C 0 km/h
644 03-01-2021 05:35:00 2.1 C 5.09 g/m*3 2.1 C 1.6 km/h
645 03-01-2021 05:40:00 2.1 C 5.09 g/m*3 2.1 C 1.6 km/h
646 03-01-2021 05:45:00 2.1 C 5.09 g/m*3 2.1 C 1.6 km/h
647 03-01-2021 05:50:00 2.1 C 5.09 g/m*3 2.1 C 0 km/h
648 03-01-2021 05:55:00 2.1 C 5.09 g/m*3 2.1 C 1.6 km/h
649 03-01-2021 06:00:00 2.1 C 5.09 g/m*3 2.1 C 1.6 km/h
650 03-01-2021 06:05:00 2.1 C 5.09 g/m*3 2.1 C 1.6 km/h
Sensor: Nr:Datum:Temp:Abs-Feuchte:Windchill:Wind:
Aussen-T/F 651 03-01-2021 06:10:00 2.1 C 5.09 g/m*3 2.1 C 0 km/h
652 03-01-2021 06:15:00 2.1 C 5.09 g/m*3 2.1 C 1.6 km/h
653 03-01-2021 06:20:00 2.1 C 5.09 g/m*3 2.1 C 0 km/h
654 03-01-2021 06:25:00 2.1 C 5.09 g/m*3 2.1 C 0 km/h
655 03-01-2021 06:30:00 2.1 C 5.09 g/m*3 2.1 C 0 km/h
656 03-01-2021 06:35:00 2.1 C 5.15 g/m*3 2.1 C 1.6 km/h
657 03-01-2021 06:40:00 2 C 5.11 g/m*3 2 C 3.2 km/h
658 03-01-2021 06:45:00 2 C 5.11 g/m*3 2 C 0 km/h
659 03-01-2021 06:50:00 2 C 5.11 g/m*3 2 C 0 km/h
660 03-01-2021 06:55:00 1.9 C 5.02 g/m*3 1.9 C 1.6 km/h
661 03-01-2021 07:00:00 1.9 C 5.02 g/m*3 1.9 C 1.6 km/h
662 03-01-2021 07:05:00 1.9 C 5.02 g/m*3 1.9 C 0 km/h
663 03-01-2021 07:10:00 1.9 C 5.02 g/m*3 1.9 C 1.6 km/h
664 03-01-2021 07:15:00 1.9 C 5.02 g/m*3 1.9 C 3.2 km/h
665 03-01-2021 07:20:00 2 C 5.06 g/m*3 2 C 1.6 km/h
666 03-01-2021 07:25:00 2 C 5.06 g/m*3 2 C 1.6 km/h
667 03-01-2021 07:30:00 2 C 5.06 g/m*3 2 C 0 km/h
668 03-01-2021 07:35:00 2 C 5.06 g/m*3 2 C 1.6 km/h
669 03-01-2021 07:40:00 2 C 5 g/m*3 2 C 0 km/h
670 03-01-2021 07:45:00 2.1 C 5.04 g/m*3 2.1 C 3.2 km/h
671 03-01-2021 07:50:00 2.1 C 4.98 g/m*3 2.1 C 3.2 km/h
672 03-01-2021 07:55:00 2.1 C 4.98 g/m*3 2.1 C 0 km/h
673 03-01-2021 08:00:00 2.2 C 5.01 g/m*3 2.2 C 0 km/h
674 03-01-2021 08:05:00 2.2 C 5.01 g/m*3 2.2 C 3.2 km/h
675 03-01-2021 08:10:00 2.2 C 4.96 g/m*3 2.2 C 1.6 km/h
Sensor: Nr:Datum:Temp:Abs-Feuchte:Windchill:Wind:
Aussen-T/F 676 03-01-2021 08:15:00 2.2 C 4.96 g/m*3 2.2 C 1.6 km/h
677 03-01-2021 08:20:00 2.3 C 4.99 g/m*3 2.3 C 3.2 km/h
678 03-01-2021 08:25:00 2.3 C 4.99 g/m*3 2.3 C 1.6 km/h
679 03-01-2021 08:30:00 2.3 C 4.99 g/m*3 2.3 C 3.2 km/h
680 03-01-2021 08:35:00 2.3 C 4.99 g/m*3 2.3 C 1.6 km/h
681 03-01-2021 08:40:00 2.3 C 4.93 g/m*3 2.3 C 1.6 km/h
682 03-01-2021 08:45:00 2.4 C 5.02 g/m*3 2.4 C 1.6 km/h
683 03-01-2021 08:50:00 2.4 C 5.02 g/m*3 2.4 C 1.6 km/h
684 03-01-2021 08:55:00 2.4 C 4.97 g/m*3 2.4 C 0 km/h
685 03-01-2021 09:00:00 2.4 C 5.02 g/m*3 2.4 C 0 km/h
686 03-01-2021 09:05:00 2.4 C 5.08 g/m*3 2.4 C 0 km/h
687 03-01-2021 09:10:00 2.4 C 5.08 g/m*3 2.4 C 0 km/h
688 03-01-2021 09:15:00 2.4 C 5.08 g/m*3 2.4 C 0 km/h
689 03-01-2021 09:20:00 2.4 C 5.08 g/m*3 2.4 C 0 km/h
690 03-01-2021 09:25:00 2.3 C 5.05 g/m*3 2.3 C 0 km/h
691 03-01-2021 09:30:00 2.3 C 5.1 g/m*3 2.3 C 0 km/h
692 03-01-2021 09:35:00 2.4 C 5.08 g/m*3 2.4 C 0 km/h
693 03-01-2021 09:40:00 2.4 C 5.14 g/m*3 2.4 C 0 km/h
694 03-01-2021 09:45:00 2.3 C 5.1 g/m*3 2.3 C 0 km/h
695 03-01-2021 09:50:00 2.4 C 5.14 g/m*3 2.4 C 0 km/h
696 03-01-2021 09:55:00 2.4 C 5.14 g/m*3 2.4 C 0 km/h
697 03-01-2021 10:00:00 2.4 C 5.14 g/m*3 2.4 C 0 km/h
698 03-01-2021 10:05:00 2.4 C 5.14 g/m*3 2.4 C 1.6 km/h
699 03-01-2021 10:10:00 2.5 C 5.17 g/m*3 2.5 C 1.6 km/h
700 03-01-2021 10:15:00 2.5 C 5.12 g/m*3 2.5 C 1.6 km/h
Sensor: Nr:Datum:Temp:Abs-Feuchte:Windchill:Wind:
Aussen-T/F 701 03-01-2021 10:20:00 2.6 C 5.15 g/m*3 2.6 C 1.6 km/h
702 03-01-2021 10:25:00 2.6 C 5.09 g/m*3 0.29 C 8.1 km/h
703 03-01-2021 10:30:00 2.6 C 5.09 g/m*3 2.6 C 1.6 km/h
704 03-01-2021 10:35:00 2.7 C 5.13 g/m*3 2.7 C 0 km/h
705 03-01-2021 10:40:00 2.7 C 5.13 g/m*3 2.7 C 1.6 km/h
706 03-01-2021 10:45:00 2.7 C 5.07 g/m*3 2.7 C 1.6 km/h
707 03-01-2021 10:50:00 2.8 C 5.1 g/m*3 2.8 C 0 km/h
708 03-01-2021 10:55:00 2.8 C 5.1 g/m*3 2.8 C 0 km/h
709 03-01-2021 11:00:00 2.8 C 5.1 g/m*3 2.8 C 1.6 km/h
710 03-01-2021 11:05:00 2.9 C 5.14 g/m*3 2.9 C 0 km/h
711 03-01-2021 11:10:00 2.9 C 5.14 g/m*3 2.9 C 3.2 km/h
712 03-01-2021 11:15:00 2.9 C 5.14 g/m*3 2.9 C 4.8 km/h
713 03-01-2021 11:20:00 3.1 C 5.21 g/m*3 3.1 C 1.6 km/h
714 03-01-2021 11:25:00 3.1 C 5.15 g/m*3 0.87 C 8.1 km/h
715 03-01-2021 11:30:00 3.1 C 5.15 g/m*3 3.1 C 4.8 km/h
716 03-01-2021 11:35:00 3.2 C 5.18 g/m*3 3.2 C 4.8 km/h
717 03-01-2021 11:40:00 3.2 C 5.18 g/m*3 1.51 C 6.4 km/h
718 03-01-2021 11:45:00 3.2 C 5.18 g/m*3 3.2 C 4.8 km/h
719 03-01-2021 11:50:00 3.3 C 5.22 g/m*3 3.3 C 4.8 km/h
720 03-01-2021 11:55:00 3.3 C 5.22 g/m*3 3.3 C 1.6 km/h
721 03-01-2021 12:00:00 3.3 C 5.22 g/m*3 3.3 C 4.8 km/h
722 03-01-2021 12:05:00 3.3 C 5.22 g/m*3 1.11 C 8.1 km/h
723 03-01-2021 12:10:00 3.3 C 5.16 g/m*3 1.63 C 6.4 km/h
724 03-01-2021 12:15:00 3.4 C 5.19 g/m*3 1.23 C 8.1 km/h
725 03-01-2021 12:20:00 3.4 C 5.19 g/m*3 1.23 C 8.1 km/h
Sensor: Nr:Datum:Temp:Abs-Feuchte:Windchill:Wind:
Aussen-T/F 726 03-01-2021 12:25:00 3.4 C 5.25 g/m*3 1.75 C 6.4 km/h
727 03-01-2021 12:30:00 3.4 C 5.19 g/m*3 3.4 C 4.8 km/h
728 03-01-2021 12:35:00 3.4 C 5.19 g/m*3 1.75 C 6.4 km/h
729 03-01-2021 12:40:00 3.4 C 5.19 g/m*3 3.4 C 4.8 km/h
730 03-01-2021 12:45:00 3.4 C 5.25 g/m*3 1.23 C 8.1 km/h
731 03-01-2021 12:50:00 3.4 C 5.19 g/m*3 1.75 C 6.4 km/h
732 03-01-2021 12:55:00 3.4 C 5.19 g/m*3 0.46 C 11.3 km/h
733 03-01-2021 13:00:00 3.4 C 5.19 g/m*3 0.46 C 11.3 km/h
734 03-01-2021 13:05:00 3.4 C 5.19 g/m*3 3.4 C 3.2 km/h
735 03-01-2021 13:10:00 3.5 C 5.23 g/m*3 3.5 C 4.8 km/h
736 03-01-2021 13:15:00 3.5 C 5.29 g/m*3 3.5 C 3.2 km/h
737 03-01-2021 13:20:00 3.4 C 5.19 g/m*3 3.4 C 4.8 km/h
738 03-01-2021 13:25:00 3.5 C 5.23 g/m*3 3.5 C 4.8 km/h
739 03-01-2021 13:30:00 3.4 C 5.25 g/m*3 3.4 C 1.6 km/h
740 03-01-2021 13:35:00 3.5 C 5.29 g/m*3 3.5 C 4.8 km/h
741 03-01-2021 13:40:00 3.5 C 5.29 g/m*3 3.5 C 0 km/h
742 03-01-2021 13:45:00 3.6 C 5.39 g/m*3 3.6 C 1.6 km/h
743 03-01-2021 13:50:00 3.6 C 5.32 g/m*3 3.6 C 0 km/h
744 03-01-2021 13:55:00 3.6 C 5.32 g/m*3 3.6 C 4.8 km/h
745 03-01-2021 14:00:00 3.6 C 5.32 g/m*3 3.6 C 1.6 km/h
746 03-01-2021 14:05:00 3.6 C 5.39 g/m*3 3.6 C 4.8 km/h
747 03-01-2021 14:10:00 3.6 C 5.32 g/m*3 3.6 C 4.8 km/h
748 03-01-2021 14:15:00 3.6 C 5.32 g/m*3 1.98 C 6.4 km/h
749 03-01-2021 14:20:00 3.7 C 5.3 g/m*3 2.09 C 6.4 km/h
750 03-01-2021 14:25:00 3.7 C 5.36 g/m*3 3.7 C 4.8 km/h
Sensor: Nr:Datum:Temp:Abs-Feuchte:Windchill:Wind:
Aussen-T/F 751 03-01-2021 14:30:00 3.8 C 5.33 g/m*3 2.21 C 6.4 km/h
752 03-01-2021 14:35:00 3.8 C 5.33 g/m*3 3.8 C 4.8 km/h
753 03-01-2021 14:40:00 3.8 C 5.33 g/m*3 3.8 C 3.2 km/h
754 03-01-2021 14:45:00 3.8 C 5.4 g/m*3 2.21 C 6.4 km/h
755 03-01-2021 14:50:00 3.8 C 5.4 g/m*3 1.29 C 9.7 km/h
756 03-01-2021 14:55:00 3.8 C 5.33 g/m*3 1.7 C 8.1 km/h
757 03-01-2021 15:00:00 3.8 C 5.4 g/m*3 2.21 C 6.4 km/h
758 03-01-2021 15:05:00 3.8 C 5.4 g/m*3 2.21 C 6.4 km/h
759 03-01-2021 15:10:00 3.8 C 5.4 g/m*3 3.8 C 4.8 km/h
760 03-01-2021 15:15:00 3.8 C 5.4 g/m*3 3.8 C 3.2 km/h
761 03-01-2021 15:20:00 3.8 C 5.4 g/m*3 3.8 C 3.2 km/h
762 03-01-2021 15:25:00 3.8 C 5.46 g/m*3 3.8 C 1.6 km/h
763 03-01-2021 15:30:00 3.8 C 5.46 g/m*3 3.8 C 1.6 km/h
764 03-01-2021 15:35:00 3.7 C 5.42 g/m*3 3.7 C 0 km/h
765 03-01-2021 15:40:00 3.7 C 5.42 g/m*3 3.7 C 0 km/h
766 03-01-2021 15:45:00 3.7 C 5.42 g/m*3 3.7 C 1.6 km/h
767 03-01-2021 15:50:00 3.7 C 5.48 g/m*3 3.7 C 4.8 km/h
768 03-01-2021 15:55:00 3.6 C 5.39 g/m*3 3.6 C 4.8 km/h
769 03-01-2021 16:00:00 3.6 C 5.45 g/m*3 3.6 C 4.8 km/h
770 03-01-2021 16:05:00 3.6 C 5.45 g/m*3 3.6 C 3.2 km/h
771 03-01-2021 16:10:00 3.6 C 5.45 g/m*3 1.98 C 6.4 km/h
772 03-01-2021 16:15:00 3.6 C 5.45 g/m*3 1.98 C 6.4 km/h
773 03-01-2021 16:20:00 3.6 C 5.45 g/m*3 1.98 C 6.4 km/h
774 03-01-2021 16:25:00 3.6 C 5.45 g/m*3 1.46 C 8.1 km/h
775 03-01-2021 16:30:00 3.5 C 5.41 g/m*3 3.5 C 4.8 km/h
Sensor: Nr:Datum:Temp:Abs-Feuchte:Windchill:Wind:
Aussen-T/F 776 03-01-2021 16:35:00 3.5 C 5.41 g/m*3 3.5 C 4.8 km/h
777 03-01-2021 16:40:00 3.4 C 5.37 g/m*3 3.4 C 1.6 km/h
778 03-01-2021 16:45:00 3.4 C 5.37 g/m*3 3.4 C 1.6 km/h
779 03-01-2021 16:50:00 3.4 C 5.44 g/m*3 3.4 C 0 km/h
780 03-01-2021 16:55:00 3.4 C 5.44 g/m*3 3.4 C 0 km/h
781 03-01-2021 17:00:00 3.4 C 5.44 g/m*3 3.4 C 1.6 km/h
782 03-01-2021 17:05:00 3.4 C 5.44 g/m*3 3.4 C 1.6 km/h
783 03-01-2021 17:10:00 3.3 C 5.4 g/m*3 3.3 C 3.2 km/h
784 03-01-2021 17:15:00 3.3 C 5.4 g/m*3 3.3 C 1.6 km/h
785 03-01-2021 17:20:00 3.3 C 5.46 g/m*3 3.3 C 0 km/h
786 03-01-2021 17:25:00 3.3 C 5.46 g/m*3 3.3 C 0 km/h
787 03-01-2021 17:30:00 3.3 C 5.46 g/m*3 3.3 C 1.6 km/h
788 03-01-2021 17:35:00 3.2 C 5.42 g/m*3 3.2 C 1.6 km/h
789 03-01-2021 17:40:00 3.2 C 5.42 g/m*3 3.2 C 0 km/h
790 03-01-2021 17:45:00 3.2 C 5.42 g/m*3 3.2 C 0 km/h
791 03-01-2021 17:50:00 3.1 C 5.45 g/m*3 3.1 C 0 km/h
792 03-01-2021 17:55:00 3.1 C 5.45 g/m*3 3.1 C 0 km/h
793 03-01-2021 18:00:00 3.1 C 5.45 g/m*3 3.1 C 1.6 km/h
794 03-01-2021 18:05:00 3.1 C 5.45 g/m*3 3.1 C 1.6 km/h
795 03-01-2021 18:10:00 3 C 5.41 g/m*3 3 C 0 km/h
796 03-01-2021 18:15:00 3 C 5.47 g/m*3 3 C 0 km/h
797 03-01-2021 18:20:00 2.9 C 5.43 g/m*3 2.9 C 0 km/h
798 03-01-2021 18:25:00 2.9 C 5.43 g/m*3 2.9 C 0 km/h
799 03-01-2021 18:30:00 2.9 C 5.43 g/m*3 2.9 C 0 km/h
800 03-01-2021 18:35:00 2.9 C 5.43 g/m*3 2.9 C 0 km/h
Sensor: Nr:Datum:Temp:Abs-Feuchte:Windchill:Wind:
Aussen-T/F 801 03-01-2021 18:40:00 2.9 C 5.43 g/m*3 2.9 C 0 km/h
802 03-01-2021 18:45:00 2.8 C 5.4 g/m*3 2.8 C 0 km/h
803 03-01-2021 18:50:00 2.8 C 5.4 g/m*3 2.8 C 0 km/h
804 03-01-2021 18:55:00 2.8 C 5.4 g/m*3 2.8 C 0 km/h
805 03-01-2021 19:00:00 2.8 C 5.46 g/m*3 2.8 C 0 km/h
806 03-01-2021 19:05:00 2.7 C 5.42 g/m*3 2.7 C 0 km/h
807 03-01-2021 19:10:00 2.7 C 5.42 g/m*3 2.7 C 1.6 km/h
808 03-01-2021 19:15:00 2.7 C 5.42 g/m*3 2.7 C 3.2 km/h
809 03-01-2021 19:20:00 2.7 C 5.42 g/m*3 2.7 C 1.6 km/h
810 03-01-2021 19:25:00 2.7 C 5.42 g/m*3 2.7 C 0 km/h
811 03-01-2021 19:30:00 2.7 C 5.42 g/m*3 2.7 C 0 km/h
812 03-01-2021 19:35:00 2.6 C 5.38 g/m*3 2.6 C 0 km/h
813 03-01-2021 19:40:00 2.6 C 5.38 g/m*3 2.6 C 0 km/h
814 03-01-2021 19:45:00 2.6 C 5.38 g/m*3 2.6 C 0 km/h
815 03-01-2021 19:50:00 2.6 C 5.44 g/m*3 2.6 C 0 km/h
816 03-01-2021 19:55:00 2.6 C 5.38 g/m*3 2.6 C 0 km/h
817 03-01-2021 20:00:00 2.6 C 5.44 g/m*3 2.6 C 0 km/h
818 03-01-2021 20:05:00 2.5 C 5.4 g/m*3 2.5 C 0 km/h
819 03-01-2021 20:10:00 2.5 C 5.4 g/m*3 2.5 C 0 km/h
820 03-01-2021 20:15:00 2.5 C 5.4 g/m*3 2.5 C 1.6 km/h
821 03-01-2021 20:20:00 2.5 C 5.4 g/m*3 2.5 C 0 km/h
822 03-01-2021 20:25:00 2.5 C 5.4 g/m*3 2.5 C 0 km/h
823 03-01-2021 20:30:00 2.5 C 5.4 g/m*3 2.5 C 0 km/h
824 03-01-2021 20:35:00 2.5 C 5.4 g/m*3 2.5 C 0 km/h
825 03-01-2021 20:40:00 2.6 C 5.44 g/m*3 2.6 C 0 km/h
Sensor: Nr:Datum:Temp:Abs-Feuchte:Windchill:Wind:
Aussen-T/F 826 03-01-2021 20:45:00 2.5 C 5.4 g/m*3 2.5 C 0 km/h
827 03-01-2021 20:50:00 2.5 C 5.4 g/m*3 2.5 C 0 km/h
828 03-01-2021 20:55:00 2.5 C 5.4 g/m*3 2.5 C 0 km/h
829 03-01-2021 21:00:00 2.5 C 5.4 g/m*3 2.5 C 0 km/h
830 03-01-2021 21:05:00 2.5 C 5.4 g/m*3 2.5 C 1.6 km/h
831 03-01-2021 21:10:00 2.5 C 5.4 g/m*3 2.5 C 0 km/h
832 03-01-2021 21:15:00 2.5 C 5.4 g/m*3 2.5 C 0 km/h
833 03-01-2021 21:20:00 2.4 C 5.37 g/m*3 2.4 C 0 km/h
834 03-01-2021 21:25:00 2.5 C 5.4 g/m*3 2.5 C 3.2 km/h
835 03-01-2021 21:30:00 2.5 C 5.4 g/m*3 2.5 C 0 km/h
836 03-01-2021 21:35:00 2.5 C 5.4 g/m*3 2.5 C 0 km/h
837 03-01-2021 21:40:00 2.5 C 5.4 g/m*3 2.5 C 0 km/h
838 03-01-2021 21:45:00 2.4 C 5.37 g/m*3 2.4 C 0 km/h
839 03-01-2021 21:50:00 2.4 C 5.37 g/m*3 2.4 C 0 km/h
840 03-01-2021 21:55:00 2.4 C 5.37 g/m*3 2.4 C 0 km/h
841 03-01-2021 22:00:00 2.4 C 5.37 g/m*3 2.4 C 0 km/h
842 03-01-2021 22:05:00 2.4 C 5.37 g/m*3 2.4 C 0 km/h
843 03-01-2021 22:10:00 2.4 C 5.37 g/m*3 2.4 C 0 km/h
844 03-01-2021 22:15:00 2.4 C 5.37 g/m*3 2.4 C 0 km/h
845 03-01-2021 22:20:00 2.4 C 5.37 g/m*3 2.4 C 0 km/h
846 03-01-2021 22:25:00 2.4 C 5.37 g/m*3 2.4 C 0 km/h
847 03-01-2021 22:30:00 2.4 C 5.37 g/m*3 2.4 C 0 km/h
848 03-01-2021 22:35:00 2.4 C 5.37 g/m*3 2.4 C 0 km/h
849 03-01-2021 22:40:00 2.4 C 5.37 g/m*3 2.4 C 0 km/h
850 03-01-2021 22:45:00 2.3 C 5.33 g/m*3 2.3 C 0 km/h
Sensor: Nr:Datum:Temp:Abs-Feuchte:Windchill:Wind:
Aussen-T/F 851 03-01-2021 22:50:00 2.3 C 5.33 g/m*3 2.3 C 0 km/h
852 03-01-2021 22:55:00 2.3 C 5.33 g/m*3 2.3 C 0 km/h
853 03-01-2021 23:00:00 2.3 C 5.33 g/m*3 2.3 C 0 km/h
854 03-01-2021 23:05:00 2.3 C 5.33 g/m*3 2.3 C 0 km/h
855 03-01-2021 23:10:00 2.3 C 5.33 g/m*3 2.3 C 0 km/h
856 03-01-2021 23:15:00 2.3 C 5.33 g/m*3 2.3 C 0 km/h
857 03-01-2021 23:20:00 2.3 C 5.33 g/m*3 2.3 C 0 km/h
858 03-01-2021 23:25:00 2.3 C 5.33 g/m*3 2.3 C 0 km/h
859 03-01-2021 23:30:00 2.3 C 5.33 g/m*3 2.3 C 0 km/h
860 03-01-2021 23:35:00 2.3 C 5.33 g/m*3 2.3 C 0 km/h
861 03-01-2021 23:40:00 2.3 C 5.33 g/m*3 2.3 C 0 km/h
862 03-01-2021 23:45:00 2.3 C 5.39 g/m*3 2.3 C 0 km/h
863 03-01-2021 23:50:00 2.3 C 5.39 g/m*3 2.3 C 0 km/h
864 03-01-2021 23:55:00 2.3 C 5.39 g/m*3 2.3 C 0 km/h
865 04-01-2021 00:00:00 2.3 C 5.39 g/m*3 2.3 C 0 km/h
866 04-01-2021 00:05:00 2.3 C 5.39 g/m*3 2.3 C 0 km/h
867 04-01-2021 00:10:00 2.3 C 5.39 g/m*3 2.3 C 0 km/h
868 04-01-2021 00:15:00 2.2 C 5.35 g/m*3 2.2 C 0 km/h
869 04-01-2021 00:20:00 2.2 C 5.35 g/m*3 2.2 C 0 km/h
870 04-01-2021 00:25:00 2.2 C 5.35 g/m*3 2.2 C 0 km/h
871 04-01-2021 00:30:00 2.2 C 5.35 g/m*3 2.2 C 0 km/h
872 04-01-2021 00:35:00 2.2 C 5.35 g/m*3 2.2 C 0 km/h
873 04-01-2021 00:40:00 2.2 C 5.35 g/m*3 2.2 C 0 km/h
874 04-01-2021 00:45:00 2.2 C 5.35 g/m*3 2.2 C 0 km/h
875 04-01-2021 00:50:00 2.2 C 5.35 g/m*3 2.2 C 0 km/h
Sensor: Nr:Datum:Temp:Abs-Feuchte:Windchill:Wind:
Aussen-T/F 876 04-01-2021 00:55:00 2.2 C 5.35 g/m*3 2.2 C 0 km/h
877 04-01-2021 01:00:00 2.2 C 5.35 g/m*3 2.2 C 0 km/h
878 04-01-2021 01:05:00 2.1 C 5.31 g/m*3 2.1 C 0 km/h
879 04-01-2021 01:10:00 2.2 C 5.35 g/m*3 2.2 C 0 km/h
880 04-01-2021 01:15:00 2.1 C 5.31 g/m*3 2.1 C 0 km/h
881 04-01-2021 01:20:00 2.1 C 5.31 g/m*3 2.1 C 0 km/h
882 04-01-2021 01:25:00 2.1 C 5.31 g/m*3 2.1 C 0 km/h
883 04-01-2021 01:30:00 2.1 C 5.31 g/m*3 2.1 C 0 km/h
884 04-01-2021 01:35:00 2.1 C 5.31 g/m*3 2.1 C 0 km/h
885 04-01-2021 01:40:00 2 C 5.28 g/m*3 2 C 0 km/h
886 04-01-2021 01:45:00 2 C 5.28 g/m*3 2 C 0 km/h
887 04-01-2021 01:50:00 1.9 C 5.24 g/m*3 1.9 C 0 km/h
888 04-01-2021 01:55:00 1.9 C 5.24 g/m*3 1.9 C 0 km/h
889 04-01-2021 02:00:00 1.9 C 5.24 g/m*3 1.9 C 0 km/h
890 04-01-2021 02:05:00 1.9 C 5.24 g/m*3 1.9 C 0 km/h
891 04-01-2021 02:10:00 1.9 C 5.24 g/m*3 1.9 C 0 km/h
892 04-01-2021 02:15:00 1.9 C 5.24 g/m*3 1.9 C 0 km/h
893 04-01-2021 02:20:00 1.9 C 5.24 g/m*3 1.9 C 0 km/h
894 04-01-2021 02:25:00 1.9 C 5.24 g/m*3 1.9 C 1.6 km/h
895 04-01-2021 02:30:00 1.8 C 5.21 g/m*3 1.8 C 0 km/h
896 04-01-2021 02:35:00 1.9 C 5.24 g/m*3 1.9 C 0 km/h
897 04-01-2021 02:40:00 1.8 C 5.21 g/m*3 1.8 C 0 km/h
898 04-01-2021 02:45:00 1.8 C 5.21 g/m*3 1.8 C 0 km/h
899 04-01-2021 02:50:00 1.8 C 5.21 g/m*3 1.8 C 0 km/h
900 04-01-2021 02:55:00 1.8 C 5.21 g/m*3 1.8 C 0 km/h
Sensor: Nr:Datum:Temp:Abs-Feuchte:Windchill:Wind:
Aussen-T/F 901 04-01-2021 03:00:00 1.8 C 5.21 g/m*3 1.8 C 1.6 km/h
902 04-01-2021 03:05:00 1.8 C 5.21 g/m*3 1.8 C 0 km/h
903 04-01-2021 03:10:00 1.8 C 5.21 g/m*3 1.8 C 0 km/h
904 04-01-2021 03:15:00 1.8 C 5.21 g/m*3 1.8 C 0 km/h
905 04-01-2021 03:20:00 1.8 C 5.21 g/m*3 1.8 C 0 km/h
906 04-01-2021 03:25:00 1.8 C 5.21 g/m*3 1.8 C 0 km/h
907 04-01-2021 03:30:00 1.8 C 5.21 g/m*3 1.8 C 0 km/h
908 04-01-2021 03:35:00 1.8 C 5.21 g/m*3 1.8 C 0 km/h
909 04-01-2021 03:40:00 1.8 C 5.21 g/m*3 1.8 C 0 km/h
910 04-01-2021 03:45:00 1.8 C 5.21 g/m*3 1.8 C 0 km/h
911 04-01-2021 03:50:00 1.7 C 5.17 g/m*3 1.7 C 0 km/h
912 04-01-2021 03:55:00 1.7 C 5.17 g/m*3 1.7 C 0 km/h
913 04-01-2021 04:00:00 1.7 C 5.17 g/m*3 1.7 C 0 km/h
914 04-01-2021 04:05:00 1.7 C 5.17 g/m*3 1.7 C 0 km/h
915 04-01-2021 04:10:00 1.7 C 5.17 g/m*3 1.7 C 0 km/h
916 04-01-2021 04:15:00 1.7 C 5.23 g/m*3 1.7 C 0 km/h
917 04-01-2021 04:20:00 1.6 C 5.19 g/m*3 1.6 C 0 km/h
918 04-01-2021 04:25:00 1.6 C 5.19 g/m*3 1.6 C 0 km/h
919 04-01-2021 04:30:00 1.6 C 5.19 g/m*3 1.6 C 0 km/h
920 04-01-2021 04:35:00 1.6 C 5.19 g/m*3 1.6 C 0 km/h
921 04-01-2021 04:40:00 1.6 C 5.19 g/m*3 1.6 C 0 km/h
922 04-01-2021 04:45:00 1.6 C 5.19 g/m*3 1.6 C 0 km/h
923 04-01-2021 04:50:00 1.6 C 5.19 g/m*3 1.6 C 0 km/h
924 04-01-2021 04:55:00 1.6 C 5.19 g/m*3 1.6 C 0 km/h
925 04-01-2021 05:00:00 1.6 C 5.19 g/m*3 1.6 C 0 km/h
Sensor: Nr:Datum:Temp:Abs-Feuchte:Windchill:Wind:
Aussen-T/F 926 04-01-2021 05:05:00 1.5 C 5.16 g/m*3 1.5 C 0 km/h
927 04-01-2021 05:10:00 1.5 C 5.16 g/m*3 1.5 C 0 km/h
928 04-01-2021 05:15:00 1.5 C 5.16 g/m*3 1.5 C 0 km/h
929 04-01-2021 05:20:00 1.5 C 5.1 g/m*3 1.5 C 0 km/h
930 04-01-2021 05:25:00 1.4 C 5.07 g/m*3 1.4 C 0 km/h
931 04-01-2021 05:30:00 1.4 C 5.07 g/m*3 1.4 C 0 km/h
932 04-01-2021 05:35:00 1.3 C 5.03 g/m*3 1.3 C 0 km/h
933 04-01-2021 05:40:00 1.3 C 5.03 g/m*3 1.3 C 0 km/h
934 04-01-2021 05:45:00 1.3 C 5.09 g/m*3 1.3 C 0 km/h
935 04-01-2021 05:50:00 1.2 C 5.05 g/m*3 1.2 C 0 km/h
936 04-01-2021 05:55:00 1.2 C 5.05 g/m*3 1.2 C 0 km/h
937 04-01-2021 06:00:00 1.2 C 5.05 g/m*3 1.2 C 0 km/h
938 04-01-2021 06:05:00 1.1 C 5.02 g/m*3 1.1 C 0 km/h
939 04-01-2021 06:10:00 1.1 C 4.96 g/m*3 1.1 C 0 km/h
940 04-01-2021 06:15:00 1.1 C 4.96 g/m*3 1.1 C 0 km/h
941 04-01-2021 06:20:00 1.1 C 4.96 g/m*3 1.1 C 0 km/h
942 04-01-2021 06:25:00 1.1 C 5.02 g/m*3 1.1 C 0 km/h
943 04-01-2021 06:30:00 1.1 C 5.02 g/m*3 1.1 C 0 km/h
944 04-01-2021 06:35:00 1 C 4.98 g/m*3 1 C 0 km/h
945 04-01-2021 06:40:00 1 C 4.98 g/m*3 1 C 0 km/h
946 04-01-2021 06:45:00 1 C 4.98 g/m*3 1 C 0 km/h
947 04-01-2021 06:50:00 1 C 4.98 g/m*3 1 C 0 km/h
948 04-01-2021 06:55:00 1 C 4.98 g/m*3 1 C 0 km/h
949 04-01-2021 07:00:00 1 C 4.98 g/m*3 1 C 0 km/h
950 04-01-2021 07:05:00 0.9 C 4.95 g/m*3 0.9 C 0 km/h
Sensor: Nr:Datum:Temp:Abs-Feuchte:Windchill:Wind:
Aussen-T/F 951 04-01-2021 07:10:00 0.9 C 4.95 g/m*3 0.9 C 0 km/h
952 04-01-2021 07:15:00 0.9 C 4.95 g/m*3 0.9 C 0 km/h
953 04-01-2021 07:20:00 0.9 C 4.95 g/m*3 0.9 C 0 km/h
954 04-01-2021 07:25:00 0.9 C 4.95 g/m*3 0.9 C 0 km/h
955 04-01-2021 07:30:00 0.9 C 4.95 g/m*3 0.9 C 0 km/h
956 04-01-2021 07:35:00 0.9 C 4.95 g/m*3 0.9 C 0 km/h
957 04-01-2021 07:40:00 0.9 C 4.95 g/m*3 0.9 C 0 km/h
958 04-01-2021 07:45:00 0.9 C 4.95 g/m*3 0.9 C 0 km/h
959 04-01-2021 07:50:00 0.9 C 4.95 g/m*3 0.9 C 0 km/h
960 04-01-2021 07:55:00 0.9 C 4.95 g/m*3 0.9 C 0 km/h
961 04-01-2021 08:00:00 0.9 C 4.95 g/m*3 0.9 C 0 km/h
962 04-01-2021 08:05:00 0.9 C 4.95 g/m*3 0.9 C 0 km/h
963 04-01-2021 08:10:00 0.9 C 4.95 g/m*3 0.9 C 0 km/h
964 04-01-2021 08:15:00 0.9 C 4.95 g/m*3 0.9 C 0 km/h
965 04-01-2021 08:20:00 0.9 C 4.95 g/m*3 0.9 C 0 km/h
966 04-01-2021 08:25:00 1 C 4.98 g/m*3 1 C 0 km/h
967 04-01-2021 08:30:00 1 C 4.98 g/m*3 1 C 0 km/h
968 04-01-2021 08:35:00 1 C 4.98 g/m*3 1 C 0 km/h
969 04-01-2021 08:40:00 1 C 4.98 g/m*3 1 C 0 km/h
970 04-01-2021 08:45:00 1 C 4.98 g/m*3 1 C 0 km/h
971 04-01-2021 08:50:00 1 C 4.98 g/m*3 1 C 0 km/h
972 04-01-2021 08:55:00 1.1 C 5.02 g/m*3 1.1 C 0 km/h
973 04-01-2021 09:00:00 1.1 C 5.02 g/m*3 1.1 C 0 km/h
974 04-01-2021 09:05:00 1.1 C 5.02 g/m*3 1.1 C 0 km/h
975 04-01-2021 09:10:00 1.1 C 5.02 g/m*3 1.1 C 0 km/h
Sensor: Nr:Datum:Temp:Abs-Feuchte:Windchill:Wind:
Aussen-T/F 976 04-01-2021 09:15:00 1.1 C 5.02 g/m*3 1.1 C 0 km/h
977 04-01-2021 09:20:00 1.1 C 5.02 g/m*3 1.1 C 0 km/h
978 04-01-2021 09:25:00 1.1 C 5.02 g/m*3 1.1 C 0 km/h
979 04-01-2021 09:30:00 1.1 C 5.02 g/m*3 1.1 C 0 km/h
980 04-01-2021 09:35:00 1.2 C 5.05 g/m*3 1.2 C 0 km/h
981 04-01-2021 09:40:00 1.2 C 5.05 g/m*3 1.2 C 0 km/h
982 04-01-2021 09:45:00 1.2 C 5.05 g/m*3 1.2 C 0 km/h
983 04-01-2021 09:50:00 1.2 C 5.05 g/m*3 1.2 C 0 km/h
984 04-01-2021 09:55:00 1.2 C 5.05 g/m*3 1.2 C 0 km/h
985 04-01-2021 10:00:00 1.2 C 5.05 g/m*3 1.2 C 0 km/h
986 04-01-2021 10:05:00 1.2 C 5.05 g/m*3 1.2 C 1.6 km/h
987 04-01-2021 10:10:00 1.3 C 5.09 g/m*3 1.3 C 0 km/h
988 04-01-2021 10:15:00 1.3 C 5.09 g/m*3 1.3 C 0 km/h
989 04-01-2021 10:20:00 1.3 C 5.09 g/m*3 1.3 C 0 km/h
990 04-01-2021 10:25:00 1.3 C 5.09 g/m*3 1.3 C 0 km/h
991 04-01-2021 10:30:00 1.3 C 5.09 g/m*3 1.3 C 0 km/h
992 04-01-2021 10:35:00 1.3 C 5.09 g/m*3 1.3 C 0 km/h
993 04-01-2021 10:40:00 1.4 C 5.12 g/m*3 1.4 C 0 km/h
994 04-01-2021 10:45:00 1.4 C 5.12 g/m*3 1.4 C 0 km/h
995 04-01-2021 10:50:00 1.4 C 5.12 g/m*3 1.4 C 0 km/h
996 04-01-2021 10:55:00 1.4 C 5.12 g/m*3 1.4 C 0 km/h
997 04-01-2021 11:00:00 1.4 C 5.12 g/m*3 1.4 C 0 km/h
998 04-01-2021 11:05:00 1.5 C 5.16 g/m*3 1.5 C 0 km/h
999 04-01-2021 11:10:00 1.5 C 5.16 g/m*3 1.5 C 0 km/h
1000 04-01-2021 11:15:00 1.6 C 5.19 g/m*3 1.6 C 0 km/h
Sensor: Nr:Datum:Temp:Abs-Feuchte:Windchill:Wind:
Aussen-T/F 1001 04-01-2021 11:20:00 1.6 C 5.25 g/m*3 1.6 C 0 km/h
1002 04-01-2021 11:25:00 1.6 C 5.25 g/m*3 1.6 C 0 km/h
1003 04-01-2021 11:30:00 1.6 C 5.25 g/m*3 1.6 C 0 km/h
1004 04-01-2021 11:35:00 1.7 C 5.28 g/m*3 1.7 C 0 km/h
1005 04-01-2021 11:40:00 1.7 C 5.28 g/m*3 1.7 C 0 km/h
1006 04-01-2021 11:45:00 1.7 C 5.28 g/m*3 1.7 C 0 km/h
1007 04-01-2021 11:50:00 1.7 C 5.28 g/m*3 1.7 C 0 km/h
1008 04-01-2021 11:55:00 1.7 C 5.28 g/m*3 1.7 C 0 km/h
1009 04-01-2021 12:00:00 1.7 C 5.28 g/m*3 1.7 C 0 km/h
1010 04-01-2021 12:05:00 1.7 C 5.28 g/m*3 1.7 C 0 km/h
1011 04-01-2021 12:10:00 1.8 C 5.32 g/m*3 1.8 C 1.6 km/h
1012 04-01-2021 12:15:00 1.8 C 5.32 g/m*3 1.8 C 0 km/h
1013 04-01-2021 12:20:00 1.8 C 5.32 g/m*3 1.8 C 0 km/h
1014 04-01-2021 12:25:00 1.8 C 5.32 g/m*3 1.8 C 0 km/h
1015 04-01-2021 12:30:00 1.8 C 5.32 g/m*3 1.8 C 0 km/h
1016 04-01-2021 12:35:00 1.8 C 5.32 g/m*3 1.8 C 0 km/h
1017 04-01-2021 12:40:00 1.9 C 5.35 g/m*3 1.9 C 0 km/h
1018 04-01-2021 12:45:00 1.9 C 5.35 g/m*3 1.9 C 0 km/h
1019 04-01-2021 12:50:00 1.9 C 5.35 g/m*3 1.9 C 0 km/h
1020 04-01-2021 12:55:00 1.9 C 5.35 g/m*3 1.9 C 0 km/h
1021 04-01-2021 13:00:00 1.9 C 5.35 g/m*3 1.9 C 0 km/h
1022 04-01-2021 13:05:00 1.9 C 5.35 g/m*3 1.9 C 3.2 km/h
1023 04-01-2021 13:10:00 1.9 C 5.35 g/m*3 1.9 C 0 km/h
1024 04-01-2021 13:15:00 2 C 5.39 g/m*3 2 C 0 km/h
1025 04-01-2021 13:20:00 2 C 5.39 g/m*3 2 C 0 km/h
Sensor: Nr:Datum:Temp:Abs-Feuchte:Windchill:Wind:
Aussen-T/F 1026 04-01-2021 13:25:00 2 C 5.39 g/m*3 2 C 0 km/h
1027 04-01-2021 13:30:00 2 C 5.39 g/m*3 2 C 1.6 km/h
1028 04-01-2021 13:35:00 2 C 5.39 g/m*3 2 C 0 km/h
1029 04-01-2021 13:40:00 2 C 5.39 g/m*3 2 C 0 km/h
1030 04-01-2021 13:45:00 2 C 5.39 g/m*3 2 C 0 km/h
1031 04-01-2021 13:50:00 2 C 5.39 g/m*3 2 C 0 km/h
1032 04-01-2021 13:55:00 2 C 5.39 g/m*3 2 C 1.6 km/h
1033 04-01-2021 14:00:00 2 C 5.39 g/m*3 2 C 0 km/h
1034 04-01-2021 14:05:00 2 C 5.39 g/m*3 2 C 0 km/h
1035 04-01-2021 14:10:00 2.1 C 5.43 g/m*3 2.1 C 0 km/h
1036 04-01-2021 14:15:00 2.1 C 5.43 g/m*3 2.1 C 0 km/h
1037 04-01-2021 14:20:00 2.1 C 5.43 g/m*3 2.1 C 0 km/h
1038 04-01-2021 14:25:00 2 C 5.39 g/m*3 2 C 1.6 km/h
1039 04-01-2021 14:30:00 2 C 5.39 g/m*3 2 C 0 km/h
1040 04-01-2021 14:35:00 2 C 5.39 g/m*3 2 C 1.6 km/h
1041 04-01-2021 14:40:00 2 C 5.39 g/m*3 2 C 0 km/h
1042 04-01-2021 14:45:00 2 C 5.39 g/m*3 2 C 0 km/h
1043 04-01-2021 14:50:00 2 C 5.39 g/m*3 2 C 0 km/h
1044 04-01-2021 14:55:00 2 C 5.39 g/m*3 2 C 0 km/h
1045 04-01-2021 15:00:00 2 C 5.39 g/m*3 2 C 0 km/h
1046 04-01-2021 15:05:00 2 C 5.39 g/m*3 2 C 0 km/h
1047 04-01-2021 15:10:00 2 C 5.39 g/m*3 2 C 0 km/h
1048 04-01-2021 15:15:00 2 C 5.39 g/m*3 2 C 0 km/h
1049 04-01-2021 15:20:00 2 C 5.39 g/m*3 2 C 0 km/h
1050 04-01-2021 15:25:00 2 C 5.39 g/m*3 2 C 0 km/h
Sensor: Nr:Datum:Temp:Abs-Feuchte:Windchill:Wind:
Aussen-T/F 1051 04-01-2021 15:30:00 2 C 5.39 g/m*3 2 C 0 km/h
1052 04-01-2021 15:35:00 2 C 5.39 g/m*3 2 C 0 km/h
1053 04-01-2021 15:40:00 2 C 5.39 g/m*3 2 C 1.6 km/h
1054 04-01-2021 15:45:00 2 C 5.39 g/m*3 2 C 0 km/h
1055 04-01-2021 15:50:00 2 C 5.39 g/m*3 2 C 1.6 km/h
1056 04-01-2021 15:55:00 2 C 5.39 g/m*3 2 C 0 km/h
1057 04-01-2021 16:00:00 2 C 5.39 g/m*3 2 C 0 km/h
1058 04-01-2021 16:05:00 2 C 5.39 g/m*3 2 C 0 km/h
1059 04-01-2021 16:10:00 2 C 5.39 g/m*3 2 C 0 km/h
1060 04-01-2021 16:15:00 2 C 5.39 g/m*3 2 C 0 km/h
1061 04-01-2021 16:20:00 1.9 C 5.35 g/m*3 1.9 C 0 km/h
1062 04-01-2021 16:25:00 1.9 C 5.35 g/m*3 1.9 C 0 km/h
1063 04-01-2021 16:30:00 1.9 C 5.35 g/m*3 1.9 C 0 km/h
1064 04-01-2021 16:35:00 1.9 C 5.35 g/m*3 1.9 C 0 km/h
1065 04-01-2021 16:40:00 1.9 C 5.35 g/m*3 1.9 C 0 km/h
1066 04-01-2021 16:45:00 1.9 C 5.35 g/m*3 1.9 C 0 km/h
1067 04-01-2021 16:50:00 1.9 C 5.35 g/m*3 1.9 C 0 km/h
1068 04-01-2021 16:55:00 1.9 C 5.35 g/m*3 1.9 C 0 km/h
1069 04-01-2021 17:00:00 1.9 C 5.35 g/m*3 1.9 C 0 km/h
1070 04-01-2021 17:05:00 1.8 C 5.32 g/m*3 1.8 C 0 km/h
1071 04-01-2021 17:10:00 1.8 C 5.32 g/m*3 1.8 C 0 km/h
1072 04-01-2021 17:15:00 1.8 C 5.32 g/m*3 1.8 C 0 km/h
1073 04-01-2021 17:20:00 1.8 C 5.32 g/m*3 1.8 C 0 km/h
1074 04-01-2021 17:25:00 1.8 C 5.32 g/m*3 1.8 C 0 km/h
1075 04-01-2021 17:30:00 1.8 C 5.32 g/m*3 1.8 C 0 km/h
Sensor: Nr:Datum:Temp:Abs-Feuchte:Windchill:Wind:
Aussen-T/F 1076 04-01-2021 17:35:00 1.8 C 5.32 g/m*3 1.8 C 0 km/h
1077 04-01-2021 17:40:00 1.8 C 5.32 g/m*3 1.8 C 0 km/h
1078 04-01-2021 17:45:00 1.8 C 5.32 g/m*3 1.8 C 0 km/h
1079 04-01-2021 17:50:00 1.8 C 5.32 g/m*3 1.8 C 0 km/h
1080 04-01-2021 17:55:00 1.8 C 5.32 g/m*3 1.8 C 0 km/h
1081 04-01-2021 18:00:00 1.8 C 5.32 g/m*3 1.8 C 0 km/h
1082 04-01-2021 18:05:00 1.8 C 5.32 g/m*3 1.8 C 0 km/h
1083 04-01-2021 18:10:00 1.8 C 5.32 g/m*3 1.8 C 1.6 km/h
1084 04-01-2021 18:15:00 1.8 C 5.32 g/m*3 1.8 C 3.2 km/h
1085 04-01-2021 18:20:00 1.8 C 5.32 g/m*3 1.8 C 3.2 km/h
1086 04-01-2021 18:25:00 1.8 C 5.32 g/m*3 1.8 C 0 km/h
1087 04-01-2021 18:30:00 1.8 C 5.32 g/m*3 1.8 C 0 km/h
1088 04-01-2021 18:35:00 1.8 C 5.32 g/m*3 1.8 C 0 km/h
1089 04-01-2021 18:40:00 1.8 C 5.32 g/m*3 1.8 C 0 km/h
1090 04-01-2021 18:45:00 1.8 C 5.32 g/m*3 1.8 C 0 km/h
1091 04-01-2021 18:50:00 1.8 C 5.32 g/m*3 1.8 C 0 km/h
1092 04-01-2021 18:55:00 1.8 C 5.32 g/m*3 1.8 C 0 km/h
1093 04-01-2021 19:00:00 1.8 C 5.32 g/m*3 1.8 C 0 km/h
1094 04-01-2021 19:05:00 1.8 C 5.32 g/m*3 1.8 C 3.2 km/h
1095 04-01-2021 19:10:00 1.8 C 5.32 g/m*3 1.8 C 3.2 km/h
1096 04-01-2021 19:15:00 1.8 C 5.32 g/m*3 1.8 C 1.6 km/h
1097 04-01-2021 19:20:00 1.8 C 5.32 g/m*3 1.8 C 3.2 km/h
1098 04-01-2021 19:25:00 1.8 C 5.32 g/m*3 1.8 C 1.6 km/h
1099 04-01-2021 19:30:00 1.8 C 5.32 g/m*3 1.8 C 0 km/h
1100 04-01-2021 19:35:00 1.8 C 5.32 g/m*3 1.8 C 0 km/h
Sensor: Nr:Datum:Temp:Abs-Feuchte:Windchill:Wind:
Aussen-T/F 1101 04-01-2021 19:40:00 1.8 C 5.32 g/m*3 1.8 C 0 km/h
1102 04-01-2021 19:45:00 1.8 C 5.32 g/m*3 1.8 C 0 km/h
1103 04-01-2021 19:50:00 1.8 C 5.32 g/m*3 1.8 C 0 km/h
1104 04-01-2021 19:55:00 1.8 C 5.32 g/m*3 1.8 C 0 km/h
1105 04-01-2021 20:00:00 1.8 C 5.32 g/m*3 1.8 C 0 km/h
1106 04-01-2021 20:05:00 1.8 C 5.32 g/m*3 1.8 C 0 km/h
1107 04-01-2021 20:10:00 1.8 C 5.32 g/m*3 1.8 C 0 km/h
1108 04-01-2021 20:15:00 1.8 C 5.32 g/m*3 1.8 C 0 km/h
1109 04-01-2021 20:20:00 1.7 C 5.28 g/m*3 1.7 C 0 km/h
1110 04-01-2021 20:25:00 1.7 C 5.28 g/m*3 1.7 C 0 km/h
1111 04-01-2021 20:30:00 1.7 C 5.28 g/m*3 1.7 C 0 km/h
1112 04-01-2021 20:35:00 1.8 C 5.32 g/m*3 1.8 C 0 km/h
1113 04-01-2021 20:40:00 1.8 C 5.32 g/m*3 1.8 C 0 km/h
1114 04-01-2021 20:45:00 1.7 C 5.28 g/m*3 1.7 C 0 km/h
1115 04-01-2021 20:50:00 1.7 C 5.28 g/m*3 1.7 C 0 km/h
1116 04-01-2021 20:55:00 1.7 C 5.28 g/m*3 1.7 C 0 km/h
1117 04-01-2021 21:00:00 1.7 C 5.28 g/m*3 1.7 C 0 km/h
1118 04-01-2021 21:05:00 1.7 C 5.28 g/m*3 1.7 C 0 km/h
1119 04-01-2021 21:10:00 1.7 C 5.28 g/m*3 1.7 C 0 km/h
1120 04-01-2021 21:15:00 1.7 C 5.28 g/m*3 1.7 C 0 km/h
1121 04-01-2021 21:20:00 1.7 C 5.28 g/m*3 1.7 C 0 km/h
1122 04-01-2021 21:25:00 1.7 C 5.28 g/m*3 1.7 C 0 km/h
1123 04-01-2021 21:30:00 1.7 C 5.28 g/m*3 1.7 C 0 km/h
1124 04-01-2021 21:35:00 1.8 C 5.32 g/m*3 1.8 C 0 km/h
1125 04-01-2021 21:40:00 1.7 C 5.28 g/m*3 1.7 C 0 km/h
Sensor: Nr:Datum:Temp:Abs-Feuchte:Windchill:Wind:
Aussen-T/F 1126 04-01-2021 21:45:00 1.7 C 5.28 g/m*3 1.7 C 0 km/h
1127 04-01-2021 21:50:00 1.7 C 5.28 g/m*3 1.7 C 0 km/h
1128 04-01-2021 21:55:00 1.7 C 5.28 g/m*3 1.7 C 0 km/h
1129 04-01-2021 22:00:00 1.7 C 5.28 g/m*3 1.7 C 0 km/h
1130 04-01-2021 22:05:00 1.7 C 5.28 g/m*3 1.7 C 0 km/h
1131 04-01-2021 22:10:00 1.7 C 5.28 g/m*3 1.7 C 0 km/h
1132 04-01-2021 22:15:00 1.8 C 5.32 g/m*3 1.8 C 0 km/h
1133 04-01-2021 22:20:00 1.8 C 5.32 g/m*3 1.8 C 0 km/h
1134 04-01-2021 22:25:00 1.8 C 5.32 g/m*3 1.8 C 0 km/h
1135 04-01-2021 22:30:00 1.8 C 5.32 g/m*3 1.8 C 0 km/h
1136 04-01-2021 22:35:00 1.8 C 5.32 g/m*3 1.8 C 0 km/h
1137 04-01-2021 22:40:00 1.8 C 5.32 g/m*3 1.8 C 0 km/h
1138 04-01-2021 22:45:00 1.8 C 5.32 g/m*3 1.8 C 0 km/h
1139 04-01-2021 22:50:00 1.8 C 5.32 g/m*3 1.8 C 0 km/h
1140 04-01-2021 22:55:00 1.8 C 5.32 g/m*3 1.8 C 0 km/h
1141 04-01-2021 23:00:00 1.8 C 5.32 g/m*3 1.8 C 0 km/h
1142 04-01-2021 23:05:00 1.8 C 5.32 g/m*3 1.8 C 0 km/h
1143 04-01-2021 23:10:00 1.8 C 5.32 g/m*3 1.8 C 0 km/h
1144 04-01-2021 23:15:00 1.8 C 5.32 g/m*3 1.8 C 0 km/h
1145 04-01-2021 23:20:00 1.8 C 5.32 g/m*3 1.8 C 0 km/h
1146 04-01-2021 23:25:00 1.8 C 5.32 g/m*3 1.8 C 0 km/h
1147 04-01-2021 23:30:00 1.8 C 5.32 g/m*3 1.8 C 0 km/h
1148 04-01-2021 23:35:00 1.8 C 5.32 g/m*3 1.8 C 0 km/h
1149 04-01-2021 23:40:00 1.8 C 5.32 g/m*3 1.8 C 0 km/h
1150 04-01-2021 23:45:00 1.8 C 5.32 g/m*3 1.8 C 1.6 km/h
Sensor: Nr:Datum:Temp:Abs-Feuchte:Windchill:Wind:
Aussen-T/F 1151 04-01-2021 23:50:00 1.8 C 5.32 g/m*3 1.8 C 0 km/h
1152 04-01-2021 23:55:00 1.8 C 5.32 g/m*3 1.8 C 4.8 km/h
1153 05-01-2021 00:00:00 1.8 C 5.32 g/m*3 1.8 C 3.2 km/h
1154 05-01-2021 00:05:00 1.8 C 5.32 g/m*3 1.8 C 1.6 km/h
1155 05-01-2021 00:10:00 1.8 C 5.32 g/m*3 1.8 C 0 km/h
1156 05-01-2021 00:15:00 1.8 C 5.32 g/m*3 1.8 C 0 km/h
1157 05-01-2021 00:20:00 1.8 C 5.32 g/m*3 1.8 C 0 km/h
1158 05-01-2021 00:25:00 1.8 C 5.32 g/m*3 1.8 C 0 km/h
1159 05-01-2021 00:30:00 1.8 C 5.32 g/m*3 1.8 C 0 km/h
1160 05-01-2021 00:35:00 1.9 C 5.35 g/m*3 1.9 C 0 km/h
1161 05-01-2021 00:40:00 1.9 C 5.35 g/m*3 1.9 C 0 km/h
1162 05-01-2021 00:45:00 1.9 C 5.35 g/m*3 1.9 C 0 km/h
1163 05-01-2021 00:50:00 1.9 C 5.35 g/m*3 1.9 C 0 km/h
1164 05-01-2021 00:55:00 1.9 C 5.35 g/m*3 1.9 C 0 km/h
1165 05-01-2021 01:00:00 1.9 C 5.35 g/m*3 1.9 C 0 km/h
1166 05-01-2021 01:05:00 1.9 C 5.35 g/m*3 1.9 C 0 km/h
1167 05-01-2021 01:10:00 1.9 C 5.35 g/m*3 1.9 C 1.6 km/h
1168 05-01-2021 01:15:00 1.9 C 5.35 g/m*3 1.9 C 0 km/h
1169 05-01-2021 01:20:00 1.9 C 5.35 g/m*3 1.9 C 1.6 km/h
1170 05-01-2021 01:25:00 1.9 C 5.35 g/m*3 1.9 C 0 km/h
1171 05-01-2021 01:30:00 1.9 C 5.35 g/m*3 1.9 C 0 km/h
1172 05-01-2021 01:35:00 1.9 C 5.35 g/m*3 1.9 C 0 km/h
1173 05-01-2021 01:40:00 1.9 C 5.35 g/m*3 1.9 C 0 km/h
1174 05-01-2021 01:45:00 1.9 C 5.35 g/m*3 1.9 C 0 km/h
1175 05-01-2021 01:50:00 1.9 C 5.35 g/m*3 1.9 C 0 km/h
Sensor: Nr:Datum:Temp:Abs-Feuchte:Windchill:Wind:
Aussen-T/F 1176 05-01-2021 01:55:00 1.9 C 5.35 g/m*3 1.9 C 1.6 km/h
1177 05-01-2021 02:00:00 1.9 C 5.35 g/m*3 1.9 C 0 km/h
1178 05-01-2021 02:05:00 1.9 C 5.35 g/m*3 1.9 C 0 km/h
1179 05-01-2021 02:10:00 1.9 C 5.35 g/m*3 1.9 C 1.6 km/h
1180 05-01-2021 02:15:00 1.9 C 5.35 g/m*3 1.9 C 0 km/h
1181 05-01-2021 02:20:00 1.9 C 5.35 g/m*3 1.9 C 0 km/h
1182 05-01-2021 02:25:00 1.9 C 5.35 g/m*3 1.9 C 0 km/h
1183 05-01-2021 02:30:00 1.9 C 5.35 g/m*3 1.9 C 1.6 km/h
1184 05-01-2021 02:35:00 1.9 C 5.35 g/m*3 1.9 C 3.2 km/h
1185 05-01-2021 02:40:00 1.9 C 5.35 g/m*3 1.9 C 0 km/h
1186 05-01-2021 02:45:00 1.9 C 5.35 g/m*3 1.9 C 0 km/h
1187 05-01-2021 02:50:00 1.9 C 5.35 g/m*3 1.9 C 0 km/h
1188 05-01-2021 02:55:00 1.9 C 5.35 g/m*3 1.9 C 0 km/h
1189 05-01-2021 03:00:00 2 C 5.39 g/m*3 2 C 0 km/h
1190 05-01-2021 03:05:00 2 C 5.39 g/m*3 2 C 0 km/h
1191 05-01-2021 03:10:00 2 C 5.39 g/m*3 2 C 0 km/h
1192 05-01-2021 03:15:00 2 C 5.39 g/m*3 2 C 0 km/h
1193 05-01-2021 03:20:00 1.9 C 5.35 g/m*3 1.9 C 0 km/h
1194 05-01-2021 03:25:00 2 C 5.39 g/m*3 2 C 0 km/h
1195 05-01-2021 03:30:00 2 C 5.39 g/m*3 2 C 0 km/h
1196 05-01-2021 03:35:00 2 C 5.39 g/m*3 2 C 0 km/h
1197 05-01-2021 03:40:00 2 C 5.39 g/m*3 2 C 0 km/h
1198 05-01-2021 03:45:00 2 C 5.39 g/m*3 2 C 0 km/h
1199 05-01-2021 03:50:00 2 C 5.33 g/m*3 2 C 1.6 km/h
1200 05-01-2021 03:55:00 2 C 5.33 g/m*3 2 C 0 km/h
Sensor: Nr:Datum:Temp:Abs-Feuchte:Windchill:Wind:
Aussen-T/F 1201 05-01-2021 04:00:00 2.1 C 5.37 g/m*3 2.1 C 0 km/h
1202 05-01-2021 04:05:00 2.1 C 5.37 g/m*3 2.1 C 0 km/h
1203 05-01-2021 04:10:00 2.1 C 5.37 g/m*3 2.1 C 0 km/h
1204 05-01-2021 04:15:00 2.1 C 5.37 g/m*3 2.1 C 0 km/h
1205 05-01-2021 04:20:00 2.1 C 5.37 g/m*3 2.1 C 0 km/h
1206 05-01-2021 04:25:00 2.1 C 5.37 g/m*3 2.1 C 0 km/h
1207 05-01-2021 04:30:00 2.1 C 5.37 g/m*3 2.1 C 0 km/h
1208 05-01-2021 04:35:00 2.1 C 5.37 g/m*3 2.1 C 0 km/h
1209 05-01-2021 04:40:00 2.1 C 5.37 g/m*3 2.1 C 0 km/h
1210 05-01-2021 04:45:00 2.1 C 5.37 g/m*3 2.1 C 0 km/h
1211 05-01-2021 04:50:00 2.1 C 5.37 g/m*3 2.1 C 0 km/h
1212 05-01-2021 04:55:00 2.1 C 5.37 g/m*3 2.1 C 0 km/h
1213 05-01-2021 05:00:00 2 C 5.33 g/m*3 2 C 0 km/h
1214 05-01-2021 05:05:00 2 C 5.33 g/m*3 2 C 0 km/h
1215 05-01-2021 05:10:00 2.1 C 5.37 g/m*3 2.1 C 0 km/h
1216 05-01-2021 05:15:00 2.1 C 5.37 g/m*3 2.1 C 0 km/h
1217 05-01-2021 05:20:00 2.1 C 5.37 g/m*3 2.1 C 0 km/h
1218 05-01-2021 05:25:00 2.1 C 5.37 g/m*3 2.1 C 0 km/h
1219 05-01-2021 05:30:00 2.1 C 5.37 g/m*3 2.1 C 0 km/h
1220 05-01-2021 05:35:00 2.1 C 5.37 g/m*3 2.1 C 0 km/h
1221 05-01-2021 05:40:00 2.1 C 5.37 g/m*3 2.1 C 0 km/h
1222 05-01-2021 05:45:00 2.1 C 5.37 g/m*3 2.1 C 0 km/h
1223 05-01-2021 05:50:00 2.1 C 5.37 g/m*3 2.1 C 0 km/h
1224 05-01-2021 05:55:00 2.1 C 5.37 g/m*3 2.1 C 0 km/h
1225 05-01-2021 06:00:00 2.1 C 5.37 g/m*3 2.1 C 0 km/h
Sensor: Nr:Datum:Temp:Abs-Feuchte:Windchill:Wind:
Aussen-T/F 1226 05-01-2021 06:05:00 2.1 C 5.37 g/m*3 2.1 C 0 km/h
1227 05-01-2021 06:10:00 2.1 C 5.37 g/m*3 2.1 C 0 km/h
1228 05-01-2021 06:15:00 2.1 C 5.37 g/m*3 2.1 C 0 km/h
1229 05-01-2021 06:20:00 2.1 C 5.37 g/m*3 2.1 C 0 km/h
1230 05-01-2021 06:25:00 2.1 C 5.37 g/m*3 2.1 C 0 km/h
1231 05-01-2021 06:30:00 2.1 C 5.37 g/m*3 2.1 C 0 km/h
1232 05-01-2021 06:35:00 2.1 C 5.37 g/m*3 2.1 C 0 km/h
1233 05-01-2021 06:40:00 2.1 C 5.37 g/m*3 2.1 C 0 km/h
1234 05-01-2021 06:45:00 2.1 C 5.37 g/m*3 2.1 C 0 km/h
1235 05-01-2021 06:50:00 2.1 C 5.37 g/m*3 2.1 C 0 km/h
1236 05-01-2021 06:55:00 2.1 C 5.37 g/m*3 2.1 C 0 km/h
1237 05-01-2021 07:00:00 2.1 C 5.37 g/m*3 2.1 C 0 km/h
1238 05-01-2021 07:05:00 2.1 C 5.37 g/m*3 2.1 C 0 km/h
1239 05-01-2021 07:10:00 2.1 C 5.37 g/m*3 2.1 C 1.6 km/h
1240 05-01-2021 07:15:00 2.1 C 5.37 g/m*3 2.1 C 0 km/h
1241 05-01-2021 07:20:00 2.1 C 5.37 g/m*3 2.1 C 0 km/h
1242 05-01-2021 07:25:00 2.1 C 5.37 g/m*3 2.1 C 0 km/h
1243 05-01-2021 07:30:00 2.1 C 5.37 g/m*3 2.1 C 0 km/h
1244 05-01-2021 07:35:00 2.1 C 5.37 g/m*3 2.1 C 0 km/h
1245 05-01-2021 07:40:00 2.1 C 5.37 g/m*3 2.1 C 1.6 km/h
1246 05-01-2021 07:45:00 2.1 C 5.37 g/m*3 2.1 C 0 km/h
1247 05-01-2021 07:50:00 2 C 5.33 g/m*3 2 C 0 km/h
1248 05-01-2021 07:55:00 2 C 5.33 g/m*3 2 C 0 km/h
1249 05-01-2021 08:00:00 2 C 5.33 g/m*3 2 C 0 km/h
1250 05-01-2021 08:05:00 2 C 5.33 g/m*3 2 C 0 km/h
Sensor: Nr:Datum:Temp:Abs-Feuchte:Windchill:Wind:
Aussen-T/F 1251 05-01-2021 08:10:00 2 C 5.33 g/m*3 2 C 0 km/h
1252 05-01-2021 08:15:00 2 C 5.33 g/m*3 2 C 0 km/h
1253 05-01-2021 08:20:00 2 C 5.33 g/m*3 2 C 0 km/h
1254 05-01-2021 08:25:00 2 C 5.33 g/m*3 2 C 0 km/h
1255 05-01-2021 08:30:00 2.1 C 5.37 g/m*3 2.1 C 1.6 km/h
1256 05-01-2021 08:35:00 2.1 C 5.37 g/m*3 2.1 C 0 km/h
1257 05-01-2021 08:40:00 2.1 C 5.37 g/m*3 2.1 C 0 km/h
1258 05-01-2021 08:45:00 2.1 C 5.37 g/m*3 2.1 C 0 km/h
1259 05-01-2021 08:50:00 2.1 C 5.37 g/m*3 2.1 C 0 km/h
1260 05-01-2021 08:55:00 2.1 C 5.37 g/m*3 2.1 C 0 km/h
1261 05-01-2021 09:00:00 2.1 C 5.37 g/m*3 2.1 C 0 km/h
1262 05-01-2021 09:05:00 2.1 C 5.37 g/m*3 2.1 C 0 km/h
1263 05-01-2021 09:10:00 2.1 C 5.37 g/m*3 2.1 C 0 km/h
1264 05-01-2021 09:15:00 2.1 C 5.37 g/m*3 2.1 C 0 km/h
1265 05-01-2021 09:20:00 2.1 C 5.37 g/m*3 2.1 C 0 km/h
1266 05-01-2021 09:25:00 2.1 C 5.37 g/m*3 2.1 C 0 km/h
1267 05-01-2021 09:30:00 2.2 C 5.41 g/m*3 2.2 C 0 km/h
1268 05-01-2021 09:35:00 2.2 C 5.41 g/m*3 2.2 C 0 km/h
1269 05-01-2021 09:40:00 2.2 C 5.46 g/m*3 2.2 C 0 km/h
1270 05-01-2021 09:45:00 2.2 C 5.41 g/m*3 2.2 C 0 km/h
1271 05-01-2021 09:50:00 2.2 C 5.41 g/m*3 2.2 C 0 km/h
1272 05-01-2021 09:55:00 2.2 C 5.41 g/m*3 2.2 C 1.6 km/h
1273 05-01-2021 10:00:00 2.2 C 5.41 g/m*3 2.2 C 1.6 km/h
1274 05-01-2021 10:05:00 2.3 C 5.44 g/m*3 2.3 C 1.6 km/h
1275 05-01-2021 10:10:00 2.3 C 5.44 g/m*3 2.3 C 0 km/h
Sensor: Nr:Datum:Temp:Abs-Feuchte:Windchill:Wind:
Aussen-T/F 1276 05-01-2021 10:15:00 2.3 C 5.44 g/m*3 2.3 C 0 km/h
1277 05-01-2021 10:20:00 2.3 C 5.44 g/m*3 2.3 C 0 km/h
1278 05-01-2021 10:25:00 2.3 C 5.44 g/m*3 2.3 C 1.6 km/h
1279 05-01-2021 10:30:00 2.3 C 5.44 g/m*3 2.3 C 0 km/h
1280 05-01-2021 10:35:00 2.4 C 5.48 g/m*3 2.4 C 0 km/h
1281 05-01-2021 10:40:00 2.4 C 5.48 g/m*3 2.4 C 0 km/h
1282 05-01-2021 10:45:00 2.4 C 5.48 g/m*3 2.4 C 3.2 km/h
1283 05-01-2021 10:50:00 2.4 C 5.48 g/m*3 2.4 C 3.2 km/h
1284 05-01-2021 10:55:00 2.5 C 5.52 g/m*3 2.5 C 0 km/h
1285 05-01-2021 11:00:00 2.5 C 5.46 g/m*3 2.5 C 3.2 km/h
1286 05-01-2021 11:05:00 2.6 C 5.5 g/m*3 2.6 C 0 km/h
1287 05-01-2021 11:10:00 2.6 C 5.5 g/m*3 2.6 C 0 km/h
1288 05-01-2021 11:15:00 2.6 C 5.5 g/m*3 2.6 C 0 km/h
1289 05-01-2021 11:20:00 2.6 C 5.5 g/m*3 2.6 C 1.6 km/h
1290 05-01-2021 11:25:00 2.6 C 5.5 g/m*3 2.6 C 1.6 km/h
1291 05-01-2021 11:30:00 2.7 C 5.48 g/m*3 2.7 C 0 km/h
1292 05-01-2021 11:35:00 2.7 C 5.48 g/m*3 2.7 C 0 km/h
1293 05-01-2021 11:40:00 2.7 C 5.48 g/m*3 2.7 C 0 km/h
1294 05-01-2021 11:45:00 2.7 C 5.48 g/m*3 2.7 C 1.6 km/h
1295 05-01-2021 11:50:00 2.8 C 5.46 g/m*3 2.8 C 1.6 km/h
1296 05-01-2021 11:55:00 2.8 C 5.51 g/m*3 2.8 C 4.8 km/h
1297 05-01-2021 12:00:00 2.8 C 5.46 g/m*3 2.8 C 4.8 km/h
1298 05-01-2021 12:05:00 2.8 C 5.46 g/m*3 2.8 C 4.8 km/h
1299 05-01-2021 12:10:00 2.9 C 5.49 g/m*3 2.9 C 3.2 km/h
1300 05-01-2021 12:15:00 2.9 C 5.49 g/m*3 2.9 C 3.2 km/h
Sensor: Nr:Datum:Temp:Abs-Feuchte:Windchill:Wind:
Aussen-T/F 1301 05-01-2021 12:20:00 2.9 C 5.49 g/m*3 2.9 C 1.6 km/h
1302 05-01-2021 12:25:00 2.9 C 5.49 g/m*3 2.9 C 3.2 km/h
1303 05-01-2021 12:30:00 2.9 C 5.49 g/m*3 2.9 C 3.2 km/h
1304 05-01-2021 12:35:00 2.9 C 5.49 g/m*3 1.17 C 6.4 km/h
1305 05-01-2021 12:40:00 2.9 C 5.43 g/m*3 0.64 C 8.1 km/h
1306 05-01-2021 12:45:00 2.9 C 5.49 g/m*3 1.17 C 6.4 km/h
1307 05-01-2021 12:50:00 2.9 C 5.49 g/m*3 2.9 C 4.8 km/h
1308 05-01-2021 12:55:00 2.9 C 5.49 g/m*3 2.9 C 4.8 km/h
1309 05-01-2021 13:00:00 2.9 C 5.49 g/m*3 2.9 C 3.2 km/h
1310 05-01-2021 13:05:00 2.9 C 5.49 g/m*3 2.9 C 0 km/h
1311 05-01-2021 13:10:00 3 C 5.53 g/m*3 3 C 0 km/h
1312 05-01-2021 13:15:00 3 C 5.53 g/m*3 3 C 0 km/h
1313 05-01-2021 13:20:00 3 C 5.53 g/m*3 3 C 0 km/h
1314 05-01-2021 13:25:00 3 C 5.53 g/m*3 3 C 0 km/h
1315 05-01-2021 13:30:00 3.1 C 5.57 g/m*3 3.1 C 0 km/h
1316 05-01-2021 13:35:00 3.1 C 5.57 g/m*3 3.1 C 0 km/h
1317 05-01-2021 13:40:00 3.1 C 5.57 g/m*3 3.1 C 0 km/h
1318 05-01-2021 13:45:00 3.1 C 5.57 g/m*3 3.1 C 0 km/h
1319 05-01-2021 13:50:00 3.1 C 5.57 g/m*3 3.1 C 0 km/h
1320 05-01-2021 13:55:00 3.1 C 5.57 g/m*3 3.1 C 0 km/h
1321 05-01-2021 14:00:00 3.2 C 5.6 g/m*3 3.2 C 0 km/h
1322 05-01-2021 14:05:00 3.2 C 5.6 g/m*3 3.2 C 0 km/h
1323 05-01-2021 14:10:00 3.2 C 5.6 g/m*3 3.2 C 0 km/h
1324 05-01-2021 14:15:00 3.2 C 5.6 g/m*3 3.2 C 0 km/h
1325 05-01-2021 14:20:00 3.2 C 5.6 g/m*3 3.2 C 0 km/h
Sensor: Nr:Datum:Temp:Abs-Feuchte:Windchill:Wind:
Aussen-T/F 1326 05-01-2021 14:25:00 3.2 C 5.6 g/m*3 3.2 C 0 km/h
1327 05-01-2021 14:30:00 3.3 C 5.64 g/m*3 3.3 C 0 km/h
1328 05-01-2021 14:35:00 3.3 C 5.64 g/m*3 3.3 C 0 km/h
1329 05-01-2021 14:40:00 3.3 C 5.64 g/m*3 3.3 C 0 km/h
1330 05-01-2021 14:45:00 3.3 C 5.64 g/m*3 3.3 C 0 km/h
1331 05-01-2021 14:50:00 3.3 C 5.64 g/m*3 3.3 C 0 km/h
1332 05-01-2021 14:55:00 3.3 C 5.64 g/m*3 3.3 C 0 km/h
1333 05-01-2021 15:00:00 3.3 C 5.64 g/m*3 3.3 C 0 km/h
1334 05-01-2021 15:05:00 3.3 C 5.64 g/m*3 3.3 C 0 km/h
1335 05-01-2021 15:10:00 3.3 C 5.64 g/m*3 3.3 C 0 km/h
1336 05-01-2021 15:15:00 3.3 C 5.64 g/m*3 3.3 C 0 km/h
1337 05-01-2021 15:20:00 3.3 C 5.64 g/m*3 3.3 C 0 km/h
1338 05-01-2021 15:25:00 3.3 C 5.64 g/m*3 3.3 C 0 km/h
1339 05-01-2021 15:30:00 3.3 C 5.64 g/m*3 3.3 C 0 km/h
1340 05-01-2021 15:35:00 3.3 C 5.64 g/m*3 3.3 C 0 km/h
1341 05-01-2021 15:40:00 3.3 C 5.64 g/m*3 3.3 C 0 km/h
1342 05-01-2021 15:45:00 3.3 C 5.64 g/m*3 3.3 C 0 km/h
1343 05-01-2021 15:50:00 3.3 C 5.64 g/m*3 3.3 C 0 km/h
1344 05-01-2021 15:55:00 3.3 C 5.64 g/m*3 3.3 C 0 km/h
1345 05-01-2021 16:00:00 3.3 C 5.64 g/m*3 3.3 C 0 km/h
1346 05-01-2021 16:05:00 3.3 C 5.64 g/m*3 3.3 C 0 km/h
1347 05-01-2021 16:10:00 3.3 C 5.64 g/m*3 3.3 C 0 km/h
1348 05-01-2021 16:15:00 3.3 C 5.64 g/m*3 3.3 C 0 km/h
1349 05-01-2021 16:20:00 3.2 C 5.66 g/m*3 3.2 C 0 km/h
1350 05-01-2021 16:25:00 3.2 C 5.6 g/m*3 3.2 C 0 km/h
Sensor: Nr:Datum:Temp:Abs-Feuchte:Windchill:Wind:
Aussen-T/F 1351 05-01-2021 16:30:00 3.2 C 5.6 g/m*3 3.2 C 0 km/h
1352 05-01-2021 16:35:00 3.2 C 5.6 g/m*3 3.2 C 0 km/h
1353 05-01-2021 16:40:00 3.2 C 5.6 g/m*3 3.2 C 0 km/h
1354 05-01-2021 16:45:00 3.1 C 5.57 g/m*3 3.1 C 0 km/h
1355 05-01-2021 16:50:00 3.1 C 5.57 g/m*3 3.1 C 0 km/h
1356 05-01-2021 16:55:00 3.1 C 5.57 g/m*3 3.1 C 0 km/h
1357 05-01-2021 17:00:00 3.1 C 5.57 g/m*3 3.1 C 0 km/h
1358 05-01-2021 17:05:00 3.1 C 5.57 g/m*3 3.1 C 0 km/h
1359 05-01-2021 17:10:00 3.1 C 5.57 g/m*3 3.1 C 0 km/h
1360 05-01-2021 17:15:00 3.1 C 5.63 g/m*3 3.1 C 0 km/h
1361 05-01-2021 17:20:00 3.1 C 5.63 g/m*3 3.1 C 0 km/h
1362 05-01-2021 17:25:00 3.1 C 5.63 g/m*3 3.1 C 0 km/h
1363 05-01-2021 17:30:00 3 C 5.59 g/m*3 3 C 0 km/h
1364 05-01-2021 17:35:00 3 C 5.59 g/m*3 3 C 0 km/h
1365 05-01-2021 17:40:00 3 C 5.59 g/m*3 3 C 0 km/h
1366 05-01-2021 17:45:00 3 C 5.59 g/m*3 3 C 0 km/h
1367 05-01-2021 17:50:00 3 C 5.59 g/m*3 3 C 0 km/h
1368 05-01-2021 17:55:00 3 C 5.59 g/m*3 3 C 0 km/h
1369 05-01-2021 18:00:00 3 C 5.59 g/m*3 3 C 0 km/h
1370 05-01-2021 18:05:00 2.9 C 5.55 g/m*3 2.9 C 0 km/h
1371 05-01-2021 18:10:00 2.9 C 5.55 g/m*3 2.9 C 0 km/h
1372 05-01-2021 18:15:00 2.9 C 5.55 g/m*3 2.9 C 0 km/h
1373 05-01-2021 18:20:00 2.9 C 5.55 g/m*3 2.9 C 0 km/h
1374 05-01-2021 18:25:00 2.9 C 5.55 g/m*3 2.9 C 0 km/h
1375 05-01-2021 18:30:00 2.9 C 5.55 g/m*3 2.9 C 0 km/h
Sensor: Nr:Datum:Temp:Abs-Feuchte:Windchill:Wind:
Aussen-T/F 1376 05-01-2021 18:35:00 2.9 C 5.55 g/m*3 2.9 C 0 km/h
1377 05-01-2021 18:40:00 2.9 C 5.55 g/m*3 2.9 C 0 km/h
1378 05-01-2021 18:45:00 2.9 C 5.55 g/m*3 2.9 C 0 km/h
1379 05-01-2021 18:50:00 2.9 C 5.61 g/m*3 2.9 C 0 km/h
1380 05-01-2021 18:55:00 2.9 C 5.61 g/m*3 2.9 C 0 km/h
1381 05-01-2021 19:00:00 2.9 C 5.61 g/m*3 2.9 C 0 km/h
1382 05-01-2021 19:05:00 2.9 C 5.61 g/m*3 2.9 C 0 km/h
1383 05-01-2021 19:10:00 2.9 C 5.61 g/m*3 2.9 C 0 km/h
1384 05-01-2021 19:15:00 2.9 C 5.61 g/m*3 2.9 C 0 km/h
1385 05-01-2021 19:20:00 2.9 C 5.61 g/m*3 2.9 C 0 km/h
1386 05-01-2021 19:25:00 2.9 C 5.61 g/m*3 2.9 C 0 km/h
1387 05-01-2021 19:30:00 2.9 C 5.61 g/m*3 2.9 C 0 km/h
1388 05-01-2021 19:35:00 2.9 C 5.61 g/m*3 2.9 C 0 km/h
1389 05-01-2021 19:40:00 2.9 C 5.61 g/m*3 2.9 C 0 km/h
1390 05-01-2021 19:45:00 2.9 C 5.61 g/m*3 2.9 C 0 km/h
1391 05-01-2021 19:50:00 2.9 C 5.61 g/m*3 2.9 C 0 km/h
1392 05-01-2021 19:55:00 2.9 C 5.61 g/m*3 2.9 C 0 km/h
1393 05-01-2021 20:00:00 2.9 C 5.61 g/m*3 2.9 C 0 km/h
1394 05-01-2021 20:05:00 2.9 C 5.61 g/m*3 2.9 C 0 km/h
1395 05-01-2021 20:10:00 2.9 C 5.61 g/m*3 2.9 C 0 km/h
1396 05-01-2021 20:15:00 2.9 C 5.61 g/m*3 2.9 C 0 km/h
1397 05-01-2021 20:20:00 2.9 C 5.61 g/m*3 2.9 C 0 km/h
1398 05-01-2021 20:25:00 2.9 C 5.61 g/m*3 2.9 C 0 km/h
1399 05-01-2021 20:30:00 2.9 C 5.61 g/m*3 2.9 C 0 km/h
1400 05-01-2021 20:35:00 2.9 C 5.61 g/m*3 2.9 C 0 km/h
Sensor: Nr:Datum:Temp:Abs-Feuchte:Windchill:Wind:
Aussen-T/F 1401 05-01-2021 20:40:00 2.9 C 5.61 g/m*3 2.9 C 0 km/h
1402 05-01-2021 20:45:00 2.9 C 5.61 g/m*3 2.9 C 0 km/h
1403 05-01-2021 20:50:00 2.9 C 5.61 g/m*3 2.9 C 0 km/h
1404 05-01-2021 20:55:00 2.9 C 5.61 g/m*3 2.9 C 0 km/h
1405 05-01-2021 21:00:00 2.9 C 5.61 g/m*3 2.9 C 0 km/h
1406 05-01-2021 21:05:00 2.9 C 5.61 g/m*3 2.9 C 0 km/h
1407 05-01-2021 21:10:00 2.9 C 5.61 g/m*3 2.9 C 0 km/h
1408 05-01-2021 21:15:00 2.9 C 5.61 g/m*3 2.9 C 0 km/h
1409 05-01-2021 21:20:00 2.9 C 5.61 g/m*3 2.9 C 0 km/h
1410 05-01-2021 21:25:00 2.9 C 5.61 g/m*3 2.9 C 0 km/h
1411 05-01-2021 21:30:00 2.9 C 5.61 g/m*3 2.9 C 0 km/h
1412 05-01-2021 21:35:00 2.9 C 5.61 g/m*3 2.9 C 0 km/h
1413 05-01-2021 21:40:00 2.9 C 5.61 g/m*3 2.9 C 0 km/h
1414 05-01-2021 21:45:00 2.9 C 5.61 g/m*3 2.9 C 0 km/h
1415 05-01-2021 21:50:00 2.9 C 5.61 g/m*3 2.9 C 0 km/h
1416 05-01-2021 21:55:00 2.9 C 5.61 g/m*3 2.9 C 0 km/h
1417 05-01-2021 22:00:00 2.9 C 5.61 g/m*3 2.9 C 0 km/h
1418 05-01-2021 22:05:00 2.9 C 5.61 g/m*3 2.9 C 0 km/h
1419 05-01-2021 22:10:00 2.9 C 5.61 g/m*3 2.9 C 0 km/h
1420 05-01-2021 22:15:00 2.9 C 5.61 g/m*3 2.9 C 0 km/h
1421 05-01-2021 22:20:00 2.8 C 5.57 g/m*3 2.8 C 0 km/h
1422 05-01-2021 22:25:00 2.8 C 5.57 g/m*3 2.8 C 0 km/h
1423 05-01-2021 22:30:00 2.8 C 5.57 g/m*3 2.8 C 0 km/h
1424 05-01-2021 22:35:00 2.7 C 5.54 g/m*3 2.7 C 0 km/h
1425 05-01-2021 22:40:00 2.6 C 5.5 g/m*3 2.6 C 0 km/h
Sensor: Nr:Datum:Temp:Abs-Feuchte:Windchill:Wind:
Aussen-T/F 1426 05-01-2021 22:45:00 2.4 C 5.37 g/m*3 2.4 C 0 km/h
1427 05-01-2021 22:50:00 2.3 C 5.33 g/m*3 2.3 C 0 km/h
1428 05-01-2021 22:55:00 2.2 C 5.35 g/m*3 2.2 C 0 km/h
1429 05-01-2021 23:00:00 2.2 C 5.35 g/m*3 2.2 C 0 km/h
1430 05-01-2021 23:05:00 2.2 C 5.35 g/m*3 2.2 C 0 km/h
1431 05-01-2021 23:10:00 2.2 C 5.35 g/m*3 2.2 C 0 km/h
1432 05-01-2021 23:15:00 2.2 C 5.35 g/m*3 2.2 C 0 km/h
1433 05-01-2021 23:20:00 2.3 C 5.39 g/m*3 2.3 C 0 km/h
1434 05-01-2021 23:25:00 2.3 C 5.39 g/m*3 2.3 C 0 km/h
1435 05-01-2021 23:30:00 2.4 C 5.42 g/m*3 2.4 C 3.2 km/h
1436 05-01-2021 23:35:00 2.4 C 5.42 g/m*3 2.4 C 0 km/h
1437 05-01-2021 23:40:00 2.5 C 5.52 g/m*3 2.5 C 0 km/h
1438 05-01-2021 23:45:00 2.5 C 5.52 g/m*3 2.5 C 0 km/h
1439 05-01-2021 23:50:00 2.6 C 5.56 g/m*3 2.6 C 0 km/h
1440 05-01-2021 23:55:00 2.6 C 5.56 g/m*3 2.6 C 0 km/h
1441 06-01-2021 00:00:00 2.6 C 5.56 g/m*3 2.6 C 0 km/h
1442 06-01-2021 00:05:00 2.6 C 5.56 g/m*3 2.6 C 0 km/h
1443 06-01-2021 00:10:00 2.6 C 5.56 g/m*3 2.6 C 0 km/h
1444 06-01-2021 00:15:00 2.6 C 5.5 g/m*3 2.6 C 0 km/h
1445 06-01-2021 00:20:00 2.7 C 5.54 g/m*3 2.7 C 0 km/h
1446 06-01-2021 00:25:00 2.7 C 5.54 g/m*3 2.7 C 0 km/h
1447 06-01-2021 00:30:00 2.7 C 5.54 g/m*3 2.7 C 0 km/h
1448 06-01-2021 00:35:00 2.7 C 5.54 g/m*3 2.7 C 0 km/h
1449 06-01-2021 00:40:00 2.7 C 5.54 g/m*3 2.7 C 0 km/h
1450 06-01-2021 00:45:00 2.7 C 5.54 g/m*3 2.7 C 0 km/h
Sensor: Nr:Datum:Temp:Abs-Feuchte:Windchill:Wind:
Aussen-T/F 1451 06-01-2021 00:50:00 2.7 C 5.54 g/m*3 2.7 C 0 km/h
1452 06-01-2021 00:55:00 2.7 C 5.59 g/m*3 2.7 C 0 km/h
1453 06-01-2021 01:00:00 2.7 C 5.59 g/m*3 2.7 C 0 km/h
1454 06-01-2021 01:05:00 2.7 C 5.54 g/m*3 2.7 C 0 km/h
1455 06-01-2021 01:10:00 2.7 C 5.54 g/m*3 2.7 C 0 km/h
1456 06-01-2021 01:15:00 2.7 C 5.59 g/m*3 2.7 C 0 km/h
1457 06-01-2021 01:20:00 2.7 C 5.59 g/m*3 2.7 C 4.8 km/h
1458 06-01-2021 01:25:00 2.7 C 5.54 g/m*3 2.7 C 3.2 km/h
1459 06-01-2021 01:30:00 2.7 C 5.54 g/m*3 2.7 C 4.8 km/h
1460 06-01-2021 01:35:00 2.7 C 5.54 g/m*3 2.7 C 4.8 km/h
1461 06-01-2021 01:40:00 2.7 C 5.54 g/m*3 0.94 C 6.4 km/h
1462 06-01-2021 01:45:00 2.7 C 5.54 g/m*3 0.4 C 8.1 km/h
1463 06-01-2021 01:50:00 2.7 C 5.54 g/m*3 -0.71 C 12.9 km/h
1464 06-01-2021 01:55:00 2.6 C 5.5 g/m*3 0.29 C 8.1 km/h
1465 06-01-2021 02:00:00 2.5 C 5.46 g/m*3 0.71 C 6.4 km/h
1466 06-01-2021 02:05:00 2.5 C 5.46 g/m*3 2.5 C 4.8 km/h
1467 06-01-2021 02:10:00 2.4 C 5.42 g/m*3 2.4 C 4.8 km/h
1468 06-01-2021 02:15:00 2.4 C 5.42 g/m*3 2.4 C 4.8 km/h
1469 06-01-2021 02:20:00 2.4 C 5.42 g/m*3 2.4 C 4.8 km/h
1470 06-01-2021 02:25:00 2.3 C 5.39 g/m*3 0.47 C 6.4 km/h
1471 06-01-2021 02:30:00 2.3 C 5.39 g/m*3 2.3 C 1.6 km/h
1472 06-01-2021 02:35:00 2.3 C 5.39 g/m*3 2.3 C 0 km/h
1473 06-01-2021 02:40:00 2.3 C 5.39 g/m*3 2.3 C 0 km/h
1474 06-01-2021 02:45:00 2.3 C 5.39 g/m*3 2.3 C 0 km/h
1475 06-01-2021 02:50:00 2.3 C 5.39 g/m*3 2.3 C 0 km/h
Sensor: Nr:Datum:Temp:Abs-Feuchte:Windchill:Wind:
Aussen-T/F 1476 06-01-2021 02:55:00 2.2 C 5.35 g/m*3 2.2 C 0 km/h
1477 06-01-2021 03:00:00 2.2 C 5.41 g/m*3 2.2 C 0 km/h
1478 06-01-2021 03:05:00 2.2 C 5.41 g/m*3 2.2 C 0 km/h
1479 06-01-2021 03:10:00 2.2 C 5.41 g/m*3 2.2 C 0 km/h
1480 06-01-2021 03:15:00 2.2 C 5.41 g/m*3 2.2 C 1.6 km/h
1481 06-01-2021 03:20:00 2.2 C 5.35 g/m*3 2.2 C 0 km/h
1482 06-01-2021 03:25:00 2.2 C 5.41 g/m*3 2.2 C 0 km/h
1483 06-01-2021 03:30:00 2.2 C 5.41 g/m*3 2.2 C 0 km/h
1484 06-01-2021 03:35:00 2.2 C 5.41 g/m*3 2.2 C 0 km/h
1485 06-01-2021 03:40:00 2.2 C 5.41 g/m*3 2.2 C 0 km/h
1486 06-01-2021 03:45:00 2.1 C 5.31 g/m*3 2.1 C 0 km/h
1487 06-01-2021 03:50:00 2 C 5.28 g/m*3 2 C 0 km/h
1488 06-01-2021 03:55:00 1.9 C 5.24 g/m*3 1.9 C 0 km/h
1489 06-01-2021 04:00:00 1.8 C 5.21 g/m*3 1.8 C 0 km/h
1490 06-01-2021 04:05:00 1.7 C 5.17 g/m*3 1.7 C 0 km/h
1491 06-01-2021 04:10:00 1.7 C 5.17 g/m*3 1.7 C 0 km/h
1492 06-01-2021 04:15:00 1.6 C 5.14 g/m*3 1.6 C 0 km/h
1493 06-01-2021 04:20:00 1.6 C 5.19 g/m*3 1.6 C 0 km/h
1494 06-01-2021 04:25:00 1.6 C 5.19 g/m*3 1.6 C 0 km/h
1495 06-01-2021 04:30:00 1.6 C 5.19 g/m*3 1.6 C 0 km/h
1496 06-01-2021 04:35:00 1.7 C 5.23 g/m*3 1.7 C 0 km/h
1497 06-01-2021 04:40:00 1.7 C 5.23 g/m*3 1.7 C 0 km/h
1498 06-01-2021 04:45:00 1.7 C 5.23 g/m*3 1.7 C 0 km/h
1499 06-01-2021 04:50:00 1.7 C 5.23 g/m*3 1.7 C 0 km/h
1500 06-01-2021 04:55:00 1.8 C 5.26 g/m*3 1.8 C 0 km/h
Sensor: Nr:Datum:Temp:Abs-Feuchte:Windchill:Wind:
Aussen-T/F 1501 06-01-2021 05:00:00 1.8 C 5.26 g/m*3 1.8 C 1.6 km/h
1502 06-01-2021 05:05:00 1.8 C 5.26 g/m*3 1.8 C 0 km/h
1503 06-01-2021 05:10:00 1.9 C 5.3 g/m*3 1.9 C 0 km/h
1504 06-01-2021 05:15:00 1.9 C 5.3 g/m*3 1.9 C 0 km/h
1505 06-01-2021 05:20:00 1.9 C 5.3 g/m*3 1.9 C 1.6 km/h
1506 06-01-2021 05:25:00 1.9 C 5.3 g/m*3 1.9 C 0 km/h
1507 06-01-2021 05:30:00 2 C 5.33 g/m*3 2 C 0 km/h
1508 06-01-2021 05:35:00 2 C 5.33 g/m*3 2 C 0 km/h
1509 06-01-2021 05:40:00 2 C 5.33 g/m*3 2 C 0 km/h
1510 06-01-2021 05:45:00 2.1 C 5.37 g/m*3 2.1 C 0 km/h
1511 06-01-2021 05:50:00 2.1 C 5.37 g/m*3 2.1 C 0 km/h
1512 06-01-2021 05:55:00 2.1 C 5.37 g/m*3 2.1 C 0 km/h
1513 06-01-2021 06:00:00 2.1 C 5.37 g/m*3 2.1 C 0 km/h
1514 06-01-2021 06:05:00 2.1 C 5.37 g/m*3 2.1 C 0 km/h
1515 06-01-2021 06:10:00 2.1 C 5.37 g/m*3 2.1 C 0 km/h
1516 06-01-2021 06:15:00 2.1 C 5.37 g/m*3 2.1 C 0 km/h
1517 06-01-2021 06:20:00 2.1 C 5.37 g/m*3 2.1 C 0 km/h
1518 06-01-2021 06:25:00 2.1 C 5.37 g/m*3 2.1 C 0 km/h
1519 06-01-2021 06:30:00 2.1 C 5.37 g/m*3 2.1 C 0 km/h
1520 06-01-2021 06:35:00 2.2 C 5.41 g/m*3 2.2 C 0 km/h
1521 06-01-2021 06:40:00 2.2 C 5.41 g/m*3 2.2 C 0 km/h
1522 06-01-2021 06:45:00 2.2 C 5.41 g/m*3 2.2 C 0 km/h
1523 06-01-2021 06:50:00 2.2 C 5.41 g/m*3 2.2 C 0 km/h
1524 06-01-2021 06:55:00 2.2 C 5.46 g/m*3 2.2 C 0 km/h
1525 06-01-2021 07:00:00 2.2 C 5.41 g/m*3 2.2 C 0 km/h
Sensor: Nr:Datum:Temp:Abs-Feuchte:Windchill:Wind:
Aussen-T/F 1526 06-01-2021 07:05:00 2.2 C 5.41 g/m*3 2.2 C 0 km/h
1527 06-01-2021 07:10:00 2.2 C 5.46 g/m*3 2.2 C 0 km/h
1528 06-01-2021 07:15:00 2.2 C 5.46 g/m*3 2.2 C 1.6 km/h
1529 06-01-2021 07:20:00 2.2 C 5.46 g/m*3 2.2 C 0 km/h
1530 06-01-2021 07:25:00 2.2 C 5.46 g/m*3 2.2 C 0 km/h
1531 06-01-2021 07:30:00 2.2 C 5.41 g/m*3 2.2 C 0 km/h
1532 06-01-2021 07:35:00 2.2 C 5.46 g/m*3 2.2 C 4.8 km/h
1533 06-01-2021 07:40:00 2.2 C 5.41 g/m*3 2.2 C 1.6 km/h
1534 06-01-2021 07:45:00 2.2 C 5.41 g/m*3 2.2 C 1.6 km/h
1535 06-01-2021 07:50:00 2.2 C 5.46 g/m*3 2.2 C 4.8 km/h
1536 06-01-2021 07:55:00 2.2 C 5.41 g/m*3 2.2 C 0 km/h
1537 06-01-2021 08:00:00 2.2 C 5.41 g/m*3 2.2 C 0 km/h
1538 06-01-2021 08:05:00 2.2 C 5.46 g/m*3 2.2 C 0 km/h
1539 06-01-2021 08:10:00 2.2 C 5.46 g/m*3 2.2 C 0 km/h
1540 06-01-2021 08:15:00 2.2 C 5.46 g/m*3 2.2 C 0 km/h
1541 06-01-2021 08:20:00 2.2 C 5.46 g/m*3 2.2 C 0 km/h
1542 06-01-2021 08:25:00 2.2 C 5.41 g/m*3 2.2 C 0 km/h
1543 06-01-2021 08:30:00 2.1 C 5.37 g/m*3 2.1 C 0 km/h
1544 06-01-2021 08:35:00 2.1 C 5.37 g/m*3 2.1 C 0 km/h
1545 06-01-2021 08:40:00 2.1 C 5.37 g/m*3 2.1 C 0 km/h
1546 06-01-2021 08:45:00 2.1 C 5.37 g/m*3 2.1 C 0 km/h
1547 06-01-2021 08:50:00 2.1 C 5.37 g/m*3 2.1 C 0 km/h
1548 06-01-2021 08:55:00 2.1 C 5.37 g/m*3 2.1 C 0 km/h
1549 06-01-2021 09:00:00 2.1 C 5.37 g/m*3 2.1 C 0 km/h
1550 06-01-2021 09:05:00 2.2 C 5.46 g/m*3 2.2 C 0 km/h
Sensor: Nr:Datum:Temp:Abs-Feuchte:Windchill:Wind:
Aussen-T/F 1551 06-01-2021 09:10:00 2.2 C 5.46 g/m*3 2.2 C 0 km/h
1552 06-01-2021 09:15:00 2.2 C 5.46 g/m*3 2.2 C 0 km/h
1553 06-01-2021 09:20:00 2.2 C 5.46 g/m*3 2.2 C 0 km/h
1554 06-01-2021 09:25:00 2.2 C 5.46 g/m*3 2.2 C 0 km/h
1555 06-01-2021 09:30:00 2.2 C 5.46 g/m*3 2.2 C 0 km/h
1556 06-01-2021 09:35:00 2.3 C 5.5 g/m*3 2.3 C 0 km/h
1557 06-01-2021 09:40:00 2.3 C 5.5 g/m*3 2.3 C 0 km/h
1558 06-01-2021 09:45:00 2.3 C 5.5 g/m*3 2.3 C 0 km/h
1559 06-01-2021 09:50:00 2.3 C 5.5 g/m*3 2.3 C 0 km/h
1560 06-01-2021 09:55:00 2.4 C 5.54 g/m*3 2.4 C 0 km/h
1561 06-01-2021 10:00:00 2.4 C 5.54 g/m*3 2.4 C 0 km/h
1562 06-01-2021 10:05:00 2.5 C 5.58 g/m*3 2.5 C 0 km/h
1563 06-01-2021 10:10:00 2.5 C 5.58 g/m*3 2.5 C 0 km/h
1564 06-01-2021 10:15:00 2.6 C 5.61 g/m*3 2.6 C 0 km/h
1565 06-01-2021 10:20:00 2.6 C 5.61 g/m*3 2.6 C 0 km/h
1566 06-01-2021 10:25:00 2.7 C 5.65 g/m*3 2.7 C 0 km/h
1567 06-01-2021 10:30:00 2.7 C 5.65 g/m*3 2.7 C 0 km/h
1568 06-01-2021 10:35:00 2.7 C 5.65 g/m*3 2.7 C 0 km/h
1569 06-01-2021 10:40:00 2.8 C 5.69 g/m*3 2.8 C 0 km/h
1570 06-01-2021 10:45:00 2.8 C 5.69 g/m*3 2.8 C 1.6 km/h
1571 06-01-2021 10:50:00 2.8 C 5.69 g/m*3 2.8 C 0 km/h
1572 06-01-2021 10:55:00 2.8 C 5.69 g/m*3 2.8 C 0 km/h
1573 06-01-2021 11:00:00 2.9 C 5.73 g/m*3 2.9 C 0 km/h
1574 06-01-2021 11:05:00 2.9 C 5.73 g/m*3 2.9 C 0 km/h
1575 06-01-2021 11:10:00 3 C 5.77 g/m*3 3 C 1.6 km/h
Sensor: Nr:Datum:Temp:Abs-Feuchte:Windchill:Wind:
Aussen-T/F 1576 06-01-2021 11:15:00 3 C 5.77 g/m*3 3 C 1.6 km/h
1577 06-01-2021 11:20:00 3.1 C 5.81 g/m*3 3.1 C 0 km/h
1578 06-01-2021 11:25:00 3.2 C 5.85 g/m*3 3.2 C 0 km/h
1579 06-01-2021 11:30:00 3.2 C 5.85 g/m*3 3.2 C 0 km/h
1580 06-01-2021 11:35:00 3.3 C 5.88 g/m*3 3.3 C 0 km/h
1581 06-01-2021 11:40:00 3.4 C 5.92 g/m*3 3.4 C 0 km/h
1582 06-01-2021 11:45:00 3.4 C 5.92 g/m*3 3.4 C 0 km/h
1583 06-01-2021 11:50:00 3.4 C 5.92 g/m*3 3.4 C 1.6 km/h
1584 06-01-2021 11:55:00 3.3 C 5.82 g/m*3 3.3 C 0 km/h
1585 06-01-2021 12:00:00 3.4 C 5.92 g/m*3 3.4 C 1.6 km/h
1586 06-01-2021 12:05:00 3.4 C 5.86 g/m*3 3.4 C 0 km/h
1587 06-01-2021 12:10:00 3.4 C 5.86 g/m*3 3.4 C 0 km/h
1588 06-01-2021 12:15:00 3.4 C 5.86 g/m*3 3.4 C 3.2 km/h
1589 06-01-2021 12:20:00 3.4 C 5.86 g/m*3 3.4 C 3.2 km/h
1590 06-01-2021 12:25:00 3.5 C 5.9 g/m*3 3.5 C 0 km/h
1591 06-01-2021 12:30:00 3.5 C 5.9 g/m*3 3.5 C 0 km/h
1592 06-01-2021 12:35:00 3.6 C 5.94 g/m*3 3.6 C 0 km/h
1593 06-01-2021 12:40:00 3.6 C 5.94 g/m*3 3.6 C 0 km/h
1594 06-01-2021 12:45:00 3.7 C 5.92 g/m*3 3.7 C 3.2 km/h
1595 06-01-2021 12:50:00 3.7 C 5.92 g/m*3 3.7 C 4.8 km/h
1596 06-01-2021 12:55:00 3.7 C 5.92 g/m*3 2.09 C 6.4 km/h
1597 06-01-2021 13:00:00 3.7 C 5.92 g/m*3 2.09 C 6.4 km/h
1598 06-01-2021 13:05:00 3.7 C 5.86 g/m*3 1.18 C 9.7 km/h
1599 06-01-2021 13:10:00 3.7 C 5.86 g/m*3 2.09 C 6.4 km/h
1600 06-01-2021 13:15:00 3.7 C 5.86 g/m*3 3.7 C 4.8 km/h
Sensor: Nr:Datum:Temp:Abs-Feuchte:Windchill:Wind:
Aussen-T/F 1601 06-01-2021 13:20:00 3.8 C 5.9 g/m*3 3.8 C 4.8 km/h
1602 06-01-2021 13:25:00 3.8 C 5.9 g/m*3 2.21 C 6.4 km/h
1603 06-01-2021 13:30:00 3.8 C 5.83 g/m*3 2.21 C 6.4 km/h
1604 06-01-2021 13:35:00 3.8 C 5.83 g/m*3 3.8 C 4.8 km/h
1605 06-01-2021 13:40:00 3.8 C 5.83 g/m*3 2.21 C 6.4 km/h
1606 06-01-2021 13:45:00 3.8 C 5.83 g/m*3 1.7 C 8.1 km/h
1607 06-01-2021 13:50:00 3.8 C 5.83 g/m*3 3.8 C 3.2 km/h
1608 06-01-2021 13:55:00 3.8 C 5.77 g/m*3 2.21 C 6.4 km/h
1609 06-01-2021 14:00:00 3.8 C 5.77 g/m*3 1.29 C 9.7 km/h
1610 06-01-2021 14:05:00 3.8 C 5.77 g/m*3 1.7 C 8.1 km/h
1611 06-01-2021 14:10:00 3.8 C 5.71 g/m*3 2.21 C 6.4 km/h
1612 06-01-2021 14:15:00 3.8 C 5.71 g/m*3 2.21 C 6.4 km/h
1613 06-01-2021 14:20:00 3.8 C 5.71 g/m*3 1.7 C 8.1 km/h
1614 06-01-2021 14:25:00 3.8 C 5.71 g/m*3 3.8 C 4.8 km/h
1615 06-01-2021 14:30:00 3.8 C 5.71 g/m*3 3.8 C 4.8 km/h
1616 06-01-2021 14:35:00 3.8 C 5.71 g/m*3 1.7 C 8.1 km/h
1617 06-01-2021 14:40:00 3.8 C 5.71 g/m*3 3.8 C 4.8 km/h
1618 06-01-2021 14:45:00 3.8 C 5.71 g/m*3 3.8 C 3.2 km/h
1619 06-01-2021 14:50:00 3.8 C 5.71 g/m*3 3.8 C 3.2 km/h
1620 06-01-2021 14:55:00 3.8 C 5.71 g/m*3 3.8 C 3.2 km/h
1621 06-01-2021 15:00:00 3.8 C 5.71 g/m*3 3.8 C 1.6 km/h
1622 06-01-2021 15:05:00 3.9 C 5.75 g/m*3 3.9 C 4.8 km/h
1623 06-01-2021 15:10:00 3.9 C 5.75 g/m*3 3.9 C 3.2 km/h
1624 06-01-2021 15:15:00 3.9 C 5.75 g/m*3 3.9 C 4.8 km/h
1625 06-01-2021 15:20:00 3.9 C 5.75 g/m*3 3.9 C 0 km/h
Sensor: Nr:Datum:Temp:Abs-Feuchte:Windchill:Wind:
Aussen-T/F 1626 06-01-2021 15:25:00 3.9 C 5.75 g/m*3 3.9 C 0 km/h
1627 06-01-2021 15:30:00 3.9 C 5.75 g/m*3 3.9 C 0 km/h
1628 06-01-2021 15:35:00 3.9 C 5.75 g/m*3 3.9 C 4.8 km/h
1629 06-01-2021 15:40:00 3.9 C 5.75 g/m*3 3.9 C 3.2 km/h
1630 06-01-2021 15:45:00 3.9 C 5.75 g/m*3 3.9 C 3.2 km/h
1631 06-01-2021 15:50:00 3.8 C 5.71 g/m*3 3.8 C 4.8 km/h
1632 06-01-2021 15:55:00 3.8 C 5.71 g/m*3 3.8 C 4.8 km/h
1633 06-01-2021 16:00:00 3.8 C 5.71 g/m*3 2.21 C 6.4 km/h
1634 06-01-2021 16:05:00 3.8 C 5.71 g/m*3 3.8 C 3.2 km/h
1635 06-01-2021 16:10:00 3.7 C 5.67 g/m*3 3.7 C 4.8 km/h
1636 06-01-2021 16:15:00 3.7 C 5.67 g/m*3 3.7 C 4.8 km/h
1637 06-01-2021 16:20:00 3.7 C 5.67 g/m*3 3.7 C 3.2 km/h
1638 06-01-2021 16:25:00 3.7 C 5.67 g/m*3 3.7 C 4.8 km/h
1639 06-01-2021 16:30:00 3.6 C 5.63 g/m*3 1.98 C 6.4 km/h
1640 06-01-2021 16:35:00 3.6 C 5.69 g/m*3 3.6 C 3.2 km/h
1641 06-01-2021 16:40:00 3.6 C 5.69 g/m*3 3.6 C 1.6 km/h
1642 06-01-2021 16:45:00 3.6 C 5.63 g/m*3 1.98 C 6.4 km/h
1643 06-01-2021 16:50:00 3.6 C 5.63 g/m*3 1.98 C 6.4 km/h
1644 06-01-2021 16:55:00 3.5 C 5.66 g/m*3 3.5 C 4.8 km/h
1645 06-01-2021 17:00:00 3.5 C 5.66 g/m*3 3.5 C 3.2 km/h
1646 06-01-2021 17:05:00 3.4 C 5.62 g/m*3 3.4 C 3.2 km/h
1647 06-01-2021 17:10:00 3.4 C 5.62 g/m*3 1.75 C 6.4 km/h
1648 06-01-2021 17:15:00 3.4 C 5.62 g/m*3 3.4 C 3.2 km/h
1649 06-01-2021 17:20:00 3.4 C 5.62 g/m*3 1.23 C 8.1 km/h
1650 06-01-2021 17:25:00 3.3 C 5.58 g/m*3 3.3 C 3.2 km/h
Sensor: Nr:Datum:Temp:Abs-Feuchte:Windchill:Wind:
Aussen-T/F 1651 06-01-2021 17:30:00 3.3 C 5.58 g/m*3 3.3 C 0 km/h
1652 06-01-2021 17:35:00 3.3 C 5.58 g/m*3 3.3 C 3.2 km/h
1653 06-01-2021 17:40:00 3.3 C 5.58 g/m*3 3.3 C 3.2 km/h
1654 06-01-2021 17:45:00 3.2 C 5.54 g/m*3 3.2 C 3.2 km/h
1655 06-01-2021 17:50:00 3.2 C 5.54 g/m*3 1.51 C 6.4 km/h
1656 06-01-2021 17:55:00 3.2 C 5.54 g/m*3 3.2 C 4.8 km/h
1657 06-01-2021 18:00:00 3.2 C 5.54 g/m*3 3.2 C 4.8 km/h
1658 06-01-2021 18:05:00 3.1 C 5.51 g/m*3 3.1 C 4.8 km/h
1659 06-01-2021 18:10:00 3.1 C 5.51 g/m*3 3.1 C 4.8 km/h
1660 06-01-2021 18:15:00 3.1 C 5.51 g/m*3 3.1 C 4.8 km/h
1661 06-01-2021 18:20:00 3.1 C 5.51 g/m*3 1.4 C 6.4 km/h
1662 06-01-2021 18:25:00 3 C 5.47 g/m*3 1.28 C 6.4 km/h
1663 06-01-2021 18:30:00 2.9 C 5.43 g/m*3 1.17 C 6.4 km/h
1664 06-01-2021 18:35:00 2.9 C 5.43 g/m*3 2.9 C 4.8 km/h
1665 06-01-2021 18:40:00 2.9 C 5.43 g/m*3 2.9 C 3.2 km/h
1666 06-01-2021 18:45:00 2.9 C 5.43 g/m*3 2.9 C 0 km/h
1667 06-01-2021 18:50:00 2.9 C 5.49 g/m*3 2.9 C 0 km/h
1668 06-01-2021 18:55:00 2.8 C 5.4 g/m*3 2.8 C 4.8 km/h
1669 06-01-2021 19:00:00 2.8 C 5.46 g/m*3 2.8 C 3.2 km/h
1670 06-01-2021 19:05:00 2.8 C 5.46 g/m*3 2.8 C 3.2 km/h
1671 06-01-2021 19:10:00 2.8 C 5.46 g/m*3 2.8 C 1.6 km/h
1672 06-01-2021 19:15:00 2.8 C 5.46 g/m*3 2.8 C 4.8 km/h
1673 06-01-2021 19:20:00 2.8 C 5.46 g/m*3 2.8 C 3.2 km/h
1674 06-01-2021 19:25:00 2.8 C 5.46 g/m*3 1.05 C 6.4 km/h
1675 06-01-2021 19:30:00 2.8 C 5.46 g/m*3 2.8 C 4.8 km/h
Sensor: Nr:Datum:Temp:Abs-Feuchte:Windchill:Wind:
Aussen-T/F 1676 06-01-2021 19:35:00 2.8 C 5.46 g/m*3 2.8 C 3.2 km/h
1677 06-01-2021 19:40:00 2.8 C 5.46 g/m*3 2.8 C 4.8 km/h
1678 06-01-2021 19:45:00 2.8 C 5.46 g/m*3 2.8 C 4.8 km/h
1679 06-01-2021 19:50:00 2.8 C 5.4 g/m*3 1.05 C 6.4 km/h
1680 06-01-2021 19:55:00 2.8 C 5.4 g/m*3 1.05 C 6.4 km/h
1681 06-01-2021 20:00:00 2.8 C 5.4 g/m*3 1.05 C 6.4 km/h
1682 06-01-2021 20:05:00 2.8 C 5.4 g/m*3 2.8 C 3.2 km/h
1683 06-01-2021 20:10:00 2.8 C 5.4 g/m*3 2.8 C 4.8 km/h
1684 06-01-2021 20:15:00 2.8 C 5.4 g/m*3 2.8 C 3.2 km/h
1685 06-01-2021 20:20:00 2.8 C 5.4 g/m*3 2.8 C 3.2 km/h
1686 06-01-2021 20:25:00 2.8 C 5.4 g/m*3 2.8 C 3.2 km/h
1687 06-01-2021 20:30:00 2.7 C 5.36 g/m*3 2.7 C 3.2 km/h
1688 06-01-2021 20:35:00 2.7 C 5.36 g/m*3 2.7 C 3.2 km/h
1689 06-01-2021 20:40:00 2.7 C 5.36 g/m*3 0.4 C 8.1 km/h
1690 06-01-2021 20:45:00 2.7 C 5.36 g/m*3 -0.02 C 9.7 km/h
1691 06-01-2021 20:50:00 2.7 C 5.36 g/m*3 2.7 C 4.8 km/h
1692 06-01-2021 20:55:00 2.7 C 5.36 g/m*3 -0.02 C 9.7 km/h
1693 06-01-2021 21:00:00 2.6 C 5.32 g/m*3 -0.5 C 11.3 km/h
1694 06-01-2021 21:05:00 2.6 C 5.32 g/m*3 0.29 C 8.1 km/h
1695 06-01-2021 21:10:00 2.6 C 5.32 g/m*3 2.6 C 1.6 km/h
1696 06-01-2021 21:15:00 2.6 C 5.32 g/m*3 2.6 C 0 km/h
1697 06-01-2021 21:20:00 2.6 C 5.32 g/m*3 2.6 C 0 km/h
1698 06-01-2021 21:25:00 2.5 C 5.29 g/m*3 2.5 C 0 km/h
1699 06-01-2021 21:30:00 2.5 C 5.29 g/m*3 0.71 C 6.4 km/h
1700 06-01-2021 21:35:00 2.4 C 5.25 g/m*3 2.4 C 4.8 km/h
Sensor: Nr:Datum:Temp:Abs-Feuchte:Windchill:Wind:
Aussen-T/F 1701 06-01-2021 21:40:00 2.4 C 5.25 g/m*3 0.59 C 6.4 km/h
1702 06-01-2021 21:45:00 2.4 C 5.25 g/m*3 2.4 C 4.8 km/h
1703 06-01-2021 21:50:00 2.4 C 5.2 g/m*3 2.4 C 4.8 km/h
1704 06-01-2021 21:55:00 2.4 C 5.2 g/m*3 0.59 C 6.4 km/h
1705 06-01-2021 22:00:00 2.4 C 5.2 g/m*3 2.4 C 4.8 km/h
1706 06-01-2021 22:05:00 2.4 C 5.2 g/m*3 2.4 C 0 km/h
1707 06-01-2021 22:10:00 2.4 C 5.2 g/m*3 -0.37 C 9.7 km/h
1708 06-01-2021 22:15:00 2.4 C 5.2 g/m*3 2.4 C 0 km/h
1709 06-01-2021 22:20:00 2.4 C 5.2 g/m*3 2.4 C 3.2 km/h
1710 06-01-2021 22:25:00 2.4 C 5.2 g/m*3 2.4 C 4.8 km/h
1711 06-01-2021 22:30:00 2.3 C 5.16 g/m*3 -0.49 C 9.7 km/h
1712 06-01-2021 22:35:00 2.3 C 5.16 g/m*3 -0.07 C 8.1 km/h
1713 06-01-2021 22:40:00 2.3 C 5.1 g/m*3 -0.07 C 8.1 km/h
1714 06-01-2021 22:45:00 2.3 C 5.1 g/m*3 0.47 C 6.4 km/h
1715 06-01-2021 22:50:00 2.3 C 5.1 g/m*3 2.3 C 4.8 km/h
1716 06-01-2021 22:55:00 2.3 C 5.1 g/m*3 2.3 C 3.2 km/h
1717 06-01-2021 23:00:00 2.3 C 5.1 g/m*3 2.3 C 0 km/h
1718 06-01-2021 23:05:00 2.3 C 5.1 g/m*3 2.3 C 1.6 km/h
1719 06-01-2021 23:10:00 2.2 C 5.07 g/m*3 2.2 C 3.2 km/h
1720 06-01-2021 23:15:00 2.2 C 5.07 g/m*3 2.2 C 1.6 km/h
1721 06-01-2021 23:20:00 2.2 C 5.07 g/m*3 -0.61 C 9.7 km/h
1722 06-01-2021 23:25:00 2.2 C 5.07 g/m*3 2.2 C 3.2 km/h
1723 06-01-2021 23:30:00 2.2 C 5.07 g/m*3 2.2 C 1.6 km/h
1724 06-01-2021 23:35:00 2.2 C 5.07 g/m*3 0.36 C 6.4 km/h
1725 06-01-2021 23:40:00 2.2 C 5.07 g/m*3 2.2 C 3.2 km/h
Sensor: Nr:Datum:Temp:Abs-Feuchte:Windchill:Wind:
Aussen-T/F 1726 06-01-2021 23:45:00 2.1 C 5.04 g/m*3 2.1 C 4.8 km/h
1727 06-01-2021 23:50:00 2.1 C 5.04 g/m*3 2.1 C 3.2 km/h
1728 06-01-2021 23:55:00 2.1 C 5.04 g/m*3 2.1 C 3.2 km/h
1729 07-01-2021 00:00:00 2.1 C 5.04 g/m*3 -0.3 C 8.1 km/h
1730 07-01-2021 00:05:00 2.1 C 5.04 g/m*3 2.1 C 4.8 km/h
1731 07-01-2021 00:10:00 2.1 C 5.04 g/m*3 2.1 C 4.8 km/h
1732 07-01-2021 00:15:00 2.1 C 5.04 g/m*3 2.1 C 4.8 km/h
1733 07-01-2021 00:20:00 2.1 C 4.98 g/m*3 2.1 C 4.8 km/h
1734 07-01-2021 00:25:00 2.1 C 4.98 g/m*3 -1.44 C 12.9 km/h
1735 07-01-2021 00:30:00 2.1 C 4.98 g/m*3 -0.73 C 9.7 km/h
1736 07-01-2021 00:35:00 2.1 C 4.98 g/m*3 2.1 C 4.8 km/h
1737 07-01-2021 00:40:00 2.1 C 4.98 g/m*3 2.1 C 4.8 km/h
1738 07-01-2021 00:45:00 2.1 C 4.98 g/m*3 -1.44 C 12.9 km/h
1739 07-01-2021 00:50:00 2.1 C 4.98 g/m*3 0.24 C 6.4 km/h
1740 07-01-2021 00:55:00 2 C 4.95 g/m*3 -0.42 C 8.1 km/h
1741 07-01-2021 01:00:00 2 C 5 g/m*3 2 C 4.8 km/h
1742 07-01-2021 01:05:00 2 C 5 g/m*3 2 C 0 km/h
1743 07-01-2021 01:10:00 1.9 C 4.97 g/m*3 1.9 C 1.6 km/h
1744 07-01-2021 01:15:00 1.9 C 4.97 g/m*3 0.01 C 6.4 km/h
1745 07-01-2021 01:20:00 1.9 C 4.97 g/m*3 1.9 C 1.6 km/h
1746 07-01-2021 01:25:00 1.8 C 4.99 g/m*3 1.8 C 0 km/h
1747 07-01-2021 01:30:00 1.8 C 4.99 g/m*3 1.8 C 1.6 km/h
1748 07-01-2021 01:35:00 1.8 C 4.99 g/m*3 1.8 C 0 km/h
1749 07-01-2021 01:40:00 1.8 C 4.99 g/m*3 1.8 C 0 km/h
1750 07-01-2021 01:45:00 1.7 C 4.95 g/m*3 1.7 C 0 km/h
Sensor: Nr:Datum:Temp:Abs-Feuchte:Windchill:Wind:
Aussen-T/F 1751 07-01-2021 01:50:00 1.7 C 4.95 g/m*3 1.7 C 0 km/h
1752 07-01-2021 01:55:00 1.7 C 5.01 g/m*3 1.7 C 0 km/h
1753 07-01-2021 02:00:00 1.6 C 4.97 g/m*3 1.6 C 0 km/h
1754 07-01-2021 02:05:00 1.6 C 4.97 g/m*3 1.6 C 0 km/h
1755 07-01-2021 02:10:00 1.6 C 4.97 g/m*3 1.6 C 0 km/h
1756 07-01-2021 02:15:00 1.5 C 4.94 g/m*3 1.5 C 0 km/h
1757 07-01-2021 02:20:00 1.5 C 4.94 g/m*3 1.5 C 1.6 km/h
1758 07-01-2021 02:25:00 1.4 C 4.91 g/m*3 1.4 C 0 km/h
1759 07-01-2021 02:30:00 1.4 C 4.91 g/m*3 1.4 C 3.2 km/h
1760 07-01-2021 02:35:00 1.4 C 4.91 g/m*3 1.4 C 1.6 km/h
1761 07-01-2021 02:40:00 1.4 C 4.96 g/m*3 1.4 C 0 km/h
1762 07-01-2021 02:45:00 1.4 C 4.96 g/m*3 1.4 C 0 km/h
1763 07-01-2021 02:50:00 1.4 C 4.96 g/m*3 1.4 C 1.6 km/h
1764 07-01-2021 02:55:00 1.3 C 4.93 g/m*3 1.3 C 0 km/h
1765 07-01-2021 03:00:00 1.3 C 4.93 g/m*3 1.3 C 0 km/h
1766 07-01-2021 03:05:00 1.3 C 4.93 g/m*3 1.3 C 0 km/h
1767 07-01-2021 03:10:00 1.3 C 4.93 g/m*3 1.3 C 0 km/h
1768 07-01-2021 03:15:00 1.3 C 4.93 g/m*3 1.3 C 0 km/h
1769 07-01-2021 03:20:00 1.3 C 4.93 g/m*3 1.3 C 0 km/h
1770 07-01-2021 03:25:00 1.3 C 4.93 g/m*3 1.3 C 0 km/h
1771 07-01-2021 03:30:00 1.3 C 4.93 g/m*3 1.3 C 0 km/h
1772 07-01-2021 03:35:00 1.2 C 4.89 g/m*3 1.2 C 0 km/h
1773 07-01-2021 03:40:00 1.2 C 4.89 g/m*3 1.2 C 0 km/h
1774 07-01-2021 03:45:00 1.2 C 4.89 g/m*3 1.2 C 0 km/h
1775 07-01-2021 03:50:00 1.2 C 4.89 g/m*3 1.2 C 0 km/h
Sensor: Nr:Datum:Temp:Abs-Feuchte:Windchill:Wind:
Aussen-T/F 1776 07-01-2021 03:55:00 1.2 C 4.89 g/m*3 1.2 C 0 km/h
1777 07-01-2021 04:00:00 1.2 C 4.89 g/m*3 1.2 C 0 km/h
1778 07-01-2021 04:05:00 1.2 C 4.89 g/m*3 1.2 C 0 km/h
1779 07-01-2021 04:10:00 1.2 C 4.89 g/m*3 1.2 C 0 km/h
1780 07-01-2021 04:15:00 1.2 C 4.89 g/m*3 1.2 C 0 km/h
1781 07-01-2021 04:20:00 1.2 C 4.89 g/m*3 1.2 C 0 km/h
1782 07-01-2021 04:25:00 1.2 C 4.95 g/m*3 1.2 C 0 km/h
1783 07-01-2021 04:30:00 1.2 C 4.95 g/m*3 1.2 C 0 km/h
1784 07-01-2021 04:35:00 1.2 C 4.95 g/m*3 1.2 C 0 km/h
1785 07-01-2021 04:40:00 1.2 C 4.95 g/m*3 1.2 C 0 km/h
1786 07-01-2021 04:45:00 1.2 C 4.95 g/m*3 1.2 C 0 km/h
1787 07-01-2021 04:50:00 1.3 C 4.98 g/m*3 1.3 C 0 km/h
1788 07-01-2021 04:55:00 1.3 C 4.98 g/m*3 1.3 C 0 km/h
1789 07-01-2021 05:00:00 1.3 C 4.98 g/m*3 1.3 C 0 km/h
1790 07-01-2021 05:05:00 1.3 C 4.98 g/m*3 1.3 C 1.6 km/h
1791 07-01-2021 05:10:00 1.3 C 4.98 g/m*3 1.3 C 1.6 km/h
1792 07-01-2021 05:15:00 1.3 C 4.98 g/m*3 1.3 C 3.2 km/h
1793 07-01-2021 05:20:00 1.3 C 4.98 g/m*3 1.3 C 0 km/h
1794 07-01-2021 05:25:00 1.3 C 4.98 g/m*3 1.3 C 0 km/h
1795 07-01-2021 05:30:00 1.3 C 4.98 g/m*3 1.3 C 0 km/h
1796 07-01-2021 05:35:00 1.4 C 5.01 g/m*3 1.4 C 0 km/h
1797 07-01-2021 05:40:00 1.4 C 5.01 g/m*3 1.4 C 0 km/h
1798 07-01-2021 05:45:00 1.4 C 4.96 g/m*3 1.4 C 1.6 km/h
1799 07-01-2021 05:50:00 1.4 C 4.96 g/m*3 1.4 C 3.2 km/h
1800 07-01-2021 05:55:00 1.4 C 4.96 g/m*3 1.4 C 1.6 km/h
Sensor: Nr:Datum:Temp:Abs-Feuchte:Windchill:Wind:
Aussen-T/F 1801 07-01-2021 06:00:00 1.4 C 4.96 g/m*3 1.4 C 3.2 km/h
1802 07-01-2021 06:05:00 1.4 C 4.96 g/m*3 1.4 C 3.2 km/h
1803 07-01-2021 06:10:00 1.4 C 4.96 g/m*3 1.4 C 3.2 km/h
1804 07-01-2021 06:15:00 1.4 C 4.96 g/m*3 1.4 C 1.6 km/h
1805 07-01-2021 06:20:00 1.5 C 4.99 g/m*3 1.5 C 1.6 km/h
1806 07-01-2021 06:25:00 1.5 C 4.99 g/m*3 1.5 C 3.2 km/h
1807 07-01-2021 06:30:00 1.5 C 4.94 g/m*3 -0.45 C 6.4 km/h
1808 07-01-2021 06:35:00 1.5 C 4.94 g/m*3 1.5 C 1.6 km/h
1809 07-01-2021 06:40:00 1.6 C 4.97 g/m*3 1.6 C 3.2 km/h
1810 07-01-2021 06:45:00 1.6 C 4.97 g/m*3 1.6 C 1.6 km/h
1811 07-01-2021 06:50:00 1.6 C 4.97 g/m*3 1.6 C 3.2 km/h
1812 07-01-2021 06:55:00 1.6 C 4.97 g/m*3 1.6 C 4.8 km/h
1813 07-01-2021 07:00:00 1.6 C 4.97 g/m*3 1.6 C 4.8 km/h
1814 07-01-2021 07:05:00 1.7 C 5.01 g/m*3 1.7 C 4.8 km/h
1815 07-01-2021 07:10:00 1.7 C 5.01 g/m*3 1.7 C 4.8 km/h
1816 07-01-2021 07:15:00 1.7 C 4.95 g/m*3 -0.22 C 6.4 km/h
1817 07-01-2021 07:20:00 1.7 C 4.95 g/m*3 1.7 C 4.8 km/h
1818 07-01-2021 07:25:00 1.7 C 4.95 g/m*3 -1.21 C 9.7 km/h
1819 07-01-2021 07:30:00 1.7 C 4.95 g/m*3 1.7 C 3.2 km/h
1820 07-01-2021 07:35:00 1.8 C 4.99 g/m*3 1.8 C 4.8 km/h
1821 07-01-2021 07:40:00 1.8 C 4.99 g/m*3 -0.1 C 6.4 km/h
1822 07-01-2021 07:45:00 1.8 C 4.99 g/m*3 1.8 C 4.8 km/h
1823 07-01-2021 07:50:00 1.8 C 4.99 g/m*3 1.8 C 4.8 km/h
1824 07-01-2021 07:55:00 1.8 C 4.99 g/m*3 -0.1 C 6.4 km/h
1825 07-01-2021 08:00:00 1.7 C 4.95 g/m*3 -0.22 C 6.4 km/h
Sensor: Nr:Datum:Temp:Abs-Feuchte:Windchill:Wind:
Aussen-T/F 1826 07-01-2021 08:05:00 1.7 C 4.95 g/m*3 1.7 C 4.8 km/h
1827 07-01-2021 08:10:00 1.7 C 4.95 g/m*3 -1.21 C 9.7 km/h
1828 07-01-2021 08:15:00 1.7 C 4.95 g/m*3 -0.22 C 6.4 km/h
1829 07-01-2021 08:20:00 1.7 C 4.95 g/m*3 1.7 C 3.2 km/h
1830 07-01-2021 08:25:00 1.7 C 4.95 g/m*3 1.7 C 4.8 km/h
1831 07-01-2021 08:30:00 1.7 C 4.9 g/m*3 -1.21 C 9.7 km/h
1832 07-01-2021 08:35:00 1.7 C 4.9 g/m*3 1.7 C 4.8 km/h
1833 07-01-2021 08:40:00 1.8 C 4.93 g/m*3 1.8 C 4.8 km/h
1834 07-01-2021 08:45:00 1.8 C 4.93 g/m*3 -0.1 C 6.4 km/h
1835 07-01-2021 08:50:00 1.8 C 4.93 g/m*3 1.8 C 4.8 km/h
1836 07-01-2021 08:55:00 1.8 C 4.93 g/m*3 -1.09 C 9.7 km/h
1837 07-01-2021 09:00:00 1.8 C 4.93 g/m*3 -0.1 C 6.4 km/h
1838 07-01-2021 09:05:00 1.8 C 4.93 g/m*3 -1.09 C 9.7 km/h
1839 07-01-2021 09:10:00 1.9 C 4.91 g/m*3 0.01 C 6.4 km/h
1840 07-01-2021 09:15:00 1.9 C 4.91 g/m*3 0.01 C 6.4 km/h
1841 07-01-2021 09:20:00 1.9 C 4.91 g/m*3 -0.54 C 8.1 km/h
1842 07-01-2021 09:25:00 1.9 C 4.91 g/m*3 1.9 C 3.2 km/h
1843 07-01-2021 09:30:00 1.9 C 4.97 g/m*3 1.9 C 3.2 km/h
1844 07-01-2021 09:35:00 1.9 C 4.97 g/m*3 -0.54 C 8.1 km/h
1845 07-01-2021 09:40:00 1.9 C 4.97 g/m*3 1.9 C 4.8 km/h
1846 07-01-2021 09:45:00 1.9 C 4.97 g/m*3 1.9 C 3.2 km/h
1847 07-01-2021 09:50:00 2 C 5 g/m*3 2 C 3.2 km/h
1848 07-01-2021 09:55:00 2 C 5 g/m*3 2 C 4.8 km/h
1849 07-01-2021 10:00:00 2 C 5 g/m*3 2 C 1.6 km/h
1850 07-01-2021 10:05:00 2 C 5 g/m*3 2 C 1.6 km/h
Sensor: Nr:Datum:Temp:Abs-Feuchte:Windchill:Wind:
Aussen-T/F 1851 07-01-2021 10:10:00 2.1 C 5.04 g/m*3 0.24 C 6.4 km/h
1852 07-01-2021 10:15:00 2.1 C 5.04 g/m*3 2.1 C 3.2 km/h
1853 07-01-2021 10:20:00 2.1 C 5.04 g/m*3 2.1 C 1.6 km/h
1854 07-01-2021 10:25:00 2.1 C 5.04 g/m*3 2.1 C 1.6 km/h
1855 07-01-2021 10:30:00 2.2 C 5.01 g/m*3 2.2 C 4.8 km/h
1856 07-01-2021 10:35:00 2.2 C 5.01 g/m*3 2.2 C 4.8 km/h
1857 07-01-2021 10:40:00 2.3 C 5.05 g/m*3 0.47 C 6.4 km/h
1858 07-01-2021 10:45:00 2.3 C 5.05 g/m*3 2.3 C 4.8 km/h
1859 07-01-2021 10:50:00 2.4 C 5.08 g/m*3 0.05 C 8.1 km/h
1860 07-01-2021 10:55:00 2.4 C 5.08 g/m*3 2.4 C 3.2 km/h
1861 07-01-2021 11:00:00 2.5 C 5.12 g/m*3 0.71 C 6.4 km/h
1862 07-01-2021 11:05:00 2.5 C 5.12 g/m*3 2.5 C 4.8 km/h
1863 07-01-2021 11:10:00 2.6 C 5.09 g/m*3 0.82 C 6.4 km/h
1864 07-01-2021 11:15:00 2.6 C 5.15 g/m*3 2.6 C 4.8 km/h
1865 07-01-2021 11:20:00 2.7 C 5.13 g/m*3 2.7 C 4.8 km/h
1866 07-01-2021 11:25:00 2.7 C 5.13 g/m*3 0.94 C 6.4 km/h
1867 07-01-2021 11:30:00 2.8 C 5.16 g/m*3 2.8 C 4.8 km/h
1868 07-01-2021 11:35:00 2.8 C 5.1 g/m*3 -0.26 C 11.3 km/h
1869 07-01-2021 11:40:00 2.8 C 5.1 g/m*3 0.1 C 9.7 km/h
1870 07-01-2021 11:45:00 2.8 C 5.16 g/m*3 1.05 C 6.4 km/h
1871 07-01-2021 11:50:00 2.8 C 5.1 g/m*3 0.52 C 8.1 km/h
1872 07-01-2021 11:55:00 2.8 C 5.16 g/m*3 0.52 C 8.1 km/h
1873 07-01-2021 12:00:00 2.9 C 5.14 g/m*3 -0.14 C 11.3 km/h
1874 07-01-2021 12:05:00 2.8 C 5.1 g/m*3 -0.26 C 11.3 km/h
1875 07-01-2021 12:10:00 2.9 C 5.2 g/m*3 0.22 C 9.7 km/h
Sensor: Nr:Datum:Temp:Abs-Feuchte:Windchill:Wind:
Aussen-T/F 1876 07-01-2021 12:15:00 2.9 C 5.2 g/m*3 0.64 C 8.1 km/h
1877 07-01-2021 12:20:00 2.9 C 5.2 g/m*3 2.9 C 4.8 km/h
1878 07-01-2021 12:25:00 2.9 C 5.2 g/m*3 0.22 C 9.7 km/h
1879 07-01-2021 12:30:00 2.8 C 5.16 g/m*3 -0.59 C 12.9 km/h
1880 07-01-2021 12:35:00 2.7 C 5.13 g/m*3 -0.02 C 9.7 km/h
1881 07-01-2021 12:40:00 2.6 C 5.15 g/m*3 -0.5 C 11.3 km/h
1882 07-01-2021 12:45:00 2.4 C 5.14 g/m*3 0.05 C 8.1 km/h
1883 07-01-2021 12:50:00 2.4 C 5.2 g/m*3 0.59 C 6.4 km/h
1884 07-01-2021 12:55:00 2.4 C 5.2 g/m*3 -0.37 C 9.7 km/h
1885 07-01-2021 13:00:00 2.5 C 5.29 g/m*3 0.71 C 6.4 km/h
1886 07-01-2021 13:05:00 2.6 C 5.32 g/m*3 -0.5 C 11.3 km/h
1887 07-01-2021 13:10:00 2.5 C 5.29 g/m*3 0.17 C 8.1 km/h
1888 07-01-2021 13:15:00 2.5 C 5.29 g/m*3 0.71 C 6.4 km/h
1889 07-01-2021 13:20:00 2.6 C 5.38 g/m*3 0.29 C 8.1 km/h
1890 07-01-2021 13:25:00 2.6 C 5.32 g/m*3 -0.14 C 9.7 km/h
1891 07-01-2021 13:30:00 2.7 C 5.42 g/m*3 0.4 C 8.1 km/h
1892 07-01-2021 13:35:00 2.7 C 5.42 g/m*3 2.7 C 4.8 km/h
1893 07-01-2021 13:40:00 2.8 C 5.46 g/m*3 0.52 C 8.1 km/h
1894 07-01-2021 13:45:00 2.8 C 5.4 g/m*3 1.05 C 6.4 km/h
1895 07-01-2021 13:50:00 2.9 C 5.49 g/m*3 1.17 C 6.4 km/h
1896 07-01-2021 13:55:00 3 C 5.53 g/m*3 0.76 C 8.1 km/h
1897 07-01-2021 14:00:00 3 C 5.47 g/m*3 0.34 C 9.7 km/h
1898 07-01-2021 14:05:00 3 C 5.47 g/m*3 1.28 C 6.4 km/h
1899 07-01-2021 14:10:00 3 C 5.47 g/m*3 0.76 C 8.1 km/h
1900 07-01-2021 14:15:00 2.9 C 5.37 g/m*3 -0.14 C 11.3 km/h
Sensor: Nr:Datum:Temp:Abs-Feuchte:Windchill:Wind:
Aussen-T/F 1901 07-01-2021 14:20:00 2.9 C 5.43 g/m*3 2.9 C 4.8 km/h
1902 07-01-2021 14:25:00 2.8 C 5.4 g/m*3 0.1 C 9.7 km/h
1903 07-01-2021 14:30:00 2.8 C 5.4 g/m*3 1.05 C 6.4 km/h
1904 07-01-2021 14:35:00 2.8 C 5.4 g/m*3 0.52 C 8.1 km/h
1905 07-01-2021 14:40:00 2.8 C 5.4 g/m*3 1.05 C 6.4 km/h
1906 07-01-2021 14:45:00 2.7 C 5.36 g/m*3 0.94 C 6.4 km/h
1907 07-01-2021 14:50:00 2.7 C 5.42 g/m*3 2.7 C 4.8 km/h
1908 07-01-2021 14:55:00 2.7 C 5.42 g/m*3 2.7 C 4.8 km/h
1909 07-01-2021 15:00:00 2.6 C 5.38 g/m*3 2.6 C 3.2 km/h
1910 07-01-2021 15:05:00 2.6 C 5.38 g/m*3 0.82 C 6.4 km/h
1911 07-01-2021 15:10:00 2.5 C 5.35 g/m*3 -0.95 C 12.9 km/h
1912 07-01-2021 15:15:00 2.5 C 5.35 g/m*3 0.17 C 8.1 km/h
1913 07-01-2021 15:20:00 2.4 C 5.31 g/m*3 0.05 C 8.1 km/h
1914 07-01-2021 15:25:00 2.4 C 5.31 g/m*3 0.59 C 6.4 km/h
1915 07-01-2021 15:30:00 2.4 C 5.31 g/m*3 2.4 C 4.8 km/h
1916 07-01-2021 15:35:00 2.4 C 5.31 g/m*3 0.59 C 6.4 km/h
1917 07-01-2021 15:40:00 2.4 C 5.31 g/m*3 0.05 C 8.1 km/h
1918 07-01-2021 15:45:00 2.4 C 5.31 g/m*3 2.4 C 4.8 km/h
1919 07-01-2021 15:50:00 2.4 C 5.31 g/m*3 0.05 C 8.1 km/h
1920 07-01-2021 15:55:00 2.4 C 5.31 g/m*3 0.59 C 6.4 km/h
1921 07-01-2021 16:00:00 2.4 C 5.31 g/m*3 0.59 C 6.4 km/h
1922 07-01-2021 16:05:00 2.4 C 5.31 g/m*3 0.59 C 6.4 km/h
1923 07-01-2021 16:10:00 2.4 C 5.31 g/m*3 0.59 C 6.4 km/h
1924 07-01-2021 16:15:00 2.4 C 5.31 g/m*3 0.05 C 8.1 km/h
1925 07-01-2021 16:20:00 2.4 C 5.31 g/m*3 0.59 C 6.4 km/h
Sensor: Nr:Datum:Temp:Abs-Feuchte:Windchill:Wind:
Aussen-T/F 1926 07-01-2021 16:25:00 2.4 C 5.31 g/m*3 2.4 C 4.8 km/h
1927 07-01-2021 16:30:00 2.4 C 5.31 g/m*3 0.59 C 6.4 km/h
1928 07-01-2021 16:35:00 2.4 C 5.31 g/m*3 -0.37 C 9.7 km/h
1929 07-01-2021 16:40:00 2.4 C 5.31 g/m*3 -0.37 C 9.7 km/h
1930 07-01-2021 16:45:00 2.4 C 5.31 g/m*3 -1.37 C 14.5 km/h
1931 07-01-2021 16:50:00 2.4 C 5.31 g/m*3 0.05 C 8.1 km/h
1932 07-01-2021 16:55:00 2.4 C 5.31 g/m*3 0.05 C 8.1 km/h
1933 07-01-2021 17:00:00 2.4 C 5.31 g/m*3 0.05 C 8.1 km/h
1934 07-01-2021 17:05:00 2.4 C 5.31 g/m*3 -0.74 C 11.3 km/h
1935 07-01-2021 17:10:00 2.4 C 5.31 g/m*3 -0.37 C 9.7 km/h
1936 07-01-2021 17:15:00 2.4 C 5.31 g/m*3 2.4 C 3.2 km/h
1937 07-01-2021 17:20:00 2.4 C 5.31 g/m*3 2.4 C 3.2 km/h
1938 07-01-2021 17:25:00 2.3 C 5.27 g/m*3 2.3 C 3.2 km/h
1939 07-01-2021 17:30:00 2.3 C 5.33 g/m*3 0.47 C 6.4 km/h
1940 07-01-2021 17:35:00 2.3 C 5.33 g/m*3 0.47 C 6.4 km/h
1941 07-01-2021 17:40:00 2.3 C 5.33 g/m*3 -0.07 C 8.1 km/h
1942 07-01-2021 17:45:00 2.4 C 5.37 g/m*3 2.4 C 4.8 km/h
1943 07-01-2021 17:50:00 2.4 C 5.37 g/m*3 0.59 C 6.4 km/h
1944 07-01-2021 17:55:00 2.4 C 5.37 g/m*3 0.05 C 8.1 km/h
1945 07-01-2021 18:00:00 2.4 C 5.37 g/m*3 0.59 C 6.4 km/h
1946 07-01-2021 18:05:00 2.4 C 5.31 g/m*3 2.4 C 4.8 km/h
1947 07-01-2021 18:10:00 2.4 C 5.31 g/m*3 0.59 C 6.4 km/h
1948 07-01-2021 18:15:00 2.4 C 5.37 g/m*3 0.05 C 8.1 km/h
1949 07-01-2021 18:20:00 2.4 C 5.37 g/m*3 0.59 C 6.4 km/h
1950 07-01-2021 18:25:00 2.4 C 5.37 g/m*3 0.05 C 8.1 km/h
Sensor: Nr:Datum:Temp:Abs-Feuchte:Windchill:Wind:
Aussen-T/F 1951 07-01-2021 18:30:00 2.4 C 5.37 g/m*3 -0.37 C 9.7 km/h
1952 07-01-2021 18:35:00 2.4 C 5.37 g/m*3 -0.74 C 11.3 km/h
1953 07-01-2021 18:40:00 2.4 C 5.37 g/m*3 0.05 C 8.1 km/h
1954 07-01-2021 18:45:00 2.3 C 5.33 g/m*3 -0.87 C 11.3 km/h
1955 07-01-2021 18:50:00 2.3 C 5.33 g/m*3 0.47 C 6.4 km/h
1956 07-01-2021 18:55:00 2.3 C 5.33 g/m*3 -0.49 C 9.7 km/h
1957 07-01-2021 19:00:00 2.2 C 5.29 g/m*3 0.36 C 6.4 km/h
1958 07-01-2021 19:05:00 2.2 C 5.29 g/m*3 0.36 C 6.4 km/h
1959 07-01-2021 19:10:00 2.2 C 5.29 g/m*3 0.36 C 6.4 km/h
1960 07-01-2021 19:15:00 2.2 C 5.29 g/m*3 -0.18 C 8.1 km/h
1961 07-01-2021 19:20:00 2.2 C 5.35 g/m*3 -0.18 C 8.1 km/h
1962 07-01-2021 19:25:00 2.2 C 5.35 g/m*3 0.36 C 6.4 km/h
1963 07-01-2021 19:30:00 2.2 C 5.35 g/m*3 0.36 C 6.4 km/h
1964 07-01-2021 19:35:00 2.2 C 5.35 g/m*3 0.36 C 6.4 km/h
1965 07-01-2021 19:40:00 2.2 C 5.35 g/m*3 0.36 C 6.4 km/h
1966 07-01-2021 19:45:00 2.2 C 5.35 g/m*3 -0.61 C 9.7 km/h
1967 07-01-2021 19:50:00 2.2 C 5.35 g/m*3 2.2 C 4.8 km/h
1968 07-01-2021 19:55:00 2.2 C 5.35 g/m*3 -0.99 C 11.3 km/h
1969 07-01-2021 20:00:00 2.2 C 5.35 g/m*3 2.2 C 4.8 km/h
1970 07-01-2021 20:05:00 2.1 C 5.31 g/m*3 2.1 C 4.8 km/h
1971 07-01-2021 20:10:00 2.1 C 5.31 g/m*3 -0.3 C 8.1 km/h
1972 07-01-2021 20:15:00 2.1 C 5.31 g/m*3 -1.11 C 11.3 km/h
1973 07-01-2021 20:20:00 2.1 C 5.31 g/m*3 2.1 C 3.2 km/h
1974 07-01-2021 20:25:00 2.1 C 5.31 g/m*3 2.1 C 3.2 km/h
1975 07-01-2021 20:30:00 2.1 C 5.31 g/m*3 0.24 C 6.4 km/h
Sensor: Nr:Datum:Temp:Abs-Feuchte:Windchill:Wind:
Aussen-T/F 1976 07-01-2021 20:35:00 2.1 C 5.31 g/m*3 -0.73 C 9.7 km/h
1977 07-01-2021 20:40:00 2.1 C 5.31 g/m*3 0.24 C 6.4 km/h
1978 07-01-2021 20:45:00 2.1 C 5.31 g/m*3 2.1 C 4.8 km/h
1979 07-01-2021 20:50:00 2.1 C 5.31 g/m*3 0.24 C 6.4 km/h
1980 07-01-2021 20:55:00 2 C 5.22 g/m*3 -0.85 C 9.7 km/h
1981 07-01-2021 21:00:00 2 C 5.22 g/m*3 -1.23 C 11.3 km/h
1982 07-01-2021 21:05:00 2 C 5.22 g/m*3 -0.42 C 8.1 km/h
1983 07-01-2021 21:10:00 2 C 5.22 g/m*3 0.13 C 6.4 km/h
1984 07-01-2021 21:15:00 1.9 C 5.19 g/m*3 1.9 C 4.8 km/h
1985 07-01-2021 21:20:00 1.9 C 5.24 g/m*3 0.01 C 6.4 km/h
1986 07-01-2021 21:25:00 1.9 C 5.24 g/m*3 -0.97 C 9.7 km/h
1987 07-01-2021 21:30:00 1.9 C 5.19 g/m*3 -0.54 C 8.1 km/h
1988 07-01-2021 21:35:00 1.9 C 5.19 g/m*3 0.01 C 6.4 km/h
1989 07-01-2021 21:40:00 1.8 C 5.15 g/m*3 -1.09 C 9.7 km/h
1990 07-01-2021 21:45:00 1.8 C 5.15 g/m*3 -1.47 C 11.3 km/h
1991 07-01-2021 21:50:00 1.8 C 5.15 g/m*3 -0.65 C 8.1 km/h
1992 07-01-2021 21:55:00 1.8 C 5.15 g/m*3 -0.65 C 8.1 km/h
1993 07-01-2021 22:00:00 1.8 C 5.15 g/m*3 -1.09 C 9.7 km/h
1994 07-01-2021 22:05:00 1.9 C 5.19 g/m*3 -0.97 C 9.7 km/h
1995 07-01-2021 22:10:00 1.9 C 5.19 g/m*3 -1.68 C 12.9 km/h
1996 07-01-2021 22:15:00 1.9 C 5.19 g/m*3 -1.35 C 11.3 km/h
1997 07-01-2021 22:20:00 1.9 C 5.19 g/m*3 -0.97 C 9.7 km/h
1998 07-01-2021 22:25:00 1.9 C 5.13 g/m*3 -1.35 C 11.3 km/h
1999 07-01-2021 22:30:00 1.9 C 5.13 g/m*3 1.9 C 4.8 km/h
2000 07-01-2021 22:35:00 1.9 C 5.13 g/m*3 -1.35 C 11.3 km/h
Sensor: Nr:Datum:Temp:Abs-Feuchte:Windchill:Wind:
Aussen-T/F 2001 07-01-2021 22:40:00 2 C 5.17 g/m*3 0.13 C 6.4 km/h
2002 07-01-2021 22:45:00 1.9 C 5.13 g/m*3 -0.54 C 8.1 km/h
2003 07-01-2021 22:50:00 1.9 C 5.13 g/m*3 0.01 C 6.4 km/h
2004 07-01-2021 22:55:00 1.9 C 5.13 g/m*3 1.9 C 3.2 km/h
2005 07-01-2021 23:00:00 1.9 C 5.13 g/m*3 -1.35 C 11.3 km/h
2006 07-01-2021 23:05:00 1.9 C 5.13 g/m*3 -0.54 C 8.1 km/h
2007 07-01-2021 23:10:00 2 C 5.17 g/m*3 -0.85 C 9.7 km/h
2008 07-01-2021 23:15:00 2 C 5.17 g/m*3 -1.56 C 12.9 km/h
2009 07-01-2021 23:20:00 2 C 5.17 g/m*3 -1.23 C 11.3 km/h
2010 07-01-2021 23:25:00 2.1 C 5.2 g/m*3 -0.3 C 8.1 km/h
2011 07-01-2021 23:30:00 2 C 5.17 g/m*3 2 C 4.8 km/h
2012 07-01-2021 23:35:00 1.9 C 5.13 g/m*3 0.01 C 6.4 km/h
2013 07-01-2021 23:40:00 1.9 C 5.13 g/m*3 -1.68 C 12.9 km/h
2014 07-01-2021 23:45:00 1.9 C 5.13 g/m*3 -0.54 C 8.1 km/h
2015 07-01-2021 23:50:00 1.8 C 5.1 g/m*3 -0.65 C 8.1 km/h
2016 07-01-2021 23:55:00 1.8 C 5.1 g/m*3 -0.1 C 6.4 km/h
2017 08-01-2021 00:00:00 1.8 C 5.1 g/m*3 -0.65 C 8.1 km/h
2018 08-01-2021 00:05:00 1.8 C 5.15 g/m*3 -0.1 C 6.4 km/h
2019 08-01-2021 00:10:00 1.8 C 5.15 g/m*3 -1.09 C 9.7 km/h
2020 08-01-2021 00:15:00 1.8 C 5.15 g/m*3 -1.8 C 12.9 km/h
2021 08-01-2021 00:20:00 1.8 C 5.15 g/m*3 -2.38 C 16.1 km/h
2022 08-01-2021 00:25:00 1.7 C 5.12 g/m*3 -1.59 C 11.3 km/h
2023 08-01-2021 00:30:00 1.7 C 5.12 g/m*3 -0.77 C 8.1 km/h
2024 08-01-2021 00:35:00 1.7 C 5.12 g/m*3 -1.21 C 9.7 km/h
2025 08-01-2021 00:40:00 1.7 C 5.12 g/m*3 -1.93 C 12.9 km/h
Sensor: Nr:Datum:Temp:Abs-Feuchte:Windchill:Wind:
Aussen-T/F 2026 08-01-2021 00:45:00 1.7 C 5.12 g/m*3 -0.22 C 6.4 km/h
2027 08-01-2021 00:50:00 1.7 C 5.12 g/m*3 -0.77 C 8.1 km/h
2028 08-01-2021 00:55:00 1.6 C 5.08 g/m*3 -1.71 C 11.3 km/h
2029 08-01-2021 01:00:00 1.7 C 5.12 g/m*3 -1.93 C 12.9 km/h
2030 08-01-2021 01:05:00 1.7 C 5.12 g/m*3 1.7 C 3.2 km/h
2031 08-01-2021 01:10:00 1.6 C 5.08 g/m*3 1.6 C 1.6 km/h
2032 08-01-2021 01:15:00 1.6 C 5.08 g/m*3 1.6 C 3.2 km/h
2033 08-01-2021 01:20:00 1.6 C 5.08 g/m*3 -1.33 C 9.7 km/h
2034 08-01-2021 01:25:00 1.6 C 5.14 g/m*3 1.6 C 3.2 km/h
2035 08-01-2021 01:30:00 1.6 C 5.14 g/m*3 1.6 C 4.8 km/h
2036 08-01-2021 01:35:00 1.6 C 5.14 g/m*3 -1.71 C 11.3 km/h
2037 08-01-2021 01:40:00 1.6 C 5.14 g/m*3 -1.71 C 11.3 km/h
2038 08-01-2021 01:45:00 1.6 C 5.14 g/m*3 -1.33 C 9.7 km/h
2039 08-01-2021 01:50:00 1.7 C 5.17 g/m*3 -1.59 C 11.3 km/h
2040 08-01-2021 01:55:00 1.7 C 5.17 g/m*3 -1.21 C 9.7 km/h
2041 08-01-2021 02:00:00 1.7 C 5.17 g/m*3 -1.21 C 9.7 km/h
2042 08-01-2021 02:05:00 1.7 C 5.12 g/m*3 -0.77 C 8.1 km/h
2043 08-01-2021 02:10:00 1.7 C 5.12 g/m*3 1.7 C 4.8 km/h
2044 08-01-2021 02:15:00 1.7 C 5.12 g/m*3 -0.77 C 8.1 km/h
2045 08-01-2021 02:20:00 1.8 C 5.15 g/m*3 -0.1 C 6.4 km/h
2046 08-01-2021 02:25:00 1.8 C 5.15 g/m*3 -0.1 C 6.4 km/h
2047 08-01-2021 02:30:00 1.8 C 5.15 g/m*3 1.8 C 4.8 km/h
2048 08-01-2021 02:35:00 1.8 C 5.15 g/m*3 1.8 C 3.2 km/h
2049 08-01-2021 02:40:00 1.8 C 5.15 g/m*3 -1.09 C 9.7 km/h
2050 08-01-2021 02:45:00 1.8 C 5.15 g/m*3 -0.65 C 8.1 km/h
Sensor: Nr:Datum:Temp:Abs-Feuchte:Windchill:Wind:
Aussen-T/F 2051 08-01-2021 02:50:00 1.8 C 5.15 g/m*3 -0.65 C 8.1 km/h
2052 08-01-2021 02:55:00 1.8 C 5.15 g/m*3 -0.65 C 8.1 km/h
2053 08-01-2021 03:00:00 1.8 C 5.15 g/m*3 -1.09 C 9.7 km/h
2054 08-01-2021 03:05:00 1.8 C 5.15 g/m*3 -0.65 C 8.1 km/h
2055 08-01-2021 03:10:00 1.8 C 5.15 g/m*3 -1.8 C 12.9 km/h
2056 08-01-2021 03:15:00 1.8 C 5.15 g/m*3 -1.47 C 11.3 km/h
2057 08-01-2021 03:20:00 1.8 C 5.15 g/m*3 -1.09 C 9.7 km/h
2058 08-01-2021 03:25:00 1.8 C 5.15 g/m*3 -1.8 C 12.9 km/h
2059 08-01-2021 03:30:00 1.8 C 5.15 g/m*3 -0.65 C 8.1 km/h
2060 08-01-2021 03:35:00 1.8 C 5.15 g/m*3 -0.65 C 8.1 km/h
2061 08-01-2021 03:40:00 1.8 C 5.15 g/m*3 1.8 C 4.8 km/h
2062 08-01-2021 03:45:00 1.8 C 5.15 g/m*3 -0.65 C 8.1 km/h
2063 08-01-2021 03:50:00 1.8 C 5.15 g/m*3 -1.09 C 9.7 km/h
2064 08-01-2021 03:55:00 1.8 C 5.15 g/m*3 -1.09 C 9.7 km/h
2065 08-01-2021 04:00:00 1.8 C 5.15 g/m*3 1.8 C 4.8 km/h
2066 08-01-2021 04:05:00 1.8 C 5.15 g/m*3 -1.47 C 11.3 km/h
2067 08-01-2021 04:10:00 1.8 C 5.15 g/m*3 -0.65 C 8.1 km/h
2068 08-01-2021 04:15:00 1.8 C 5.15 g/m*3 -0.1 C 6.4 km/h
2069 08-01-2021 04:20:00 1.9 C 5.19 g/m*3 -1.35 C 11.3 km/h
2070 08-01-2021 04:25:00 1.9 C 5.19 g/m*3 -1.35 C 11.3 km/h
2071 08-01-2021 04:30:00 1.9 C 5.19 g/m*3 -0.97 C 9.7 km/h
2072 08-01-2021 04:35:00 1.9 C 5.19 g/m*3 -0.54 C 8.1 km/h
2073 08-01-2021 04:40:00 1.9 C 5.19 g/m*3 -0.54 C 8.1 km/h
2074 08-01-2021 04:45:00 1.8 C 5.15 g/m*3 -1.09 C 9.7 km/h
2075 08-01-2021 04:50:00 1.8 C 5.15 g/m*3 -0.65 C 8.1 km/h
Sensor: Nr:Datum:Temp:Abs-Feuchte:Windchill:Wind:
Aussen-T/F 2076 08-01-2021 04:55:00 1.8 C 5.15 g/m*3 -2.11 C 14.5 km/h
2077 08-01-2021 05:00:00 1.8 C 5.15 g/m*3 -0.65 C 8.1 km/h
2078 08-01-2021 05:05:00 1.8 C 5.15 g/m*3 -1.47 C 11.3 km/h
2079 08-01-2021 05:10:00 1.8 C 5.15 g/m*3 -0.65 C 8.1 km/h
2080 08-01-2021 05:15:00 1.8 C 5.21 g/m*3 -1.09 C 9.7 km/h
2081 08-01-2021 05:20:00 1.8 C 5.21 g/m*3 -0.65 C 8.1 km/h
2082 08-01-2021 05:25:00 1.8 C 5.21 g/m*3 -0.1 C 6.4 km/h
2083 08-01-2021 05:30:00 1.9 C 5.24 g/m*3 -0.54 C 8.1 km/h
2084 08-01-2021 05:35:00 1.9 C 5.24 g/m*3 -0.54 C 8.1 km/h
2085 08-01-2021 05:40:00 1.9 C 5.24 g/m*3 -0.97 C 9.7 km/h
2086 08-01-2021 05:45:00 1.9 C 5.24 g/m*3 -0.54 C 8.1 km/h
2087 08-01-2021 05:50:00 1.9 C 5.24 g/m*3 -0.97 C 9.7 km/h
2088 08-01-2021 05:55:00 1.8 C 5.21 g/m*3 -1.09 C 9.7 km/h
2089 08-01-2021 06:00:00 1.8 C 5.21 g/m*3 -1.09 C 9.7 km/h
2090 08-01-2021 06:05:00 1.8 C 5.21 g/m*3 -0.1 C 6.4 km/h
2091 08-01-2021 06:10:00 1.8 C 5.21 g/m*3 -0.1 C 6.4 km/h
2092 08-01-2021 06:15:00 1.8 C 5.21 g/m*3 -0.1 C 6.4 km/h
2093 08-01-2021 06:20:00 1.8 C 5.21 g/m*3 -0.65 C 8.1 km/h
2094 08-01-2021 06:25:00 1.8 C 5.21 g/m*3 -0.1 C 6.4 km/h
2095 08-01-2021 06:30:00 1.8 C 5.21 g/m*3 -1.09 C 9.7 km/h
2096 08-01-2021 06:35:00 1.8 C 5.21 g/m*3 -0.1 C 6.4 km/h
2097 08-01-2021 06:40:00 1.7 C 5.17 g/m*3 -0.22 C 6.4 km/h
2098 08-01-2021 06:45:00 1.8 C 5.21 g/m*3 -0.1 C 6.4 km/h
2099 08-01-2021 06:50:00 1.8 C 5.21 g/m*3 1.8 C 4.8 km/h
2100 08-01-2021 06:55:00 1.8 C 5.21 g/m*3 1.8 C 3.2 km/h
Sensor: Nr:Datum:Temp:Abs-Feuchte:Windchill:Wind:
Aussen-T/F 2101 08-01-2021 07:00:00 1.8 C 5.21 g/m*3 1.8 C 1.6 km/h
2102 08-01-2021 07:05:00 1.8 C 5.21 g/m*3 1.8 C 4.8 km/h
2103 08-01-2021 07:10:00 1.7 C 5.17 g/m*3 1.7 C 4.8 km/h
2104 08-01-2021 07:15:00 1.7 C 5.17 g/m*3 -0.77 C 8.1 km/h
2105 08-01-2021 07:20:00 1.7 C 5.17 g/m*3 1.7 C 3.2 km/h
2106 08-01-2021 07:25:00 1.7 C 5.17 g/m*3 1.7 C 4.8 km/h
2107 08-01-2021 07:30:00 1.7 C 5.17 g/m*3 1.7 C 4.8 km/h
2108 08-01-2021 07:35:00 1.7 C 5.17 g/m*3 -0.22 C 6.4 km/h
2109 08-01-2021 07:40:00 1.7 C 5.17 g/m*3 1.7 C 4.8 km/h
2110 08-01-2021 07:45:00 1.7 C 5.17 g/m*3 1.7 C 4.8 km/h
2111 08-01-2021 07:50:00 1.7 C 5.23 g/m*3 1.7 C 3.2 km/h
2112 08-01-2021 07:55:00 1.7 C 5.23 g/m*3 1.7 C 3.2 km/h
2113 08-01-2021 08:00:00 1.6 C 5.19 g/m*3 1.6 C 4.8 km/h
2114 08-01-2021 08:05:00 1.6 C 5.19 g/m*3 -0.89 C 8.1 km/h
2115 08-01-2021 08:10:00 1.6 C 5.19 g/m*3 -0.33 C 6.4 km/h
2116 08-01-2021 08:15:00 1.6 C 5.19 g/m*3 1.6 C 4.8 km/h
2117 08-01-2021 08:20:00 1.6 C 5.19 g/m*3 1.6 C 4.8 km/h
2118 08-01-2021 08:25:00 1.6 C 5.19 g/m*3 1.6 C 4.8 km/h
2119 08-01-2021 08:30:00 1.6 C 5.19 g/m*3 1.6 C 4.8 km/h
2120 08-01-2021 08:35:00 1.6 C 5.19 g/m*3 1.6 C 3.2 km/h
2121 08-01-2021 08:40:00 1.6 C 5.19 g/m*3 1.6 C 3.2 km/h
2122 08-01-2021 08:45:00 1.6 C 5.19 g/m*3 -0.33 C 6.4 km/h
2123 08-01-2021 08:50:00 1.6 C 5.19 g/m*3 1.6 C 3.2 km/h
2124 08-01-2021 08:55:00 1.6 C 5.19 g/m*3 1.6 C 4.8 km/h
2125 08-01-2021 09:00:00 1.6 C 5.19 g/m*3 1.6 C 4.8 km/h
Sensor: Nr:Datum:Temp:Abs-Feuchte:Windchill:Wind:
Aussen-T/F 2126 08-01-2021 09:05:00 1.6 C 5.19 g/m*3 -0.33 C 6.4 km/h
2127 08-01-2021 09:10:00 1.6 C 5.19 g/m*3 1.6 C 4.8 km/h
2128 08-01-2021 09:15:00 1.6 C 5.19 g/m*3 1.6 C 3.2 km/h
2129 08-01-2021 09:20:00 1.6 C 5.19 g/m*3 -0.33 C 6.4 km/h
2130 08-01-2021 09:25:00 1.6 C 5.19 g/m*3 -0.33 C 6.4 km/h
2131 08-01-2021 09:30:00 1.6 C 5.19 g/m*3 1.6 C 4.8 km/h
2132 08-01-2021 09:35:00 1.6 C 5.19 g/m*3 1.6 C 3.2 km/h
2133 08-01-2021 09:40:00 1.7 C 5.23 g/m*3 1.7 C 3.2 km/h
2134 08-01-2021 09:45:00 1.7 C 5.23 g/m*3 1.7 C 3.2 km/h
2135 08-01-2021 09:50:00 1.7 C 5.23 g/m*3 1.7 C 3.2 km/h
2136 08-01-2021 09:55:00 1.7 C 5.23 g/m*3 1.7 C 1.6 km/h
2137 08-01-2021 10:00:00 1.8 C 5.26 g/m*3 1.8 C 1.6 km/h
2138 08-01-2021 10:05:00 1.8 C 5.26 g/m*3 1.8 C 0 km/h
2139 08-01-2021 10:10:00 1.8 C 5.26 g/m*3 1.8 C 3.2 km/h
2140 08-01-2021 10:15:00 1.8 C 5.26 g/m*3 1.8 C 3.2 km/h
2141 08-01-2021 10:20:00 1.8 C 5.26 g/m*3 1.8 C 0 km/h
2142 08-01-2021 10:25:00 1.8 C 5.26 g/m*3 1.8 C 0 km/h
2143 08-01-2021 10:30:00 1.9 C 5.3 g/m*3 1.9 C 3.2 km/h
2144 08-01-2021 10:35:00 1.9 C 5.3 g/m*3 1.9 C 3.2 km/h
2145 08-01-2021 10:40:00 2 C 5.33 g/m*3 2 C 4.8 km/h
2146 08-01-2021 10:45:00 2 C 5.33 g/m*3 2 C 4.8 km/h
2147 08-01-2021 10:50:00 2 C 5.33 g/m*3 2 C 4.8 km/h
2148 08-01-2021 10:55:00 2.1 C 5.37 g/m*3 2.1 C 3.2 km/h
2149 08-01-2021 11:00:00 2.1 C 5.37 g/m*3 2.1 C 0 km/h
2150 08-01-2021 11:05:00 2.1 C 5.37 g/m*3 2.1 C 3.2 km/h
Sensor: Nr:Datum:Temp:Abs-Feuchte:Windchill:Wind:
Aussen-T/F 2151 08-01-2021 11:10:00 2.1 C 5.37 g/m*3 2.1 C 0 km/h
2152 08-01-2021 11:15:00 2.2 C 5.41 g/m*3 2.2 C 0 km/h
2153 08-01-2021 11:20:00 2.2 C 5.41 g/m*3 2.2 C 3.2 km/h
2154 08-01-2021 11:25:00 2.2 C 5.41 g/m*3 2.2 C 3.2 km/h
2155 08-01-2021 11:30:00 2.2 C 5.41 g/m*3 2.2 C 0 km/h
2156 08-01-2021 11:35:00 2.2 C 5.41 g/m*3 2.2 C 4.8 km/h
2157 08-01-2021 11:40:00 2.2 C 5.41 g/m*3 2.2 C 3.2 km/h
2158 08-01-2021 11:45:00 2.3 C 5.44 g/m*3 2.3 C 4.8 km/h
2159 08-01-2021 11:50:00 2.3 C 5.39 g/m*3 0.47 C 6.4 km/h
2160 08-01-2021 11:55:00 2.3 C 5.39 g/m*3 2.3 C 3.2 km/h
2161 08-01-2021 12:00:00 2.4 C 5.42 g/m*3 2.4 C 4.8 km/h
2162 08-01-2021 12:05:00 2.4 C 5.42 g/m*3 0.59 C 6.4 km/h
2163 08-01-2021 12:10:00 2.4 C 5.42 g/m*3 2.4 C 3.2 km/h
2164 08-01-2021 12:15:00 2.5 C 5.46 g/m*3 2.5 C 4.8 km/h
2165 08-01-2021 12:20:00 2.5 C 5.46 g/m*3 2.5 C 1.6 km/h
2166 08-01-2021 12:25:00 2.6 C 5.56 g/m*3 2.6 C 1.6 km/h
2167 08-01-2021 12:30:00 2.6 C 5.5 g/m*3 2.6 C 1.6 km/h
2168 08-01-2021 12:35:00 2.6 C 5.5 g/m*3 2.6 C 3.2 km/h
2169 08-01-2021 12:40:00 2.6 C 5.5 g/m*3 2.6 C 3.2 km/h
2170 08-01-2021 12:45:00 2.6 C 5.5 g/m*3 2.6 C 0 km/h
2171 08-01-2021 12:50:00 2.6 C 5.5 g/m*3 2.6 C 1.6 km/h
2172 08-01-2021 12:55:00 2.5 C 5.46 g/m*3 2.5 C 0 km/h
2173 08-01-2021 13:00:00 2.5 C 5.46 g/m*3 2.5 C 1.6 km/h
2174 08-01-2021 13:05:00 2.6 C 5.5 g/m*3 2.6 C 0 km/h
2175 08-01-2021 13:10:00 2.6 C 5.5 g/m*3 2.6 C 0 km/h
Sensor: Nr:Datum:Temp:Abs-Feuchte:Windchill:Wind:
Aussen-T/F 2176 08-01-2021 13:15:00 2.5 C 5.46 g/m*3 2.5 C 0 km/h
2177 08-01-2021 13:20:00 2.5 C 5.46 g/m*3 2.5 C 0 km/h
2178 08-01-2021 13:25:00 2.5 C 5.46 g/m*3 2.5 C 1.6 km/h
2179 08-01-2021 13:30:00 2.5 C 5.46 g/m*3 2.5 C 0 km/h
2180 08-01-2021 13:35:00 2.5 C 5.46 g/m*3 2.5 C 0 km/h
2181 08-01-2021 13:40:00 2.5 C 5.46 g/m*3 2.5 C 1.6 km/h
2182 08-01-2021 13:45:00 2.4 C 5.42 g/m*3 2.4 C 0 km/h
2183 08-01-2021 13:50:00 2.5 C 5.46 g/m*3 2.5 C 1.6 km/h
2184 08-01-2021 13:55:00 2.5 C 5.46 g/m*3 2.5 C 0 km/h
2185 08-01-2021 14:00:00 2.6 C 5.5 g/m*3 2.6 C 3.2 km/h
2186 08-01-2021 14:05:00 2.6 C 5.5 g/m*3 2.6 C 3.2 km/h
2187 08-01-2021 14:10:00 2.5 C 5.46 g/m*3 2.5 C 4.8 km/h
2188 08-01-2021 14:15:00 2.5 C 5.46 g/m*3 2.5 C 4.8 km/h
2189 08-01-2021 14:20:00 2.5 C 5.46 g/m*3 2.5 C 1.6 km/h
2190 08-01-2021 14:25:00 2.5 C 5.46 g/m*3 2.5 C 0 km/h
2191 08-01-2021 14:30:00 2.5 C 5.46 g/m*3 2.5 C 1.6 km/h
2192 08-01-2021 14:35:00 2.6 C 5.5 g/m*3 2.6 C 1.6 km/h
2193 08-01-2021 14:40:00 2.6 C 5.5 g/m*3 2.6 C 0 km/h
2194 08-01-2021 14:45:00 2.6 C 5.5 g/m*3 2.6 C 3.2 km/h
2195 08-01-2021 14:50:00 2.5 C 5.4 g/m*3 2.5 C 3.2 km/h
2196 08-01-2021 14:55:00 2.5 C 5.4 g/m*3 2.5 C 3.2 km/h
2197 08-01-2021 15:00:00 2.6 C 5.5 g/m*3 2.6 C 0 km/h
2198 08-01-2021 15:05:00 2.6 C 5.5 g/m*3 2.6 C 4.8 km/h
2199 08-01-2021 15:10:00 2.5 C 5.4 g/m*3 2.5 C 4.8 km/h
2200 08-01-2021 15:15:00 2.5 C 5.4 g/m*3 2.5 C 4.8 km/h
Sensor: Nr:Datum:Temp:Abs-Feuchte:Windchill:Wind:
Aussen-T/F 2201 08-01-2021 15:20:00 2.5 C 5.4 g/m*3 2.5 C 4.8 km/h
2202 08-01-2021 15:25:00 2.5 C 5.46 g/m*3 2.5 C 3.2 km/h
2203 08-01-2021 15:30:00 2.5 C 5.4 g/m*3 2.5 C 3.2 km/h
2204 08-01-2021 15:35:00 2.4 C 5.37 g/m*3 2.4 C 1.6 km/h
2205 08-01-2021 15:40:00 2.4 C 5.37 g/m*3 2.4 C 0 km/h
2206 08-01-2021 15:45:00 2.4 C 5.37 g/m*3 2.4 C 0 km/h
2207 08-01-2021 15:50:00 2.4 C 5.37 g/m*3 2.4 C 0 km/h
2208 08-01-2021 15:55:00 2.4 C 5.37 g/m*3 2.4 C 0 km/h
2209 08-01-2021 16:00:00 2.4 C 5.37 g/m*3 2.4 C 1.6 km/h
2210 08-01-2021 16:05:00 2.4 C 5.37 g/m*3 2.4 C 3.2 km/h
2211 08-01-2021 16:10:00 2.4 C 5.37 g/m*3 2.4 C 1.6 km/h
2212 08-01-2021 16:15:00 2.4 C 5.37 g/m*3 2.4 C 0 km/h
2213 08-01-2021 16:20:00 2.4 C 5.37 g/m*3 2.4 C 3.2 km/h
2214 08-01-2021 16:25:00 2.3 C 5.33 g/m*3 2.3 C 0 km/h
2215 08-01-2021 16:30:00 2.3 C 5.33 g/m*3 2.3 C 0 km/h
2216 08-01-2021 16:35:00 2.3 C 5.33 g/m*3 2.3 C 0 km/h
2217 08-01-2021 16:40:00 2.3 C 5.33 g/m*3 2.3 C 3.2 km/h
2218 08-01-2021 16:45:00 2.3 C 5.39 g/m*3 2.3 C 4.8 km/h
2219 08-01-2021 16:50:00 2.3 C 5.39 g/m*3 2.3 C 3.2 km/h
2220 08-01-2021 16:55:00 2.2 C 5.35 g/m*3 2.2 C 1.6 km/h
2221 08-01-2021 17:00:00 2.2 C 5.35 g/m*3 2.2 C 0 km/h
2222 08-01-2021 17:05:00 2.2 C 5.35 g/m*3 2.2 C 0 km/h
2223 08-01-2021 17:10:00 2.2 C 5.35 g/m*3 2.2 C 1.6 km/h
2224 08-01-2021 17:15:00 2.2 C 5.35 g/m*3 2.2 C 3.2 km/h
2225 08-01-2021 17:20:00 2.2 C 5.35 g/m*3 2.2 C 0 km/h
Sensor: Nr:Datum:Temp:Abs-Feuchte:Windchill:Wind:
Aussen-T/F 2226 08-01-2021 17:25:00 2.1 C 5.31 g/m*3 2.1 C 0 km/h
2227 08-01-2021 17:30:00 2.1 C 5.31 g/m*3 2.1 C 0 km/h
2228 08-01-2021 17:35:00 2.1 C 5.31 g/m*3 2.1 C 3.2 km/h
2229 08-01-2021 17:40:00 2.1 C 5.31 g/m*3 2.1 C 0 km/h
2230 08-01-2021 17:45:00 2.1 C 5.31 g/m*3 2.1 C 1.6 km/h
2231 08-01-2021 17:50:00 2.1 C 5.31 g/m*3 2.1 C 0 km/h
2232 08-01-2021 17:55:00 2.1 C 5.31 g/m*3 2.1 C 0 km/h
2233 08-01-2021 18:00:00 2.1 C 5.31 g/m*3 2.1 C 1.6 km/h
2234 08-01-2021 18:05:00 2.1 C 5.31 g/m*3 2.1 C 1.6 km/h
2235 08-01-2021 18:10:00 2.1 C 5.31 g/m*3 2.1 C 0 km/h
2236 08-01-2021 18:15:00 2.1 C 5.37 g/m*3 2.1 C 0 km/h
2237 08-01-2021 18:20:00 2.1 C 5.37 g/m*3 2.1 C 0 km/h
2238 08-01-2021 18:25:00 2.1 C 5.37 g/m*3 2.1 C 4.8 km/h
2239 08-01-2021 18:30:00 2.1 C 5.31 g/m*3 2.1 C 4.8 km/h
2240 08-01-2021 18:35:00 2.1 C 5.31 g/m*3 2.1 C 0 km/h
2241 08-01-2021 18:40:00 2.1 C 5.31 g/m*3 2.1 C 0 km/h
2242 08-01-2021 18:45:00 2.1 C 5.31 g/m*3 2.1 C 0 km/h
2243 08-01-2021 18:50:00 2.1 C 5.37 g/m*3 2.1 C 0 km/h
2244 08-01-2021 18:55:00 2.1 C 5.37 g/m*3 2.1 C 0 km/h
2245 08-01-2021 19:00:00 2.1 C 5.37 g/m*3 2.1 C 0 km/h
2246 08-01-2021 19:05:00 2.1 C 5.37 g/m*3 2.1 C 0 km/h
2247 08-01-2021 19:10:00 2.1 C 5.37 g/m*3 2.1 C 0 km/h
2248 08-01-2021 19:15:00 2.1 C 5.37 g/m*3 2.1 C 0 km/h
2249 08-01-2021 19:20:00 2.1 C 5.37 g/m*3 2.1 C 0 km/h
2250 08-01-2021 19:25:00 2.2 C 5.41 g/m*3 2.2 C 0 km/h
Sensor: Nr:Datum:Temp:Abs-Feuchte:Windchill:Wind:
Aussen-T/F 2251 08-01-2021 19:30:00 2.2 C 5.41 g/m*3 2.2 C 0 km/h
2252 08-01-2021 19:35:00 2.2 C 5.41 g/m*3 2.2 C 0 km/h
2253 08-01-2021 19:40:00 2.2 C 5.41 g/m*3 2.2 C 0 km/h
2254 08-01-2021 19:45:00 2.2 C 5.41 g/m*3 2.2 C 0 km/h
2255 08-01-2021 19:50:00 2.2 C 5.41 g/m*3 2.2 C 0 km/h
2256 08-01-2021 19:55:00 2.2 C 5.41 g/m*3 2.2 C 0 km/h
2257 08-01-2021 20:00:00 2.2 C 5.41 g/m*3 2.2 C 0 km/h
2258 08-01-2021 20:05:00 2.2 C 5.41 g/m*3 2.2 C 0 km/h
2259 08-01-2021 20:10:00 2.2 C 5.41 g/m*3 2.2 C 0 km/h
2260 08-01-2021 20:15:00 2.2 C 5.41 g/m*3 2.2 C 0 km/h
2261 08-01-2021 20:20:00 2.2 C 5.41 g/m*3 2.2 C 0 km/h
2262 08-01-2021 20:25:00 2.2 C 5.41 g/m*3 2.2 C 0 km/h
2263 08-01-2021 20:30:00 2.2 C 5.41 g/m*3 2.2 C 0 km/h
2264 08-01-2021 20:35:00 2.1 C 5.37 g/m*3 2.1 C 0 km/h
2265 08-01-2021 20:40:00 2.1 C 5.37 g/m*3 2.1 C 0 km/h
2266 08-01-2021 20:45:00 2.1 C 5.37 g/m*3 2.1 C 0 km/h
2267 08-01-2021 20:50:00 2.1 C 5.37 g/m*3 2.1 C 0 km/h
2268 08-01-2021 20:55:00 2.1 C 5.37 g/m*3 2.1 C 0 km/h
2269 08-01-2021 21:00:00 2.1 C 5.37 g/m*3 2.1 C 0 km/h
2270 08-01-2021 21:05:00 2.1 C 5.37 g/m*3 2.1 C 0 km/h
2271 08-01-2021 21:10:00 2.1 C 5.37 g/m*3 2.1 C 0 km/h
2272 08-01-2021 21:15:00 2.1 C 5.37 g/m*3 2.1 C 4.8 km/h
2273 08-01-2021 21:20:00 2.1 C 5.37 g/m*3 2.1 C 3.2 km/h
2274 08-01-2021 21:25:00 2.1 C 5.37 g/m*3 2.1 C 3.2 km/h
2275 08-01-2021 21:30:00 2.1 C 5.37 g/m*3 2.1 C 3.2 km/h
Sensor: Nr:Datum:Temp:Abs-Feuchte:Windchill:Wind:
Aussen-T/F 2276 08-01-2021 21:35:00 2.1 C 5.37 g/m*3 2.1 C 0 km/h
2277 08-01-2021 21:40:00 2.1 C 5.37 g/m*3 2.1 C 0 km/h
2278 08-01-2021 21:45:00 2.1 C 5.37 g/m*3 2.1 C 3.2 km/h
2279 08-01-2021 21:50:00 2 C 5.33 g/m*3 2 C 0 km/h
2280 08-01-2021 21:55:00 2 C 5.33 g/m*3 2 C 3.2 km/h
2281 08-01-2021 22:00:00 2 C 5.33 g/m*3 2 C 0 km/h
2282 08-01-2021 22:05:00 2 C 5.33 g/m*3 2 C 4.8 km/h
2283 08-01-2021 22:10:00 1.9 C 5.3 g/m*3 1.9 C 4.8 km/h
2284 08-01-2021 22:15:00 2 C 5.33 g/m*3 2 C 1.6 km/h
2285 08-01-2021 22:20:00 1.9 C 5.3 g/m*3 1.9 C 3.2 km/h
2286 08-01-2021 22:25:00 1.8 C 5.21 g/m*3 1.8 C 0 km/h
2287 08-01-2021 22:30:00 1.6 C 5.14 g/m*3 1.6 C 0 km/h
2288 08-01-2021 22:35:00 1.4 C 5.07 g/m*3 1.4 C 0 km/h
2289 08-01-2021 22:40:00 1.3 C 5.03 g/m*3 1.3 C 3.2 km/h
2290 08-01-2021 22:45:00 1.3 C 5.03 g/m*3 1.3 C 3.2 km/h
2291 08-01-2021 22:50:00 1.3 C 5.09 g/m*3 1.3 C 1.6 km/h
2292 08-01-2021 22:55:00 1.2 C 5 g/m*3 1.2 C 0 km/h
2293 08-01-2021 23:00:00 1.1 C 4.96 g/m*3 1.1 C 0 km/h
2294 08-01-2021 23:05:00 0.9 C 4.9 g/m*3 0.9 C 3.2 km/h
2295 08-01-2021 23:10:00 0.8 C 4.86 g/m*3 0.8 C 1.6 km/h
2296 08-01-2021 23:15:00 0.7 C 4.83 g/m*3 0.7 C 0 km/h
2297 08-01-2021 23:20:00 0.8 C 4.86 g/m*3 0.8 C 0 km/h
2298 08-01-2021 23:25:00 0.8 C 4.91 g/m*3 0.8 C 1.6 km/h
2299 08-01-2021 23:30:00 0.8 C 4.91 g/m*3 0.8 C 1.6 km/h
2300 08-01-2021 23:35:00 0.9 C 4.95 g/m*3 0.9 C 0 km/h
Sensor: Nr:Datum:Temp:Abs-Feuchte:Windchill:Wind:
Aussen-T/F 2301 08-01-2021 23:40:00 0.9 C 4.95 g/m*3 0.9 C 0 km/h
2302 08-01-2021 23:45:00 0.8 C 4.86 g/m*3 0.8 C 0 km/h
2303 08-01-2021 23:50:00 0.7 C 4.88 g/m*3 0.7 C 0 km/h
2304 08-01-2021 23:55:00 0.6 C 4.85 g/m*3 0.6 C 0 km/h
2305 09-01-2021 00:00:00 0.6 C 4.85 g/m*3 0.6 C 0 km/h
2306 09-01-2021 00:05:00 0.7 C 4.88 g/m*3 0.7 C 3.2 km/h
2307 09-01-2021 00:10:00 0.7 C 4.88 g/m*3 0.7 C 3.2 km/h
2308 09-01-2021 00:15:00 0.7 C 4.88 g/m*3 0.7 C 0 km/h
2309 09-01-2021 00:20:00 0.7 C 4.88 g/m*3 0.7 C 1.6 km/h
2310 09-01-2021 00:25:00 0.7 C 4.88 g/m*3 0.7 C 0 km/h
2311 09-01-2021 00:30:00 0.7 C 4.88 g/m*3 0.7 C 0 km/h
2312 09-01-2021 00:35:00 0.7 C 4.88 g/m*3 0.7 C 3.2 km/h
2313 09-01-2021 00:40:00 0.7 C 4.88 g/m*3 0.7 C 0 km/h
2314 09-01-2021 00:45:00 0.7 C 4.88 g/m*3 0.7 C 3.2 km/h
2315 09-01-2021 00:50:00 0.7 C 4.88 g/m*3 0.7 C 3.2 km/h
2316 09-01-2021 00:55:00 0.7 C 4.88 g/m*3 0.7 C 4.8 km/h
2317 09-01-2021 01:00:00 0.7 C 4.88 g/m*3 0.7 C 0 km/h
2318 09-01-2021 01:05:00 0.7 C 4.88 g/m*3 0.7 C 3.2 km/h
2319 09-01-2021 01:10:00 0.8 C 4.91 g/m*3 0.8 C 0 km/h
2320 09-01-2021 01:15:00 0.8 C 4.91 g/m*3 0.8 C 0 km/h
2321 09-01-2021 01:20:00 0.9 C 4.95 g/m*3 0.9 C 3.2 km/h
2322 09-01-2021 01:25:00 0.9 C 4.95 g/m*3 0.9 C 0 km/h
2323 09-01-2021 01:30:00 1 C 4.98 g/m*3 1 C 1.6 km/h
2324 09-01-2021 01:35:00 1 C 4.98 g/m*3 1 C 1.6 km/h
2325 09-01-2021 01:40:00 1 C 4.98 g/m*3 1 C 0 km/h
Sensor: Nr:Datum:Temp:Abs-Feuchte:Windchill:Wind:
Aussen-T/F 2326 09-01-2021 01:45:00 1 C 4.98 g/m*3 1 C 0 km/h
2327 09-01-2021 01:50:00 1 C 4.98 g/m*3 1 C 0 km/h
2328 09-01-2021 01:55:00 0.9 C 4.95 g/m*3 0.9 C 0 km/h
2329 09-01-2021 02:00:00 0.9 C 4.95 g/m*3 0.9 C 0 km/h
2330 09-01-2021 02:05:00 0.9 C 4.95 g/m*3 0.9 C 0 km/h
2331 09-01-2021 02:10:00 0.9 C 4.95 g/m*3 0.9 C 0 km/h
2332 09-01-2021 02:15:00 0.9 C 4.95 g/m*3 0.9 C 0 km/h
2333 09-01-2021 02:20:00 1 C 4.98 g/m*3 1 C 0 km/h
2334 09-01-2021 02:25:00 1 C 4.98 g/m*3 1 C 0 km/h
2335 09-01-2021 02:30:00 1 C 4.98 g/m*3 1 C 0 km/h
2336 09-01-2021 02:35:00 1 C 4.98 g/m*3 1 C 0 km/h
2337 09-01-2021 02:40:00 1.1 C 5.02 g/m*3 1.1 C 0 km/h
2338 09-01-2021 02:45:00 1.1 C 5.02 g/m*3 1.1 C 0 km/h
2339 09-01-2021 02:50:00 1.1 C 5.02 g/m*3 1.1 C 0 km/h
2340 09-01-2021 02:55:00 1.1 C 5.02 g/m*3 1.1 C 1.6 km/h
2341 09-01-2021 03:00:00 1.1 C 5.02 g/m*3 1.1 C 0 km/h
2342 09-01-2021 03:05:00 1.1 C 5.02 g/m*3 1.1 C 0 km/h
2343 09-01-2021 03:10:00 1.1 C 5.02 g/m*3 1.1 C 0 km/h
2344 09-01-2021 03:15:00 1.1 C 5.02 g/m*3 1.1 C 1.6 km/h
2345 09-01-2021 03:20:00 1.1 C 5.07 g/m*3 1.1 C 0 km/h
2346 09-01-2021 03:25:00 1.2 C 5.05 g/m*3 1.2 C 0 km/h
2347 09-01-2021 03:30:00 1.2 C 5.05 g/m*3 1.2 C 0 km/h
2348 09-01-2021 03:35:00 1.2 C 5.05 g/m*3 1.2 C 0 km/h
2349 09-01-2021 03:40:00 1.2 C 5.05 g/m*3 1.2 C 0 km/h
2350 09-01-2021 03:45:00 1.1 C 5.02 g/m*3 1.1 C 3.2 km/h
Sensor: Nr:Datum:Temp:Abs-Feuchte:Windchill:Wind:
Aussen-T/F 2351 09-01-2021 03:50:00 1 C 4.98 g/m*3 1 C 1.6 km/h
2352 09-01-2021 03:55:00 0.9 C 4.95 g/m*3 0.9 C 1.6 km/h
2353 09-01-2021 04:00:00 0.8 C 4.91 g/m*3 0.8 C 3.2 km/h
2354 09-01-2021 04:05:00 0.8 C 4.91 g/m*3 0.8 C 3.2 km/h
2355 09-01-2021 04:10:00 0.8 C 4.91 g/m*3 0.8 C 3.2 km/h
2356 09-01-2021 04:15:00 0.8 C 4.91 g/m*3 0.8 C 1.6 km/h
2357 09-01-2021 04:20:00 0.8 C 4.91 g/m*3 0.8 C 0 km/h
2358 09-01-2021 04:25:00 0.8 C 4.91 g/m*3 0.8 C 0 km/h
2359 09-01-2021 04:30:00 0.9 C 4.95 g/m*3 0.9 C 0 km/h
2360 09-01-2021 04:35:00 0.9 C 5 g/m*3 0.9 C 0 km/h
2361 09-01-2021 04:40:00 0.9 C 5 g/m*3 0.9 C 0 km/h
2362 09-01-2021 04:45:00 0.9 C 5 g/m*3 0.9 C 0 km/h
2363 09-01-2021 04:50:00 0.9 C 5 g/m*3 0.9 C 0 km/h
2364 09-01-2021 04:55:00 0.9 C 5 g/m*3 0.9 C 0 km/h
2365 09-01-2021 05:00:00 0.9 C 5 g/m*3 0.9 C 0 km/h
2366 09-01-2021 05:05:00 0.9 C 5 g/m*3 0.9 C 0 km/h
2367 09-01-2021 05:10:00 0.9 C 5 g/m*3 0.9 C 0 km/h
2368 09-01-2021 05:15:00 0.9 C 5 g/m*3 0.9 C 0 km/h
2369 09-01-2021 05:20:00 0.9 C 5 g/m*3 0.9 C 0 km/h
2370 09-01-2021 05:25:00 0.9 C 5 g/m*3 0.9 C 0 km/h
2371 09-01-2021 05:30:00 0.9 C 5 g/m*3 0.9 C 0 km/h
2372 09-01-2021 05:35:00 0.9 C 5 g/m*3 0.9 C 0 km/h
2373 09-01-2021 05:40:00 0.9 C 5 g/m*3 0.9 C 0 km/h
2374 09-01-2021 05:45:00 0.9 C 5 g/m*3 0.9 C 3.2 km/h
2375 09-01-2021 05:50:00 0.9 C 5 g/m*3 0.9 C 0 km/h
Sensor: Nr:Datum:Temp:Abs-Feuchte:Windchill:Wind:
Aussen-T/F 2376 09-01-2021 05:55:00 0.9 C 4.95 g/m*3 0.9 C 0 km/h
2377 09-01-2021 06:00:00 0.9 C 5 g/m*3 0.9 C 0 km/h
2378 09-01-2021 06:05:00 0.9 C 5 g/m*3 0.9 C 0 km/h
2379 09-01-2021 06:10:00 0.9 C 5 g/m*3 0.9 C 1.6 km/h
2380 09-01-2021 06:15:00 0.9 C 5 g/m*3 0.9 C 0 km/h
2381 09-01-2021 06:20:00 0.9 C 5 g/m*3 0.9 C 0 km/h
2382 09-01-2021 06:25:00 0.9 C 5 g/m*3 0.9 C 1.6 km/h
2383 09-01-2021 06:30:00 0.9 C 5 g/m*3 0.9 C 0 km/h
2384 09-01-2021 06:35:00 1 C 5.03 g/m*3 1 C 0 km/h
2385 09-01-2021 06:40:00 1 C 5.03 g/m*3 1 C 1.6 km/h
2386 09-01-2021 06:45:00 1 C 5.03 g/m*3 1 C 1.6 km/h
2387 09-01-2021 06:50:00 1 C 5.03 g/m*3 1 C 0 km/h
2388 09-01-2021 06:55:00 1 C 5.03 g/m*3 1 C 1.6 km/h
2389 09-01-2021 07:00:00 1 C 5.03 g/m*3 1 C 0 km/h
2390 09-01-2021 07:05:00 1 C 5.03 g/m*3 1 C 0 km/h
2391 09-01-2021 07:10:00 1 C 5.03 g/m*3 1 C 1.6 km/h
2392 09-01-2021 07:15:00 1 C 5.03 g/m*3 1 C 3.2 km/h
2393 09-01-2021 07:20:00 1 C 5.03 g/m*3 1 C 0 km/h
2394 09-01-2021 07:25:00 1 C 5.03 g/m*3 1 C 1.6 km/h
2395 09-01-2021 07:30:00 1 C 5.03 g/m*3 1 C 0 km/h
2396 09-01-2021 07:35:00 1.1 C 5.07 g/m*3 1.1 C 0 km/h
2397 09-01-2021 07:40:00 1.1 C 5.07 g/m*3 1.1 C 0 km/h
2398 09-01-2021 07:45:00 1 C 5.03 g/m*3 1 C 0 km/h
2399 09-01-2021 07:50:00 1.1 C 5.07 g/m*3 1.1 C 0 km/h
2400 09-01-2021 07:55:00 1 C 5.03 g/m*3 1 C 0 km/h
Sensor: Nr:Datum:Temp:Abs-Feuchte:Windchill:Wind:
Aussen-T/F 2401 09-01-2021 08:00:00 1 C 5.03 g/m*3 1 C 0 km/h
2402 09-01-2021 08:05:00 1 C 5.03 g/m*3 1 C 0 km/h
2403 09-01-2021 08:10:00 1 C 5.03 g/m*3 1 C 0 km/h
2404 09-01-2021 08:15:00 1 C 5.03 g/m*3 1 C 0 km/h
2405 09-01-2021 08:20:00 1.1 C 5.07 g/m*3 1.1 C 0 km/h
2406 09-01-2021 08:25:00 1.1 C 5.07 g/m*3 1.1 C 0 km/h
2407 09-01-2021 08:30:00 1.1 C 5.07 g/m*3 1.1 C 3.2 km/h
2408 09-01-2021 08:35:00 1.1 C 5.07 g/m*3 1.1 C 0 km/h
2409 09-01-2021 08:40:00 1.1 C 5.07 g/m*3 1.1 C 3.2 km/h
2410 09-01-2021 08:45:00 1.1 C 5.07 g/m*3 1.1 C 3.2 km/h
2411 09-01-2021 08:50:00 1.1 C 5.02 g/m*3 1.1 C 0 km/h
2412 09-01-2021 08:55:00 1.1 C 5.07 g/m*3 1.1 C 0 km/h
2413 09-01-2021 09:00:00 1.1 C 5.02 g/m*3 1.1 C 1.6 km/h
2414 09-01-2021 09:05:00 1.1 C 5.02 g/m*3 1.1 C 1.6 km/h
2415 09-01-2021 09:10:00 1.1 C 5.02 g/m*3 1.1 C 0 km/h
2416 09-01-2021 09:15:00 1.1 C 5.02 g/m*3 1.1 C 0 km/h
2417 09-01-2021 09:20:00 1.1 C 5.07 g/m*3 1.1 C 0 km/h
2418 09-01-2021 09:25:00 1.1 C 5.02 g/m*3 1.1 C 0 km/h
2419 09-01-2021 09:30:00 1.1 C 5.02 g/m*3 1.1 C 0 km/h
2420 09-01-2021 09:35:00 1.1 C 5.02 g/m*3 1.1 C 0 km/h
2421 09-01-2021 09:40:00 1 C 4.98 g/m*3 1 C 0 km/h
2422 09-01-2021 09:45:00 0.9 C 4.95 g/m*3 0.9 C 0 km/h
2423 09-01-2021 09:50:00 0.8 C 4.91 g/m*3 0.8 C 0 km/h
2424 09-01-2021 09:55:00 0.7 C 4.88 g/m*3 0.7 C 0 km/h
2425 09-01-2021 10:00:00 0.7 C 4.88 g/m*3 0.7 C 0 km/h
Sensor: Nr:Datum:Temp:Abs-Feuchte:Windchill:Wind:
Aussen-T/F 2426 09-01-2021 10:05:00 0.7 C 4.88 g/m*3 0.7 C 1.6 km/h
2427 09-01-2021 10:10:00 0.6 C 4.85 g/m*3 0.6 C 0 km/h
2428 09-01-2021 10:15:00 0.7 C 4.88 g/m*3 0.7 C 0 km/h
2429 09-01-2021 10:20:00 0.7 C 4.88 g/m*3 0.7 C 0 km/h
2430 09-01-2021 10:25:00 0.8 C 4.91 g/m*3 0.8 C 0 km/h
2431 09-01-2021 10:30:00 0.9 C 5 g/m*3 0.9 C 1.6 km/h
2432 09-01-2021 10:35:00 1.1 C 5.07 g/m*3 1.1 C 1.6 km/h
2433 09-01-2021 10:40:00 1.2 C 5.1 g/m*3 1.2 C 0 km/h
2434 09-01-2021 10:45:00 1.2 C 5.1 g/m*3 1.2 C 0 km/h
2435 09-01-2021 10:50:00 1.2 C 5.1 g/m*3 1.2 C 0 km/h
2436 09-01-2021 10:55:00 1.2 C 5.1 g/m*3 1.2 C 0 km/h
2437 09-01-2021 11:00:00 1.2 C 5.05 g/m*3 1.2 C 0 km/h
2438 09-01-2021 11:05:00 1.2 C 5.05 g/m*3 1.2 C 0 km/h
2439 09-01-2021 11:10:00 1.1 C 5.02 g/m*3 1.1 C 0 km/h
2440 09-01-2021 11:15:00 1.1 C 5.02 g/m*3 1.1 C 0 km/h
2441 09-01-2021 11:20:00 1 C 4.98 g/m*3 1 C 0 km/h
2442 09-01-2021 11:25:00 0.9 C 4.95 g/m*3 0.9 C 0 km/h
2443 09-01-2021 11:30:00 0.9 C 4.95 g/m*3 0.9 C 0 km/h
2444 09-01-2021 11:35:00 0.9 C 4.95 g/m*3 0.9 C 0 km/h
2445 09-01-2021 11:40:00 1.1 C 5.02 g/m*3 1.1 C 1.6 km/h
2446 09-01-2021 11:45:00 1.2 C 5.1 g/m*3 1.2 C 1.6 km/h
2447 09-01-2021 11:50:00 1.3 C 5.14 g/m*3 1.3 C 4.8 km/h
2448 09-01-2021 11:55:00 1.4 C 5.17 g/m*3 -1.95 C 11.3 km/h
2449 09-01-2021 12:00:00 1.4 C 5.12 g/m*3 -1.12 C 8.1 km/h
2450 09-01-2021 12:05:00 1.4 C 5.12 g/m*3 -1.12 C 8.1 km/h
Sensor: Nr:Datum:Temp:Abs-Feuchte:Windchill:Wind:
Aussen-T/F 2451 09-01-2021 12:10:00 1.4 C 5.07 g/m*3 1.4 C 0 km/h
2452 09-01-2021 12:15:00 1.4 C 5.07 g/m*3 1.4 C 0 km/h
2453 09-01-2021 12:20:00 1.3 C 5.03 g/m*3 1.3 C 3.2 km/h
2454 09-01-2021 12:25:00 1.3 C 5.03 g/m*3 1.3 C 1.6 km/h
2455 09-01-2021 12:30:00 1.2 C 5 g/m*3 1.2 C 0 km/h
2456 09-01-2021 12:35:00 1.2 C 5 g/m*3 1.2 C 0 km/h
2457 09-01-2021 12:40:00 1.2 C 5 g/m*3 1.2 C 0 km/h
2458 09-01-2021 12:45:00 1.3 C 5.09 g/m*3 1.3 C 3.2 km/h
2459 09-01-2021 12:50:00 1.4 C 5.12 g/m*3 1.4 C 0 km/h
2460 09-01-2021 12:55:00 1.6 C 5.19 g/m*3 1.6 C 4.8 km/h
2461 09-01-2021 13:00:00 1.7 C 5.12 g/m*3 -0.22 C 6.4 km/h
2462 09-01-2021 13:05:00 1.9 C 5.13 g/m*3 -0.54 C 8.1 km/h
2463 09-01-2021 13:10:00 1.9 C 5.08 g/m*3 0.01 C 6.4 km/h
2464 09-01-2021 13:15:00 2 C 5.06 g/m*3 -0.85 C 9.7 km/h
2465 09-01-2021 13:20:00 2.1 C 5.04 g/m*3 2.1 C 3.2 km/h
2466 09-01-2021 13:25:00 2.2 C 5.07 g/m*3 2.2 C 1.6 km/h
2467 09-01-2021 13:30:00 2.2 C 5.07 g/m*3 2.2 C 0 km/h
2468 09-01-2021 13:35:00 2.3 C 5.1 g/m*3 2.3 C 0 km/h
2469 09-01-2021 13:40:00 2.3 C 5.1 g/m*3 2.3 C 1.6 km/h
2470 09-01-2021 13:45:00 2.3 C 5.05 g/m*3 2.3 C 3.2 km/h
2471 09-01-2021 13:50:00 2.4 C 5.14 g/m*3 2.4 C 0 km/h
2472 09-01-2021 13:55:00 2.6 C 5.21 g/m*3 2.6 C 0 km/h
2473 09-01-2021 14:00:00 2.7 C 5.19 g/m*3 2.7 C 1.6 km/h
2474 09-01-2021 14:05:00 2.7 C 5.19 g/m*3 0.94 C 6.4 km/h
2475 09-01-2021 14:10:00 2.8 C 5.16 g/m*3 2.8 C 1.6 km/h
Sensor: Nr:Datum:Temp:Abs-Feuchte:Windchill:Wind:
Aussen-T/F 2476 09-01-2021 14:15:00 2.8 C 5.16 g/m*3 2.8 C 3.2 km/h
2477 09-01-2021 14:20:00 2.9 C 5.14 g/m*3 2.9 C 4.8 km/h
2478 09-01-2021 14:25:00 2.9 C 5.14 g/m*3 2.9 C 4.8 km/h
2479 09-01-2021 14:30:00 2.9 C 5.14 g/m*3 2.9 C 0 km/h
2480 09-01-2021 14:35:00 2.9 C 5.14 g/m*3 2.9 C 0 km/h
2481 09-01-2021 14:40:00 3 C 5.17 g/m*3 3 C 1.6 km/h
2482 09-01-2021 14:45:00 3 C 5.11 g/m*3 1.28 C 6.4 km/h
2483 09-01-2021 14:50:00 3 C 5.11 g/m*3 3 C 4.8 km/h
2484 09-01-2021 14:55:00 2.9 C 5.02 g/m*3 2.9 C 3.2 km/h
2485 09-01-2021 15:00:00 2.9 C 5.02 g/m*3 2.9 C 4.8 km/h
2486 09-01-2021 15:05:00 2.9 C 4.96 g/m*3 2.9 C 1.6 km/h
2487 09-01-2021 15:10:00 2.9 C 5.02 g/m*3 2.9 C 1.6 km/h
2488 09-01-2021 15:15:00 3 C 5.05 g/m*3 3 C 3.2 km/h
2489 09-01-2021 15:20:00 3 C 5.05 g/m*3 3 C 4.8 km/h
2490 09-01-2021 15:25:00 3.1 C 5.15 g/m*3 3.1 C 3.2 km/h
2491 09-01-2021 15:30:00 3.1 C 5.15 g/m*3 3.1 C 3.2 km/h
2492 09-01-2021 15:35:00 3 C 5.05 g/m*3 1.28 C 6.4 km/h
2493 09-01-2021 15:40:00 2.9 C 5.02 g/m*3 2.9 C 4.8 km/h
2494 09-01-2021 15:45:00 2.8 C 4.99 g/m*3 2.8 C 4.8 km/h
2495 09-01-2021 15:50:00 2.8 C 4.99 g/m*3 1.05 C 6.4 km/h
2496 09-01-2021 15:55:00 2.7 C 4.95 g/m*3 2.7 C 4.8 km/h
2497 09-01-2021 16:00:00 2.7 C 5.01 g/m*3 2.7 C 3.2 km/h
2498 09-01-2021 16:05:00 2.7 C 5.01 g/m*3 2.7 C 4.8 km/h
2499 09-01-2021 16:10:00 2.7 C 5.07 g/m*3 2.7 C 3.2 km/h
2500 09-01-2021 16:15:00 2.6 C 5.03 g/m*3 2.6 C 3.2 km/h
Sensor: Nr:Datum:Temp:Abs-Feuchte:Windchill:Wind:
Aussen-T/F 2501 09-01-2021 16:20:00 2.6 C 5.03 g/m*3 2.6 C 0 km/h
2502 09-01-2021 16:25:00 2.6 C 5.09 g/m*3 2.6 C 0 km/h
2503 09-01-2021 16:30:00 2.6 C 5.09 g/m*3 2.6 C 0 km/h
2504 09-01-2021 16:35:00 2.5 C 5.12 g/m*3 2.5 C 0 km/h
2505 09-01-2021 16:40:00 2.4 C 5.08 g/m*3 2.4 C 0 km/h
2506 09-01-2021 16:45:00 2.3 C 5.05 g/m*3 2.3 C 1.6 km/h
2507 09-01-2021 16:50:00 2.2 C 5.01 g/m*3 2.2 C 0 km/h
2508 09-01-2021 16:55:00 2.1 C 5.04 g/m*3 2.1 C 0 km/h
2509 09-01-2021 17:00:00 2.1 C 5.04 g/m*3 2.1 C 1.6 km/h
2510 09-01-2021 17:05:00 1.9 C 4.97 g/m*3 1.9 C 1.6 km/h
2511 09-01-2021 17:10:00 1.8 C 4.93 g/m*3 1.8 C 1.6 km/h
2512 09-01-2021 17:15:00 1.8 C 4.93 g/m*3 1.8 C 0 km/h
2513 09-01-2021 17:20:00 1.7 C 4.95 g/m*3 1.7 C 0 km/h
2514 09-01-2021 17:25:00 1.6 C 4.92 g/m*3 1.6 C 0 km/h
2515 09-01-2021 17:30:00 1.6 C 4.92 g/m*3 1.6 C 0 km/h
2516 09-01-2021 17:35:00 1.6 C 4.92 g/m*3 1.6 C 0 km/h
2517 09-01-2021 17:40:00 1.5 C 4.89 g/m*3 1.5 C 0 km/h
2518 09-01-2021 17:45:00 1.4 C 4.85 g/m*3 1.4 C 0 km/h
2519 09-01-2021 17:50:00 1.4 C 4.91 g/m*3 1.4 C 0 km/h
2520 09-01-2021 17:55:00 1.3 C 4.87 g/m*3 1.3 C 0 km/h
2521 09-01-2021 18:00:00 1.3 C 4.87 g/m*3 1.3 C 0 km/h
2522 09-01-2021 18:05:00 1.3 C 4.87 g/m*3 1.3 C 0 km/h
2523 09-01-2021 18:10:00 1.3 C 4.87 g/m*3 1.3 C 0 km/h
2524 09-01-2021 18:15:00 1.3 C 4.93 g/m*3 1.3 C 0 km/h
2525 09-01-2021 18:20:00 1.3 C 4.93 g/m*3 1.3 C 0 km/h
Sensor: Nr:Datum:Temp:Abs-Feuchte:Windchill:Wind:
Aussen-T/F 2526 09-01-2021 18:25:00 1.3 C 4.93 g/m*3 1.3 C 0 km/h
2527 09-01-2021 18:30:00 1.3 C 4.93 g/m*3 1.3 C 0 km/h
2528 09-01-2021 18:35:00 1.3 C 4.93 g/m*3 1.3 C 0 km/h
2529 09-01-2021 18:40:00 1.3 C 4.93 g/m*3 1.3 C 0 km/h
2530 09-01-2021 18:45:00 1.3 C 4.93 g/m*3 1.3 C 0 km/h
2531 09-01-2021 18:50:00 1.3 C 4.93 g/m*3 1.3 C 0 km/h
2532 09-01-2021 18:55:00 1.3 C 4.93 g/m*3 1.3 C 0 km/h
2533 09-01-2021 19:00:00 1.3 C 4.93 g/m*3 1.3 C 0 km/h
2534 09-01-2021 19:05:00 1.3 C 4.93 g/m*3 1.3 C 0 km/h
2535 09-01-2021 19:10:00 1.3 C 4.98 g/m*3 1.3 C 0 km/h
2536 09-01-2021 19:15:00 1.3 C 4.98 g/m*3 1.3 C 0 km/h
2537 09-01-2021 19:20:00 1.3 C 4.98 g/m*3 1.3 C 0 km/h
2538 09-01-2021 19:25:00 1.3 C 4.98 g/m*3 1.3 C 0 km/h
2539 09-01-2021 19:30:00 1.3 C 4.98 g/m*3 1.3 C 0 km/h
2540 09-01-2021 19:35:00 1.3 C 4.98 g/m*3 1.3 C 0 km/h
2541 09-01-2021 19:40:00 1.2 C 4.95 g/m*3 1.2 C 0 km/h
2542 09-01-2021 19:45:00 1.2 C 4.95 g/m*3 1.2 C 0 km/h
2543 09-01-2021 19:50:00 1.2 C 4.95 g/m*3 1.2 C 0 km/h
2544 09-01-2021 19:55:00 1.2 C 4.95 g/m*3 1.2 C 0 km/h
2545 09-01-2021 20:00:00 1.2 C 4.95 g/m*3 1.2 C 0 km/h
2546 09-01-2021 20:05:00 1.2 C 4.95 g/m*3 1.2 C 0 km/h
2547 09-01-2021 20:10:00 1.2 C 4.95 g/m*3 1.2 C 0 km/h
2548 09-01-2021 20:15:00 1.2 C 4.95 g/m*3 1.2 C 0 km/h
2549 09-01-2021 20:20:00 1.2 C 4.95 g/m*3 1.2 C 0 km/h
2550 09-01-2021 20:25:00 1.2 C 4.95 g/m*3 1.2 C 0 km/h
Sensor: Nr:Datum:Temp:Abs-Feuchte:Windchill:Wind:
Aussen-T/F 2551 09-01-2021 20:30:00 1.2 C 4.95 g/m*3 1.2 C 0 km/h
2552 09-01-2021 20:35:00 1.1 C 4.91 g/m*3 1.1 C 0 km/h
2553 09-01-2021 20:40:00 1.1 C 4.91 g/m*3 1.1 C 0 km/h
2554 09-01-2021 20:45:00 1.1 C 4.91 g/m*3 1.1 C 0 km/h
2555 09-01-2021 20:50:00 1.1 C 4.91 g/m*3 1.1 C 0 km/h
2556 09-01-2021 20:55:00 1.2 C 4.95 g/m*3 1.2 C 0 km/h
2557 09-01-2021 21:00:00 1.1 C 4.91 g/m*3 1.1 C 0 km/h
2558 09-01-2021 21:05:00 1.1 C 4.91 g/m*3 1.1 C 0 km/h
2559 09-01-2021 21:10:00 1.1 C 4.91 g/m*3 1.1 C 0 km/h
2560 09-01-2021 21:15:00 1 C 4.88 g/m*3 1 C 0 km/h
2561 09-01-2021 21:20:00 1.1 C 4.91 g/m*3 1.1 C 0 km/h
2562 09-01-2021 21:25:00 1.1 C 4.96 g/m*3 1.1 C 0 km/h
2563 09-01-2021 21:30:00 1.1 C 4.96 g/m*3 1.1 C 0 km/h
2564 09-01-2021 21:35:00 1.1 C 4.96 g/m*3 1.1 C 0 km/h
2565 09-01-2021 21:40:00 1.1 C 4.96 g/m*3 1.1 C 0 km/h
2566 09-01-2021 21:45:00 1.1 C 4.96 g/m*3 1.1 C 0 km/h
2567 09-01-2021 21:50:00 1.1 C 4.96 g/m*3 1.1 C 0 km/h
2568 09-01-2021 21:55:00 1.1 C 4.96 g/m*3 1.1 C 0 km/h
2569 09-01-2021 22:00:00 1.1 C 4.96 g/m*3 1.1 C 0 km/h
2570 09-01-2021 22:05:00 1.1 C 4.96 g/m*3 1.1 C 0 km/h
2571 09-01-2021 22:10:00 1.1 C 4.96 g/m*3 1.1 C 0 km/h
2572 09-01-2021 22:15:00 1.1 C 4.96 g/m*3 1.1 C 0 km/h
2573 09-01-2021 22:20:00 1.1 C 4.96 g/m*3 1.1 C 0 km/h
2574 09-01-2021 22:25:00 1.2 C 5 g/m*3 1.2 C 0 km/h
2575 09-01-2021 22:30:00 1.2 C 5 g/m*3 1.2 C 0 km/h
Sensor: Nr:Datum:Temp:Abs-Feuchte:Windchill:Wind:
Aussen-T/F 2576 09-01-2021 22:35:00 1.2 C 5 g/m*3 1.2 C 0 km/h
2577 09-01-2021 22:40:00 1.3 C 5.03 g/m*3 1.3 C 0 km/h
2578 09-01-2021 22:45:00 1.3 C 5.03 g/m*3 1.3 C 0 km/h
2579 09-01-2021 22:50:00 1.3 C 5.03 g/m*3 1.3 C 0 km/h
2580 09-01-2021 22:55:00 1.3 C 5.03 g/m*3 1.3 C 0 km/h
2581 09-01-2021 23:00:00 1.3 C 5.03 g/m*3 1.3 C 0 km/h
2582 09-01-2021 23:05:00 1.4 C 5.07 g/m*3 1.4 C 0 km/h
2583 09-01-2021 23:10:00 1.4 C 5.07 g/m*3 1.4 C 0 km/h
2584 09-01-2021 23:15:00 1.4 C 5.07 g/m*3 1.4 C 0 km/h
2585 09-01-2021 23:20:00 1.3 C 5.03 g/m*3 1.3 C 0 km/h
2586 09-01-2021 23:25:00 1.3 C 5.03 g/m*3 1.3 C 0 km/h
2587 09-01-2021 23:30:00 1.2 C 5 g/m*3 1.2 C 0 km/h
2588 09-01-2021 23:35:00 1.2 C 5 g/m*3 1.2 C 0 km/h
2589 09-01-2021 23:40:00 1.2 C 5 g/m*3 1.2 C 0 km/h
2590 09-01-2021 23:45:00 1.1 C 4.96 g/m*3 1.1 C 0 km/h
2591 09-01-2021 23:50:00 1.1 C 4.96 g/m*3 1.1 C 0 km/h
2592 09-01-2021 23:55:00 1.1 C 4.96 g/m*3 1.1 C 0 km/h
2593 10-01-2021 00:00:00 1.1 C 4.96 g/m*3 1.1 C 0 km/h
2594 10-01-2021 00:05:00 1.1 C 4.96 g/m*3 1.1 C 0 km/h
2595 10-01-2021 00:10:00 1.1 C 4.96 g/m*3 1.1 C 0 km/h
2596 10-01-2021 00:15:00 1.1 C 4.96 g/m*3 1.1 C 0 km/h
2597 10-01-2021 00:20:00 1.1 C 4.96 g/m*3 1.1 C 0 km/h
2598 10-01-2021 00:25:00 1 C 4.93 g/m*3 1 C 0 km/h
2599 10-01-2021 00:30:00 0.9 C 4.9 g/m*3 0.9 C 0 km/h
2600 10-01-2021 00:35:00 0.9 C 4.9 g/m*3 0.9 C 0 km/h
Sensor: Nr:Datum:Temp:Abs-Feuchte:Windchill:Wind:
Aussen-T/F 2601 10-01-2021 00:40:00 0.9 C 4.9 g/m*3 0.9 C 0 km/h
2602 10-01-2021 00:45:00 0.8 C 4.86 g/m*3 0.8 C 0 km/h
2603 10-01-2021 00:50:00 0.8 C 4.86 g/m*3 0.8 C 0 km/h
2604 10-01-2021 00:55:00 0.8 C 4.86 g/m*3 0.8 C 0 km/h
2605 10-01-2021 01:00:00 0.8 C 4.86 g/m*3 0.8 C 0 km/h
2606 10-01-2021 01:05:00 0.8 C 4.86 g/m*3 0.8 C 0 km/h
2607 10-01-2021 01:10:00 0.8 C 4.86 g/m*3 0.8 C 0 km/h
2608 10-01-2021 01:15:00 0.8 C 4.86 g/m*3 0.8 C 0 km/h
2609 10-01-2021 01:20:00 0.8 C 4.86 g/m*3 0.8 C 0 km/h
2610 10-01-2021 01:25:00 0.8 C 4.86 g/m*3 0.8 C 0 km/h
2611 10-01-2021 01:30:00 0.8 C 4.91 g/m*3 0.8 C 0 km/h
2612 10-01-2021 01:35:00 0.8 C 4.91 g/m*3 0.8 C 0 km/h
2613 10-01-2021 01:40:00 0.9 C 4.95 g/m*3 0.9 C 0 km/h
2614 10-01-2021 01:45:00 0.9 C 4.95 g/m*3 0.9 C 0 km/h
2615 10-01-2021 01:50:00 0.9 C 4.95 g/m*3 0.9 C 0 km/h
2616 10-01-2021 01:55:00 0.9 C 4.95 g/m*3 0.9 C 0 km/h
2617 10-01-2021 02:00:00 0.9 C 4.95 g/m*3 0.9 C 0 km/h
2618 10-01-2021 02:05:00 0.9 C 4.95 g/m*3 0.9 C 0 km/h
2619 10-01-2021 02:10:00 0.9 C 4.95 g/m*3 0.9 C 0 km/h
2620 10-01-2021 02:15:00 0.9 C 4.95 g/m*3 0.9 C 0 km/h
2621 10-01-2021 02:20:00 0.9 C 4.95 g/m*3 0.9 C 0 km/h
2622 10-01-2021 02:25:00 0.9 C 4.95 g/m*3 0.9 C 0 km/h
2623 10-01-2021 02:30:00 0.9 C 4.95 g/m*3 0.9 C 0 km/h
2624 10-01-2021 02:35:00 0.9 C 4.95 g/m*3 0.9 C 0 km/h
2625 10-01-2021 02:40:00 0.9 C 4.95 g/m*3 0.9 C 0 km/h
Sensor: Nr:Datum:Temp:Abs-Feuchte:Windchill:Wind:
Aussen-T/F 2626 10-01-2021 02:45:00 0.9 C 4.95 g/m*3 0.9 C 0 km/h
2627 10-01-2021 02:50:00 0.9 C 4.95 g/m*3 0.9 C 0 km/h
2628 10-01-2021 02:55:00 0.9 C 4.95 g/m*3 0.9 C 0 km/h
2629 10-01-2021 03:00:00 0.9 C 4.95 g/m*3 0.9 C 0 km/h
2630 10-01-2021 03:05:00 0.9 C 4.95 g/m*3 0.9 C 0 km/h
2631 10-01-2021 03:10:00 0.9 C 4.95 g/m*3 0.9 C 0 km/h
2632 10-01-2021 03:15:00 0.9 C 4.95 g/m*3 0.9 C 0 km/h
2633 10-01-2021 03:20:00 1 C 4.98 g/m*3 1 C 0 km/h
2634 10-01-2021 03:25:00 1 C 4.98 g/m*3 1 C 0 km/h
2635 10-01-2021 03:30:00 1 C 4.98 g/m*3 1 C 0 km/h
2636 10-01-2021 03:35:00 0.9 C 4.95 g/m*3 0.9 C 0 km/h
2637 10-01-2021 03:40:00 1 C 4.98 g/m*3 1 C 0 km/h
2638 10-01-2021 03:45:00 1 C 4.98 g/m*3 1 C 0 km/h
2639 10-01-2021 03:50:00 1 C 4.98 g/m*3 1 C 0 km/h
2640 10-01-2021 03:55:00 1 C 4.98 g/m*3 1 C 0 km/h
2641 10-01-2021 04:00:00 1 C 4.98 g/m*3 1 C 0 km/h
2642 10-01-2021 04:05:00 1 C 4.98 g/m*3 1 C 0 km/h
2643 10-01-2021 04:10:00 0.9 C 4.95 g/m*3 0.9 C 0 km/h
2644 10-01-2021 04:15:00 0.9 C 4.95 g/m*3 0.9 C 0 km/h
2645 10-01-2021 04:20:00 0.9 C 4.95 g/m*3 0.9 C 0 km/h
2646 10-01-2021 04:25:00 0.9 C 4.95 g/m*3 0.9 C 0 km/h
2647 10-01-2021 04:30:00 0.9 C 4.95 g/m*3 0.9 C 0 km/h
2648 10-01-2021 04:35:00 0.9 C 4.95 g/m*3 0.9 C 0 km/h
2649 10-01-2021 04:40:00 0.8 C 4.91 g/m*3 0.8 C 0 km/h
2650 10-01-2021 04:45:00 0.8 C 4.91 g/m*3 0.8 C 0 km/h
Sensor: Nr:Datum:Temp:Abs-Feuchte:Windchill:Wind:
Aussen-T/F 2651 10-01-2021 04:50:00 0.8 C 4.91 g/m*3 0.8 C 0 km/h
2652 10-01-2021 04:55:00 0.8 C 4.91 g/m*3 0.8 C 0 km/h
2653 10-01-2021 05:00:00 0.7 C 4.88 g/m*3 0.7 C 0 km/h
2654 10-01-2021 05:05:00 0.7 C 4.88 g/m*3 0.7 C 0 km/h
2655 10-01-2021 05:10:00 0.7 C 4.88 g/m*3 0.7 C 0 km/h
2656 10-01-2021 05:15:00 0.7 C 4.88 g/m*3 0.7 C 0 km/h
2657 10-01-2021 05:20:00 0.7 C 4.88 g/m*3 0.7 C 0 km/h
2658 10-01-2021 05:25:00 0.7 C 4.88 g/m*3 0.7 C 0 km/h
2659 10-01-2021 05:30:00 0.7 C 4.88 g/m*3 0.7 C 0 km/h
2660 10-01-2021 05:35:00 0.7 C 4.88 g/m*3 0.7 C 0 km/h
2661 10-01-2021 05:40:00 0.7 C 4.88 g/m*3 0.7 C 0 km/h
2662 10-01-2021 05:45:00 0.7 C 4.88 g/m*3 0.7 C 0 km/h
2663 10-01-2021 05:50:00 0.7 C 4.88 g/m*3 0.7 C 0 km/h
2664 10-01-2021 05:55:00 0.7 C 4.88 g/m*3 0.7 C 0 km/h
2665 10-01-2021 06:00:00 0.7 C 4.88 g/m*3 0.7 C 0 km/h
2666 10-01-2021 06:05:00 0.7 C 4.88 g/m*3 0.7 C 0 km/h
2667 10-01-2021 06:10:00 0.7 C 4.88 g/m*3 0.7 C 0 km/h
2668 10-01-2021 06:15:00 0.7 C 4.88 g/m*3 0.7 C 0 km/h
2669 10-01-2021 06:20:00 0.7 C 4.88 g/m*3 0.7 C 0 km/h
2670 10-01-2021 06:25:00 0.7 C 4.88 g/m*3 0.7 C 0 km/h
2671 10-01-2021 06:30:00 0.7 C 4.88 g/m*3 0.7 C 0 km/h
2672 10-01-2021 06:35:00 0.7 C 4.88 g/m*3 0.7 C 0 km/h
2673 10-01-2021 06:40:00 0.7 C 4.88 g/m*3 0.7 C 0 km/h
2674 10-01-2021 06:45:00 0.7 C 4.88 g/m*3 0.7 C 0 km/h
2675 10-01-2021 06:50:00 0.8 C 4.91 g/m*3 0.8 C 0 km/h
Sensor: Nr:Datum:Temp:Abs-Feuchte:Windchill:Wind:
Aussen-T/F 2676 10-01-2021 06:55:00 0.8 C 4.91 g/m*3 0.8 C 0 km/h
2677 10-01-2021 07:00:00 0.8 C 4.91 g/m*3 0.8 C 0 km/h
2678 10-01-2021 07:05:00 0.8 C 4.91 g/m*3 0.8 C 0 km/h
2679 10-01-2021 07:10:00 0.8 C 4.91 g/m*3 0.8 C 0 km/h
2680 10-01-2021 07:15:00 0.9 C 4.95 g/m*3 0.9 C 0 km/h
2681 10-01-2021 07:20:00 0.9 C 4.95 g/m*3 0.9 C 0 km/h
2682 10-01-2021 07:25:00 0.9 C 4.95 g/m*3 0.9 C 0 km/h
2683 10-01-2021 07:30:00 0.9 C 4.95 g/m*3 0.9 C 0 km/h
2684 10-01-2021 07:35:00 0.9 C 4.95 g/m*3 0.9 C 0 km/h
2685 10-01-2021 07:40:00 0.8 C 4.91 g/m*3 0.8 C 0 km/h
2686 10-01-2021 07:45:00 0.8 C 4.91 g/m*3 0.8 C 0 km/h
2687 10-01-2021 07:50:00 0.8 C 4.91 g/m*3 0.8 C 0 km/h
2688 10-01-2021 07:55:00 0.8 C 4.91 g/m*3 0.8 C 0 km/h
2689 10-01-2021 08:00:00 0.8 C 4.91 g/m*3 0.8 C 0 km/h
2690 10-01-2021 08:05:00 0.7 C 4.88 g/m*3 0.7 C 0 km/h
2691 10-01-2021 08:10:00 0.7 C 4.88 g/m*3 0.7 C 0 km/h
2692 10-01-2021 08:15:00 0.7 C 4.88 g/m*3 0.7 C 0 km/h
2693 10-01-2021 08:20:00 0.7 C 4.88 g/m*3 0.7 C 0 km/h
2694 10-01-2021 08:25:00 0.7 C 4.88 g/m*3 0.7 C 0 km/h
2695 10-01-2021 08:30:00 0.7 C 4.88 g/m*3 0.7 C 0 km/h
2696 10-01-2021 08:35:00 0.7 C 4.88 g/m*3 0.7 C 0 km/h
2697 10-01-2021 08:40:00 0.7 C 4.88 g/m*3 0.7 C 0 km/h
2698 10-01-2021 08:45:00 0.7 C 4.88 g/m*3 0.7 C 0 km/h
2699 10-01-2021 08:50:00 0.7 C 4.88 g/m*3 0.7 C 0 km/h
2700 10-01-2021 08:55:00 0.7 C 4.88 g/m*3 0.7 C 0 km/h
Sensor: Nr:Datum:Temp:Abs-Feuchte:Windchill:Wind:
Aussen-T/F 2701 10-01-2021 09:00:00 0.7 C 4.88 g/m*3 0.7 C 0 km/h
2702 10-01-2021 09:05:00 0.7 C 4.88 g/m*3 0.7 C 0 km/h
2703 10-01-2021 09:10:00 0.7 C 4.88 g/m*3 0.7 C 0 km/h
2704 10-01-2021 09:15:00 0.7 C 4.88 g/m*3 0.7 C 0 km/h
2705 10-01-2021 09:20:00 0.7 C 4.88 g/m*3 0.7 C 0 km/h
2706 10-01-2021 09:25:00 0.8 C 4.91 g/m*3 0.8 C 0 km/h
2707 10-01-2021 09:30:00 0.8 C 4.91 g/m*3 0.8 C 0 km/h
2708 10-01-2021 09:35:00 0.8 C 4.91 g/m*3 0.8 C 0 km/h
2709 10-01-2021 09:40:00 0.8 C 4.91 g/m*3 0.8 C 0 km/h
2710 10-01-2021 09:45:00 0.8 C 4.91 g/m*3 0.8 C 0 km/h
2711 10-01-2021 09:50:00 0.9 C 5 g/m*3 0.9 C 0 km/h
2712 10-01-2021 09:55:00 0.9 C 5 g/m*3 0.9 C 0 km/h
2713 10-01-2021 10:00:00 1 C 5.03 g/m*3 1 C 0 km/h
2714 10-01-2021 10:05:00 1.1 C 5.02 g/m*3 1.1 C 0 km/h
2715 10-01-2021 10:10:00 1.1 C 5.02 g/m*3 1.1 C 0 km/h
2716 10-01-2021 10:15:00 1.2 C 5.05 g/m*3 1.2 C 0 km/h
2717 10-01-2021 10:20:00 1.2 C 5.05 g/m*3 1.2 C 0 km/h
2718 10-01-2021 10:25:00 1.2 C 5.1 g/m*3 1.2 C 0 km/h
2719 10-01-2021 10:30:00 1.3 C 5.14 g/m*3 1.3 C 0 km/h
2720 10-01-2021 10:35:00 1.3 C 5.09 g/m*3 1.3 C 0 km/h
2721 10-01-2021 10:40:00 1.3 C 5.09 g/m*3 1.3 C 0 km/h
2722 10-01-2021 10:45:00 1.4 C 5.12 g/m*3 1.4 C 0 km/h
2723 10-01-2021 10:50:00 1.4 C 5.12 g/m*3 1.4 C 0 km/h
2724 10-01-2021 10:55:00 1.4 C 5.12 g/m*3 1.4 C 0 km/h
2725 10-01-2021 11:00:00 1.4 C 5.12 g/m*3 1.4 C 0 km/h
Sensor: Nr:Datum:Temp:Abs-Feuchte:Windchill:Wind:
Aussen-T/F 2726 10-01-2021 11:05:00 1.6 C 5.19 g/m*3 1.6 C 0 km/h
2727 10-01-2021 11:10:00 1.6 C 5.19 g/m*3 1.6 C 0 km/h
2728 10-01-2021 11:15:00 1.7 C 5.23 g/m*3 1.7 C 0 km/h
2729 10-01-2021 11:20:00 1.7 C 5.23 g/m*3 1.7 C 0 km/h
2730 10-01-2021 11:25:00 1.8 C 5.26 g/m*3 1.8 C 0 km/h
2731 10-01-2021 11:30:00 1.8 C 5.26 g/m*3 1.8 C 0 km/h
2732 10-01-2021 11:35:00 1.9 C 5.24 g/m*3 1.9 C 0 km/h
2733 10-01-2021 11:40:00 1.9 C 5.24 g/m*3 1.9 C 0 km/h
2734 10-01-2021 11:45:00 1.9 C 5.24 g/m*3 0.01 C 6.4 km/h
2735 10-01-2021 11:50:00 1.9 C 5.19 g/m*3 1.9 C 0 km/h
2736 10-01-2021 11:55:00 2.1 C 5.26 g/m*3 2.1 C 3.2 km/h
2737 10-01-2021 12:00:00 2.1 C 5.26 g/m*3 2.1 C 1.6 km/h
2738 10-01-2021 12:05:00 2.1 C 5.2 g/m*3 2.1 C 1.6 km/h
2739 10-01-2021 12:10:00 2.1 C 5.2 g/m*3 2.1 C 0 km/h
2740 10-01-2021 12:15:00 2.2 C 5.18 g/m*3 2.2 C 1.6 km/h
2741 10-01-2021 12:20:00 2.2 C 5.18 g/m*3 2.2 C 1.6 km/h
2742 10-01-2021 12:25:00 2.3 C 5.22 g/m*3 2.3 C 1.6 km/h
2743 10-01-2021 12:30:00 2.3 C 5.22 g/m*3 2.3 C 3.2 km/h
2744 10-01-2021 12:35:00 2.3 C 5.16 g/m*3 2.3 C 0 km/h
2745 10-01-2021 12:40:00 2.4 C 5.2 g/m*3 2.4 C 3.2 km/h
2746 10-01-2021 12:45:00 2.5 C 5.17 g/m*3 2.5 C 1.6 km/h
2747 10-01-2021 12:50:00 2.7 C 5.24 g/m*3 2.7 C 1.6 km/h
2748 10-01-2021 12:55:00 2.7 C 5.24 g/m*3 2.7 C 4.8 km/h
2749 10-01-2021 13:00:00 2.7 C 5.19 g/m*3 2.7 C 1.6 km/h
2750 10-01-2021 13:05:00 2.7 C 5.13 g/m*3 2.7 C 1.6 km/h
Sensor: Nr:Datum:Temp:Abs-Feuchte:Windchill:Wind:
Aussen-T/F 2751 10-01-2021 13:10:00 2.7 C 5.13 g/m*3 2.7 C 1.6 km/h
2752 10-01-2021 13:15:00 2.8 C 5.16 g/m*3 2.8 C 1.6 km/h
2753 10-01-2021 13:20:00 2.8 C 5.1 g/m*3 2.8 C 0 km/h
2754 10-01-2021 13:25:00 2.8 C 5.1 g/m*3 2.8 C 1.6 km/h
2755 10-01-2021 13:30:00 2.9 C 5.14 g/m*3 2.9 C 0 km/h
2756 10-01-2021 13:35:00 2.9 C 5.08 g/m*3 2.9 C 1.6 km/h
2757 10-01-2021 13:40:00 3 C 5.11 g/m*3 3 C 1.6 km/h
2758 10-01-2021 13:45:00 3.1 C 5.09 g/m*3 3.1 C 1.6 km/h
2759 10-01-2021 13:50:00 3.1 C 5.09 g/m*3 3.1 C 1.6 km/h
2760 10-01-2021 13:55:00 3.1 C 5.09 g/m*3 3.1 C 1.6 km/h
2761 10-01-2021 14:00:00 3.1 C 5.09 g/m*3 3.1 C 0 km/h
2762 10-01-2021 14:05:00 3.1 C 5.03 g/m*3 3.1 C 1.6 km/h
2763 10-01-2021 14:10:00 3.2 C 5.06 g/m*3 3.2 C 0 km/h
2764 10-01-2021 14:15:00 3.2 C 5.12 g/m*3 3.2 C 1.6 km/h
2765 10-01-2021 14:20:00 3.2 C 5 g/m*3 3.2 C 3.2 km/h
2766 10-01-2021 14:25:00 3.2 C 4.94 g/m*3 3.2 C 1.6 km/h
2767 10-01-2021 14:30:00 3.2 C 4.94 g/m*3 3.2 C 3.2 km/h
2768 10-01-2021 14:35:00 3.2 C 4.94 g/m*3 3.2 C 0 km/h
2769 10-01-2021 14:40:00 3.3 C 4.97 g/m*3 3.3 C 0 km/h
2770 10-01-2021 14:45:00 3.3 C 4.91 g/m*3 3.3 C 3.2 km/h
2771 10-01-2021 14:50:00 3.3 C 4.91 g/m*3 3.3 C 1.6 km/h
2772 10-01-2021 14:55:00 3.3 C 4.91 g/m*3 3.3 C 1.6 km/h
2773 10-01-2021 15:00:00 3.3 C 4.85 g/m*3 3.3 C 3.2 km/h
2774 10-01-2021 15:05:00 3.3 C 4.85 g/m*3 3.3 C 1.6 km/h
2775 10-01-2021 15:10:00 3.3 C 4.85 g/m*3 3.3 C 0 km/h
Sensor: Nr:Datum:Temp:Abs-Feuchte:Windchill:Wind:
Aussen-T/F 2776 10-01-2021 15:15:00 3.3 C 4.91 g/m*3 3.3 C 0 km/h
2777 10-01-2021 15:20:00 3.3 C 4.85 g/m*3 3.3 C 0 km/h
2778 10-01-2021 15:25:00 3.3 C 4.85 g/m*3 3.3 C 0 km/h
2779 10-01-2021 15:30:00 3.3 C 4.85 g/m*3 3.3 C 0 km/h
2780 10-01-2021 15:35:00 3.3 C 4.85 g/m*3 3.3 C 0 km/h
2781 10-01-2021 15:40:00 3.3 C 4.85 g/m*3 3.3 C 0 km/h
2782 10-01-2021 15:45:00 3.4 C 5.01 g/m*3 3.4 C 0 km/h
2783 10-01-2021 15:50:00 3.4 C 5.01 g/m*3 3.4 C 0 km/h
2784 10-01-2021 15:55:00 3.4 C 5.07 g/m*3 3.4 C 0 km/h
2785 10-01-2021 16:00:00 3.4 C 5.13 g/m*3 3.4 C 0 km/h
2786 10-01-2021 16:05:00 3.3 C 5.1 g/m*3 3.3 C 0 km/h
2787 10-01-2021 16:10:00 3.2 C 5.06 g/m*3 3.2 C 0 km/h
2788 10-01-2021 16:15:00 3.2 C 5.12 g/m*3 3.2 C 0 km/h
2789 10-01-2021 16:20:00 3.1 C 5.09 g/m*3 3.1 C 0 km/h
2790 10-01-2021 16:25:00 2.9 C 5.02 g/m*3 2.9 C 0 km/h
2791 10-01-2021 16:30:00 2.8 C 5.04 g/m*3 2.8 C 0 km/h
2792 10-01-2021 16:35:00 2.7 C 5.01 g/m*3 2.7 C 1.6 km/h
2793 10-01-2021 16:40:00 2.5 C 4.94 g/m*3 2.5 C 1.6 km/h
2794 10-01-2021 16:45:00 2.3 C 4.88 g/m*3 2.3 C 4.8 km/h
2795 10-01-2021 16:50:00 2.2 C 4.84 g/m*3 2.2 C 0 km/h
2796 10-01-2021 16:55:00 2.1 C 4.87 g/m*3 2.1 C 3.2 km/h
2797 10-01-2021 17:00:00 1.9 C 4.8 g/m*3 1.9 C 4.8 km/h
2798 10-01-2021 17:05:00 1.7 C 4.74 g/m*3 1.7 C 3.2 km/h
2799 10-01-2021 17:10:00 1.6 C 4.7 g/m*3 1.6 C 3.2 km/h
2800 10-01-2021 17:15:00 1.3 C 4.61 g/m*3 1.3 C 4.8 km/h
Sensor: Nr:Datum:Temp:Abs-Feuchte:Windchill:Wind:
Aussen-T/F 2801 10-01-2021 17:20:00 1.2 C 4.58 g/m*3 -0.8 C 6.4 km/h
2802 10-01-2021 17:25:00 0.9 C 4.54 g/m*3 0.9 C 3.2 km/h
2803 10-01-2021 17:30:00 0.8 C 4.51 g/m*3 0.8 C 4.8 km/h
2804 10-01-2021 17:35:00 0.6 C 4.49 g/m*3 0.6 C 4.8 km/h
2805 10-01-2021 17:40:00 0.4 C 4.43 g/m*3 0.4 C 3.2 km/h
2806 10-01-2021 17:45:00 0.3 C 4.4 g/m*3 0.3 C 4.8 km/h
2807 10-01-2021 17:50:00 0.2 C 4.42 g/m*3 0.2 C 4.8 km/h
2808 10-01-2021 17:55:00 0.1 C 4.39 g/m*3 0.1 C 3.2 km/h
2809 10-01-2021 18:00:00 -0.1 C 4.33 g/m*3 -0.1 C 3.2 km/h
2810 10-01-2021 18:05:00 -0.2 C 4.3 g/m*3 -0.2 C 3.2 km/h
2811 10-01-2021 18:10:00 -0.2 C 4.3 g/m*3 -0.2 C 0 km/h
2812 10-01-2021 18:15:00 -0.3 C 4.32 g/m*3 -0.3 C 0 km/h
2813 10-01-2021 18:20:00 -0.4 C 4.29 g/m*3 -0.4 C 3.2 km/h
2814 10-01-2021 18:25:00 -0.4 C 4.29 g/m*3 -0.4 C 3.2 km/h
2815 10-01-2021 18:30:00 -0.5 C 4.26 g/m*3 -0.5 C 1.6 km/h
2816 10-01-2021 18:35:00 -0.6 C 4.23 g/m*3 -0.6 C 0 km/h
2817 10-01-2021 18:40:00 -0.6 C 4.28 g/m*3 -0.6 C 0 km/h
2818 10-01-2021 18:45:00 -0.7 C 4.25 g/m*3 -0.7 C 0 km/h
2819 10-01-2021 18:50:00 -0.7 C 4.25 g/m*3 -0.7 C 0 km/h
2820 10-01-2021 18:55:00 -0.8 C 4.22 g/m*3 -0.8 C 0 km/h
2821 10-01-2021 19:00:00 -0.8 C 4.22 g/m*3 -0.8 C 0 km/h
2822 10-01-2021 19:05:00 -0.9 C 4.19 g/m*3 -0.9 C 0 km/h
2823 10-01-2021 19:10:00 -0.9 C 4.23 g/m*3 -0.9 C 0 km/h
2824 10-01-2021 19:15:00 -0.9 C 4.23 g/m*3 -0.9 C 0 km/h
2825 10-01-2021 19:20:00 -0.9 C 4.23 g/m*3 -0.9 C 0 km/h
Sensor: Nr:Datum:Temp:Abs-Feuchte:Windchill:Wind:
Aussen-T/F 2826 10-01-2021 19:25:00 -1 C 4.2 g/m*3 -1 C 0 km/h
2827 10-01-2021 19:30:00 -1.1 C 4.17 g/m*3 -1.1 C 0 km/h
2828 10-01-2021 19:35:00 -1.2 C 4.15 g/m*3 -1.2 C 0 km/h
2829 10-01-2021 19:40:00 -1.2 C 4.15 g/m*3 -1.2 C 0 km/h
2830 10-01-2021 19:45:00 -1.3 C 4.12 g/m*3 -1.3 C 0 km/h
2831 10-01-2021 19:50:00 -1.3 C 4.12 g/m*3 -1.3 C 0 km/h
2832 10-01-2021 19:55:00 -1.4 C 4.09 g/m*3 -1.4 C 0 km/h
2833 10-01-2021 20:00:00 -1.4 C 4.09 g/m*3 -1.4 C 0 km/h
2834 10-01-2021 20:05:00 -1.4 C 4.09 g/m*3 -1.4 C 0 km/h
2835 10-01-2021 20:10:00 -1.5 C 4.06 g/m*3 -1.5 C 0 km/h
2836 10-01-2021 20:15:00 -1.6 C 4.03 g/m*3 -1.6 C 0 km/h
2837 10-01-2021 20:20:00 -1.6 C 4.07 g/m*3 -1.6 C 0 km/h
2838 10-01-2021 20:25:00 -1.7 C 4.05 g/m*3 -1.7 C 0 km/h
2839 10-01-2021 20:30:00 -1.7 C 4.05 g/m*3 -1.7 C 0 km/h
2840 10-01-2021 20:35:00 -1.7 C 4.05 g/m*3 -1.7 C 0 km/h
2841 10-01-2021 20:40:00 -1.8 C 4.02 g/m*3 -1.8 C 0 km/h
2842 10-01-2021 20:45:00 -1.8 C 4.02 g/m*3 -1.8 C 0 km/h
2843 10-01-2021 20:50:00 -1.8 C 4.02 g/m*3 -1.8 C 0 km/h
2844 10-01-2021 20:55:00 -1.9 C 3.99 g/m*3 -1.9 C 0 km/h
2845 10-01-2021 21:00:00 -1.9 C 3.99 g/m*3 -1.9 C 0 km/h
2846 10-01-2021 21:05:00 -2 C 3.96 g/m*3 -2 C 0 km/h
2847 10-01-2021 21:10:00 -2 C 3.96 g/m*3 -2 C 0 km/h
2848 10-01-2021 21:15:00 -2.1 C 3.93 g/m*3 -2.1 C 0 km/h
2849 10-01-2021 21:20:00 -2.1 C 3.93 g/m*3 -2.1 C 0 km/h
2850 10-01-2021 21:25:00 -2.1 C 3.93 g/m*3 -2.1 C 0 km/h
Sensor: Nr:Datum:Temp:Abs-Feuchte:Windchill:Wind:
Aussen-T/F 2851 10-01-2021 21:30:00 -2.1 C 3.93 g/m*3 -2.1 C 0 km/h
2852 10-01-2021 21:35:00 -2.1 C 3.93 g/m*3 -2.1 C 0 km/h
2853 10-01-2021 21:40:00 -2.1 C 3.93 g/m*3 -2.1 C 0 km/h
2854 10-01-2021 21:45:00 -2.1 C 3.93 g/m*3 -2.1 C 0 km/h
2855 10-01-2021 21:50:00 -2.2 C 3.91 g/m*3 -2.2 C 0 km/h
2856 10-01-2021 21:55:00 -2.2 C 3.91 g/m*3 -2.2 C 0 km/h
2857 10-01-2021 22:00:00 -2.3 C 3.92 g/m*3 -2.3 C 0 km/h
2858 10-01-2021 22:05:00 -2.3 C 3.92 g/m*3 -2.3 C 0 km/h
2859 10-01-2021 22:10:00 -2.3 C 3.88 g/m*3 -2.3 C 0 km/h
2860 10-01-2021 22:15:00 -2.3 C 3.92 g/m*3 -2.3 C 0 km/h
2861 10-01-2021 22:20:00 -2.3 C 3.92 g/m*3 -2.3 C 0 km/h
2862 10-01-2021 22:25:00 -2.3 C 3.92 g/m*3 -2.3 C 0 km/h
2863 10-01-2021 22:30:00 -2.3 C 3.92 g/m*3 -2.3 C 0 km/h
2864 10-01-2021 22:35:00 -2.3 C 3.92 g/m*3 -2.3 C 0 km/h
2865 10-01-2021 22:40:00 -2.4 C 3.89 g/m*3 -2.4 C 0 km/h
2866 10-01-2021 22:45:00 -2.4 C 3.89 g/m*3 -2.4 C 0 km/h
2867 10-01-2021 22:50:00 -2.5 C 3.87 g/m*3 -2.5 C 0 km/h
2868 10-01-2021 22:55:00 -2.6 C 3.84 g/m*3 -2.6 C 0 km/h
2869 10-01-2021 23:00:00 -2.6 C 3.84 g/m*3 -2.6 C 0 km/h
2870 10-01-2021 23:05:00 -2.6 C 3.84 g/m*3 -2.6 C 0 km/h
2871 10-01-2021 23:10:00 -2.7 C 3.81 g/m*3 -2.7 C 0 km/h
2872 10-01-2021 23:15:00 -2.7 C 3.81 g/m*3 -2.7 C 0 km/h
2873 10-01-2021 23:20:00 -2.7 C 3.81 g/m*3 -2.7 C 0 km/h
2874 10-01-2021 23:25:00 -2.7 C 3.81 g/m*3 -2.7 C 1.6 km/h
2875 10-01-2021 23:30:00 -2.7 C 3.81 g/m*3 -2.7 C 0 km/h
Sensor: Nr:Datum:Temp:Abs-Feuchte:Windchill:Wind:
Aussen-T/F 2876 10-01-2021 23:35:00 -2.7 C 3.81 g/m*3 -2.7 C 0 km/h
2877 10-01-2021 23:40:00 -2.7 C 3.81 g/m*3 -2.7 C 0 km/h
2878 10-01-2021 23:45:00 -2.7 C 3.81 g/m*3 -2.7 C 0 km/h
2879 10-01-2021 23:50:00 -2.8 C 3.78 g/m*3 -2.8 C 0 km/h
2880 10-01-2021 23:55:00 -2.9 C 3.76 g/m*3 -2.9 C 0 km/h
2881 11-01-2021 00:00:00 -2.9 C 3.76 g/m*3 -2.9 C 0 km/h
2882 11-01-2021 00:05:00 -3 C 3.73 g/m*3 -3 C 0 km/h
2883 11-01-2021 00:10:00 -3 C 3.73 g/m*3 -3 C 1.6 km/h
2884 11-01-2021 00:15:00 -3 C 3.73 g/m*3 -3 C 0 km/h
2885 11-01-2021 00:20:00 -3 C 3.73 g/m*3 -3 C 0 km/h
2886 11-01-2021 00:25:00 -3 C 3.73 g/m*3 -3 C 0 km/h
2887 11-01-2021 00:30:00 -3 C 3.73 g/m*3 -3 C 0 km/h
2888 11-01-2021 00:35:00 -2.9 C 3.76 g/m*3 -2.9 C 0 km/h
2889 11-01-2021 00:40:00 -2.9 C 3.76 g/m*3 -2.9 C 0 km/h
2890 11-01-2021 00:45:00 -2.9 C 3.76 g/m*3 -2.9 C 0 km/h
2891 11-01-2021 00:50:00 -3 C 3.73 g/m*3 -3 C 0 km/h
2892 11-01-2021 00:55:00 -3.1 C 3.71 g/m*3 -3.1 C 0 km/h
2893 11-01-2021 01:00:00 -3.2 C 3.68 g/m*3 -3.2 C 0 km/h
2894 11-01-2021 01:05:00 -3.2 C 3.68 g/m*3 -3.2 C 0 km/h
2895 11-01-2021 01:10:00 -3.2 C 3.68 g/m*3 -3.2 C 0 km/h
2896 11-01-2021 01:15:00 -3.3 C 3.65 g/m*3 -3.3 C 0 km/h
2897 11-01-2021 01:20:00 -3.3 C 3.65 g/m*3 -3.3 C 0 km/h
2898 11-01-2021 01:25:00 -3.3 C 3.65 g/m*3 -3.3 C 1.6 km/h
2899 11-01-2021 01:30:00 -3.4 C 3.63 g/m*3 -3.4 C 0 km/h
2900 11-01-2021 01:35:00 -3.4 C 3.63 g/m*3 -3.4 C 0 km/h
Sensor: Nr:Datum:Temp:Abs-Feuchte:Windchill:Wind:
Aussen-T/F 2901 11-01-2021 01:40:00 -3.4 C 3.63 g/m*3 -3.4 C 0 km/h
2902 11-01-2021 01:45:00 -3.4 C 3.63 g/m*3 -3.4 C 0 km/h
2903 11-01-2021 01:50:00 -3.3 C 3.65 g/m*3 -3.3 C 0 km/h
2904 11-01-2021 01:55:00 -3.3 C 3.65 g/m*3 -3.3 C 0 km/h
2905 11-01-2021 02:00:00 -3.2 C 3.68 g/m*3 -3.2 C 0 km/h
2906 11-01-2021 02:05:00 -3.2 C 3.68 g/m*3 -3.2 C 0 km/h
2907 11-01-2021 02:10:00 -3.1 C 3.74 g/m*3 -3.1 C 0 km/h
2908 11-01-2021 02:15:00 -3 C 3.77 g/m*3 -3 C 0 km/h
2909 11-01-2021 02:20:00 -2.9 C 3.8 g/m*3 -2.9 C 0 km/h
2910 11-01-2021 02:25:00 -2.9 C 3.8 g/m*3 -2.9 C 0 km/h
2911 11-01-2021 02:30:00 -2.8 C 3.82 g/m*3 -2.8 C 0 km/h
2912 11-01-2021 02:35:00 -2.8 C 3.82 g/m*3 -2.8 C 0 km/h
2913 11-01-2021 02:40:00 -2.8 C 3.82 g/m*3 -2.8 C 0 km/h
2914 11-01-2021 02:45:00 -2.8 C 3.78 g/m*3 -2.8 C 0 km/h
2915 11-01-2021 02:50:00 -2.9 C 3.76 g/m*3 -2.9 C 1.6 km/h
2916 11-01-2021 02:55:00 -2.9 C 3.76 g/m*3 -2.9 C 0 km/h
2917 11-01-2021 03:00:00 -3.1 C 3.71 g/m*3 -3.1 C 0 km/h
2918 11-01-2021 03:05:00 -3.1 C 3.71 g/m*3 -3.1 C 0 km/h
2919 11-01-2021 03:10:00 -3.2 C 3.68 g/m*3 -3.2 C 0 km/h
2920 11-01-2021 03:15:00 -3.2 C 3.68 g/m*3 -3.2 C 0 km/h
2921 11-01-2021 03:20:00 -3.3 C 3.65 g/m*3 -3.3 C 0 km/h
2922 11-01-2021 03:25:00 -3.4 C 3.63 g/m*3 -3.4 C 0 km/h
2923 11-01-2021 03:30:00 -3.4 C 3.63 g/m*3 -3.4 C 0 km/h
2924 11-01-2021 03:35:00 -3.4 C 3.63 g/m*3 -3.4 C 0 km/h
2925 11-01-2021 03:40:00 -3.4 C 3.63 g/m*3 -3.4 C 0 km/h
Sensor: Nr:Datum:Temp:Abs-Feuchte:Windchill:Wind:
Aussen-T/F 2926 11-01-2021 03:45:00 -3.4 C 3.63 g/m*3 -3.4 C 0 km/h
2927 11-01-2021 03:50:00 -3.4 C 3.63 g/m*3 -3.4 C 0 km/h
2928 11-01-2021 03:55:00 -3.4 C 3.63 g/m*3 -3.4 C 0 km/h
2929 11-01-2021 04:00:00 -3.4 C 3.63 g/m*3 -3.4 C 0 km/h
2930 11-01-2021 04:05:00 -3.4 C 3.63 g/m*3 -3.4 C 0 km/h
2931 11-01-2021 04:10:00 -3.5 C 3.6 g/m*3 -3.5 C 0 km/h
2932 11-01-2021 04:15:00 -3.6 C 3.58 g/m*3 -3.6 C 0 km/h
2933 11-01-2021 04:20:00 -3.6 C 3.58 g/m*3 -3.6 C 0 km/h
2934 11-01-2021 04:25:00 -3.6 C 3.58 g/m*3 -3.6 C 0 km/h
2935 11-01-2021 04:30:00 -3.6 C 3.58 g/m*3 -3.6 C 0 km/h
2936 11-01-2021 04:35:00 -3.6 C 3.58 g/m*3 -3.6 C 0 km/h
2937 11-01-2021 04:40:00 -3.7 C 3.55 g/m*3 -3.7 C 0 km/h
2938 11-01-2021 04:45:00 -3.7 C 3.55 g/m*3 -3.7 C 0 km/h
2939 11-01-2021 04:50:00 -3.7 C 3.55 g/m*3 -3.7 C 0 km/h
2940 11-01-2021 04:55:00 -3.7 C 3.55 g/m*3 -3.7 C 0 km/h
2941 11-01-2021 05:00:00 -3.7 C 3.55 g/m*3 -3.7 C 0 km/h
2942 11-01-2021 05:05:00 -3.7 C 3.55 g/m*3 -3.7 C 0 km/h
2943 11-01-2021 05:10:00 -3.8 C 3.53 g/m*3 -3.8 C 0 km/h
2944 11-01-2021 05:15:00 -3.8 C 3.53 g/m*3 -3.8 C 0 km/h
2945 11-01-2021 05:20:00 -3.8 C 3.53 g/m*3 -3.8 C 0 km/h
2946 11-01-2021 05:25:00 -3.8 C 3.53 g/m*3 -3.8 C 0 km/h
2947 11-01-2021 05:30:00 -3.9 C 3.5 g/m*3 -3.9 C 0 km/h
2948 11-01-2021 05:35:00 -3.9 C 3.5 g/m*3 -3.9 C 0 km/h
2949 11-01-2021 05:40:00 -4 C 3.48 g/m*3 -4 C 0 km/h
2950 11-01-2021 05:45:00 -4 C 3.48 g/m*3 -4 C 0 km/h
Sensor: Nr:Datum:Temp:Abs-Feuchte:Windchill:Wind:
Aussen-T/F 2951 11-01-2021 05:50:00 -4 C 3.48 g/m*3 -4 C 0 km/h
2952 11-01-2021 05:55:00 -4 C 3.48 g/m*3 -4 C 0 km/h
2953 11-01-2021 06:00:00 -4 C 3.48 g/m*3 -4 C 0 km/h
2954 11-01-2021 06:05:00 -4.1 C 3.45 g/m*3 -4.1 C 0 km/h
2955 11-01-2021 06:10:00 -4.1 C 3.45 g/m*3 -4.1 C 0 km/h
2956 11-01-2021 06:15:00 -4.1 C 3.45 g/m*3 -4.1 C 0 km/h
2957 11-01-2021 06:20:00 -4.2 C 3.43 g/m*3 -4.2 C 0 km/h
2958 11-01-2021 06:25:00 -4.2 C 3.43 g/m*3 -4.2 C 0 km/h
2959 11-01-2021 06:30:00 -4.2 C 3.43 g/m*3 -4.2 C 0 km/h
2960 11-01-2021 06:35:00 -4.2 C 3.43 g/m*3 -4.2 C 0 km/h
2961 11-01-2021 06:40:00 -4.2 C 3.46 g/m*3 -4.2 C 0 km/h
2962 11-01-2021 06:45:00 -4.1 C 3.49 g/m*3 -4.1 C 0 km/h
2963 11-01-2021 06:50:00 -4.1 C 3.49 g/m*3 -4.1 C 0 km/h
2964 11-01-2021 06:55:00 -4 C 3.51 g/m*3 -4 C 0 km/h
2965 11-01-2021 07:00:00 -4.1 C 3.49 g/m*3 -4.1 C 0 km/h
2966 11-01-2021 07:05:00 -4.1 C 3.49 g/m*3 -4.1 C 0 km/h
2967 11-01-2021 07:10:00 -4 C 3.51 g/m*3 -4 C 0 km/h
2968 11-01-2021 07:15:00 -3.9 C 3.54 g/m*3 -3.9 C 0 km/h
2969 11-01-2021 07:20:00 -3.9 C 3.54 g/m*3 -3.9 C 0 km/h
2970 11-01-2021 07:25:00 -3.9 C 3.54 g/m*3 -3.9 C 0 km/h
2971 11-01-2021 07:30:00 -3.9 C 3.54 g/m*3 -3.9 C 0 km/h
2972 11-01-2021 07:35:00 -3.9 C 3.54 g/m*3 -3.9 C 1.6 km/h
2973 11-01-2021 07:40:00 -3.9 C 3.54 g/m*3 -3.9 C 0 km/h
2974 11-01-2021 07:45:00 -3.9 C 3.54 g/m*3 -3.9 C 0 km/h
2975 11-01-2021 07:50:00 -3.8 C 3.56 g/m*3 -3.8 C 4.8 km/h
Sensor: Nr:Datum:Temp:Abs-Feuchte:Windchill:Wind:
Aussen-T/F 2976 11-01-2021 07:55:00 -3.8 C 3.56 g/m*3 -3.8 C 1.6 km/h
2977 11-01-2021 08:00:00 -3.7 C 3.59 g/m*3 -3.7 C 3.2 km/h
2978 11-01-2021 08:05:00 -3.6 C 3.61 g/m*3 -3.6 C 1.6 km/h
2979 11-01-2021 08:10:00 -3.5 C 3.64 g/m*3 -3.5 C 3.2 km/h
2980 11-01-2021 08:15:00 -3.4 C 3.67 g/m*3 -3.4 C 4.8 km/h
2981 11-01-2021 08:20:00 -3.3 C 3.69 g/m*3 -3.3 C 1.6 km/h
2982 11-01-2021 08:25:00 -3.3 C 3.69 g/m*3 -3.3 C 0 km/h
2983 11-01-2021 08:30:00 -3.3 C 3.69 g/m*3 -3.3 C 0 km/h
2984 11-01-2021 08:35:00 -3.3 C 3.69 g/m*3 -3.3 C 0 km/h
2985 11-01-2021 08:40:00 -3.3 C 3.69 g/m*3 -3.3 C 0 km/h
2986 11-01-2021 08:45:00 -3.3 C 3.69 g/m*3 -3.3 C 0 km/h
2987 11-01-2021 08:50:00 -3.2 C 3.72 g/m*3 -3.2 C 0 km/h
2988 11-01-2021 08:55:00 -3.2 C 3.72 g/m*3 -3.2 C 0 km/h
2989 11-01-2021 09:00:00 -3.1 C 3.74 g/m*3 -3.1 C 0 km/h
2990 11-01-2021 09:05:00 -2.9 C 3.8 g/m*3 -2.9 C 3.2 km/h
2991 11-01-2021 09:10:00 -2.9 C 3.8 g/m*3 -2.9 C 0 km/h
2992 11-01-2021 09:15:00 -2.8 C 3.82 g/m*3 -2.8 C 4.8 km/h
2993 11-01-2021 09:20:00 -2.7 C 3.85 g/m*3 -2.7 C 0 km/h
2994 11-01-2021 09:25:00 -2.6 C 3.88 g/m*3 -2.6 C 1.6 km/h
2995 11-01-2021 09:30:00 -2.6 C 3.88 g/m*3 -2.6 C 0 km/h
2996 11-01-2021 09:35:00 -2.5 C 3.91 g/m*3 -2.5 C 1.6 km/h
2997 11-01-2021 09:40:00 -2.4 C 3.93 g/m*3 -2.4 C 0 km/h
2998 11-01-2021 09:45:00 -2.3 C 3.96 g/m*3 -2.3 C 0 km/h
2999 11-01-2021 09:50:00 -2.2 C 3.99 g/m*3 -2.2 C 0 km/h
3000 11-01-2021 09:55:00 -2.2 C 3.99 g/m*3 -2.2 C 0 km/h
Sensor: Nr:Datum:Temp:Abs-Feuchte:Windchill:Wind:
Aussen-T/F 3001 11-01-2021 10:00:00 -2.1 C 3.98 g/m*3 -2.1 C 0 km/h
3002 11-01-2021 10:05:00 -1.9 C 4.03 g/m*3 -1.9 C 0 km/h
3003 11-01-2021 10:10:00 -1.8 C 4.1 g/m*3 -4.26 C 6.4 km/h
3004 11-01-2021 10:15:00 -1.6 C 4.16 g/m*3 -4.03 C 6.4 km/h
3005 11-01-2021 10:20:00 -1.5 C 4.15 g/m*3 -1.5 C 4.8 km/h
3006 11-01-2021 10:25:00 -1.3 C 4.21 g/m*3 -1.3 C 3.2 km/h
3007 11-01-2021 10:30:00 -1.3 C 4.21 g/m*3 -3.68 C 6.4 km/h
3008 11-01-2021 10:35:00 -1.2 C 4.19 g/m*3 -3.57 C 6.4 km/h
3009 11-01-2021 10:40:00 -1 C 4.25 g/m*3 -3.34 C 6.4 km/h
3010 11-01-2021 10:45:00 -0.8 C 4.31 g/m*3 -0.8 C 4.8 km/h
3011 11-01-2021 10:50:00 -0.7 C 4.29 g/m*3 -4.07 C 9.7 km/h
3012 11-01-2021 10:55:00 -0.5 C 4.31 g/m*3 -3.83 C 9.7 km/h
3013 11-01-2021 11:00:00 -0.3 C 4.37 g/m*3 -2.53 C 6.4 km/h
3014 11-01-2021 11:05:00 -0.2 C 4.35 g/m*3 -3 C 8.1 km/h
3015 11-01-2021 11:10:00 -0.1 C 4.38 g/m*3 -2.3 C 6.4 km/h
3016 11-01-2021 11:15:00 0 C 4.36 g/m*3 -2.18 C 6.4 km/h
3017 11-01-2021 11:20:00 0.1 C 4.34 g/m*3 -2.65 C 8.1 km/h
3018 11-01-2021 11:25:00 0.1 C 4.34 g/m*3 -2.07 C 6.4 km/h
3019 11-01-2021 11:30:00 0.1 C 4.29 g/m*3 -2.07 C 6.4 km/h
3020 11-01-2021 11:35:00 0.2 C 4.32 g/m*3 0.2 C 4.8 km/h
3021 11-01-2021 11:40:00 0.2 C 4.32 g/m*3 -3.4 C 11.3 km/h
3022 11-01-2021 11:45:00 0.2 C 4.27 g/m*3 -3.4 C 11.3 km/h
3023 11-01-2021 11:50:00 0.3 C 4.25 g/m*3 -2.88 C 9.7 km/h
3024 11-01-2021 11:55:00 0.4 C 4.28 g/m*3 -3.16 C 11.3 km/h
3025 11-01-2021 12:00:00 0.4 C 4.28 g/m*3 -1.72 C 6.4 km/h
Sensor: Nr:Datum:Temp:Abs-Feuchte:Windchill:Wind:
Aussen-T/F 3026 11-01-2021 12:05:00 0.6 C 4.34 g/m*3 -3.27 C 12.9 km/h
3027 11-01-2021 12:10:00 0.6 C 4.29 g/m*3 -2.92 C 11.3 km/h
3028 11-01-2021 12:15:00 0.7 C 4.32 g/m*3 -2.8 C 11.3 km/h
3029 11-01-2021 12:20:00 0.8 C 4.35 g/m*3 -2.28 C 9.7 km/h
3030 11-01-2021 12:25:00 1 C 4.36 g/m*3 -2.43 C 11.3 km/h
3031 11-01-2021 12:30:00 1.1 C 4.39 g/m*3 -1.48 C 8.1 km/h
3032 11-01-2021 12:35:00 1.2 C 4.31 g/m*3 -3.63 C 19.3 km/h
3033 11-01-2021 12:40:00 1.3 C 4.4 g/m*3 -1.24 C 8.1 km/h
3034 11-01-2021 12:45:00 1.4 C 4.37 g/m*3 -2.29 C 12.9 km/h
3035 11-01-2021 12:50:00 1.5 C 4.4 g/m*3 -0.45 C 6.4 km/h
3036 11-01-2021 12:55:00 1.6 C 4.38 g/m*3 -2.05 C 12.9 km/h
3037 11-01-2021 13:00:00 1.6 C 4.38 g/m*3 -1.71 C 11.3 km/h
3038 11-01-2021 13:05:00 1.6 C 4.38 g/m*3 -0.89 C 8.1 km/h
3039 11-01-2021 13:10:00 1.6 C 4.38 g/m*3 -0.33 C 6.4 km/h
3040 11-01-2021 13:15:00 1.7 C 4.41 g/m*3 -1.59 C 11.3 km/h
3041 11-01-2021 13:20:00 1.7 C 4.41 g/m*3 -0.22 C 6.4 km/h
3042 11-01-2021 13:25:00 1.8 C 4.44 g/m*3 -1.09 C 9.7 km/h
3043 11-01-2021 13:30:00 1.9 C 4.47 g/m*3 -1.35 C 11.3 km/h
3044 11-01-2021 13:35:00 1.9 C 4.47 g/m*3 -1.35 C 11.3 km/h
3045 11-01-2021 13:40:00 1.9 C 4.42 g/m*3 -1.98 C 14.5 km/h
3046 11-01-2021 13:45:00 2 C 4.45 g/m*3 -1.86 C 14.5 km/h
3047 11-01-2021 13:50:00 2.1 C 4.48 g/m*3 -0.73 C 9.7 km/h
3048 11-01-2021 13:55:00 2.1 C 4.48 g/m*3 -0.73 C 9.7 km/h
3049 11-01-2021 14:00:00 2.2 C 4.51 g/m*3 -0.61 C 9.7 km/h
3050 11-01-2021 14:05:00 2.2 C 4.51 g/m*3 -0.61 C 9.7 km/h
Sensor: Nr:Datum:Temp:Abs-Feuchte:Windchill:Wind:
Aussen-T/F 3051 11-01-2021 14:10:00 2.2 C 4.51 g/m*3 0.36 C 6.4 km/h
3052 11-01-2021 14:15:00 2.2 C 4.51 g/m*3 0.36 C 6.4 km/h
3053 11-01-2021 14:20:00 2.3 C 4.54 g/m*3 -0.49 C 9.7 km/h
3054 11-01-2021 14:25:00 2.3 C 4.59 g/m*3 -0.07 C 8.1 km/h
3055 11-01-2021 14:30:00 2.3 C 4.59 g/m*3 -0.49 C 9.7 km/h
3056 11-01-2021 14:35:00 2.3 C 4.54 g/m*3 -0.07 C 8.1 km/h
3057 11-01-2021 14:40:00 2.3 C 4.54 g/m*3 2.3 C 4.8 km/h
3058 11-01-2021 14:45:00 2.3 C 4.59 g/m*3 2.3 C 4.8 km/h
3059 11-01-2021 14:50:00 2.3 C 4.59 g/m*3 2.3 C 4.8 km/h
3060 11-01-2021 14:55:00 2.3 C 4.59 g/m*3 -0.07 C 8.1 km/h
3061 11-01-2021 15:00:00 2.3 C 4.59 g/m*3 0.47 C 6.4 km/h
3062 11-01-2021 15:05:00 2.3 C 4.59 g/m*3 2.3 C 4.8 km/h
3063 11-01-2021 15:10:00 2.3 C 4.65 g/m*3 2.3 C 0 km/h
3064 11-01-2021 15:15:00 2.4 C 4.68 g/m*3 2.4 C 0 km/h
3065 11-01-2021 15:20:00 2.4 C 4.68 g/m*3 2.4 C 0 km/h
3066 11-01-2021 15:25:00 2.4 C 4.68 g/m*3 -0.37 C 9.7 km/h
3067 11-01-2021 15:30:00 2.4 C 4.68 g/m*3 2.4 C 4.8 km/h
3068 11-01-2021 15:35:00 2.4 C 4.68 g/m*3 2.4 C 4.8 km/h
3069 11-01-2021 15:40:00 2.4 C 4.68 g/m*3 2.4 C 1.6 km/h
3070 11-01-2021 15:45:00 2.4 C 4.74 g/m*3 2.4 C 3.2 km/h
3071 11-01-2021 15:50:00 2.4 C 4.74 g/m*3 0.59 C 6.4 km/h
3072 11-01-2021 15:55:00 2.4 C 4.8 g/m*3 2.4 C 3.2 km/h
3073 11-01-2021 16:00:00 2.5 C 4.83 g/m*3 2.5 C 0 km/h
3074 11-01-2021 16:05:00 2.5 C 4.83 g/m*3 2.5 C 0 km/h
3075 11-01-2021 16:10:00 2.4 C 4.8 g/m*3 2.4 C 0 km/h
Sensor: Nr:Datum:Temp:Abs-Feuchte:Windchill:Wind:
Aussen-T/F 3076 11-01-2021 16:15:00 2.4 C 4.85 g/m*3 2.4 C 1.6 km/h
3077 11-01-2021 16:20:00 2.4 C 4.85 g/m*3 2.4 C 0 km/h
3078 11-01-2021 16:25:00 2.4 C 4.85 g/m*3 2.4 C 0 km/h
3079 11-01-2021 16:30:00 2.3 C 4.88 g/m*3 2.3 C 1.6 km/h
3080 11-01-2021 16:35:00 2.3 C 4.88 g/m*3 2.3 C 0 km/h
3081 11-01-2021 16:40:00 2.3 C 4.88 g/m*3 2.3 C 1.6 km/h
3082 11-01-2021 16:45:00 2.2 C 4.9 g/m*3 2.2 C 1.6 km/h
3083 11-01-2021 16:50:00 2.2 C 4.9 g/m*3 2.2 C 0 km/h
3084 11-01-2021 16:55:00 2.1 C 4.87 g/m*3 2.1 C 0 km/h
3085 11-01-2021 17:00:00 2 C 4.83 g/m*3 2 C 3.2 km/h
3086 11-01-2021 17:05:00 1.9 C 4.86 g/m*3 1.9 C 3.2 km/h
3087 11-01-2021 17:10:00 1.9 C 4.86 g/m*3 1.9 C 0 km/h
3088 11-01-2021 17:15:00 1.8 C 4.82 g/m*3 1.8 C 3.2 km/h
3089 11-01-2021 17:20:00 1.8 C 4.82 g/m*3 1.8 C 3.2 km/h
3090 11-01-2021 17:25:00 1.8 C 4.88 g/m*3 1.8 C 1.6 km/h
3091 11-01-2021 17:30:00 1.8 C 4.88 g/m*3 1.8 C 3.2 km/h
3092 11-01-2021 17:35:00 1.7 C 4.85 g/m*3 1.7 C 1.6 km/h
3093 11-01-2021 17:40:00 1.7 C 4.85 g/m*3 1.7 C 0 km/h
3094 11-01-2021 17:45:00 1.7 C 4.85 g/m*3 1.7 C 1.6 km/h
3095 11-01-2021 17:50:00 1.7 C 4.85 g/m*3 1.7 C 3.2 km/h
3096 11-01-2021 17:55:00 1.7 C 4.85 g/m*3 1.7 C 0 km/h
3097 11-01-2021 18:00:00 1.6 C 4.81 g/m*3 1.6 C 0 km/h
3098 11-01-2021 18:05:00 1.6 C 4.81 g/m*3 1.6 C 0 km/h
3099 11-01-2021 18:10:00 1.6 C 4.81 g/m*3 1.6 C 4.8 km/h
3100 11-01-2021 18:15:00 1.6 C 4.76 g/m*3 1.6 C 0 km/h
Sensor: Nr:Datum:Temp:Abs-Feuchte:Windchill:Wind:
Aussen-T/F 3101 11-01-2021 18:20:00 1.7 C 4.79 g/m*3 1.7 C 1.6 km/h
3102 11-01-2021 18:25:00 1.7 C 4.79 g/m*3 1.7 C 0 km/h
3103 11-01-2021 18:30:00 1.7 C 4.85 g/m*3 1.7 C 1.6 km/h
3104 11-01-2021 18:35:00 1.7 C 4.85 g/m*3 1.7 C 3.2 km/h
3105 11-01-2021 18:40:00 1.7 C 4.85 g/m*3 1.7 C 3.2 km/h
3106 11-01-2021 18:45:00 1.7 C 4.85 g/m*3 1.7 C 1.6 km/h
3107 11-01-2021 18:50:00 1.7 C 4.85 g/m*3 -0.22 C 6.4 km/h
3108 11-01-2021 18:55:00 1.7 C 4.85 g/m*3 1.7 C 0 km/h
3109 11-01-2021 19:00:00 1.7 C 4.79 g/m*3 1.7 C 0 km/h
3110 11-01-2021 19:05:00 1.7 C 4.79 g/m*3 1.7 C 0 km/h
3111 11-01-2021 19:10:00 1.7 C 4.85 g/m*3 1.7 C 1.6 km/h
3112 11-01-2021 19:15:00 1.7 C 4.79 g/m*3 1.7 C 3.2 km/h
3113 11-01-2021 19:20:00 1.8 C 4.82 g/m*3 1.8 C 3.2 km/h
3114 11-01-2021 19:25:00 1.8 C 4.82 g/m*3 -0.1 C 6.4 km/h
3115 11-01-2021 19:30:00 1.8 C 4.82 g/m*3 1.8 C 4.8 km/h
3116 11-01-2021 19:35:00 1.8 C 4.82 g/m*3 1.8 C 3.2 km/h
3117 11-01-2021 19:40:00 1.8 C 4.82 g/m*3 1.8 C 1.6 km/h
3118 11-01-2021 19:45:00 1.8 C 4.82 g/m*3 -0.65 C 8.1 km/h
3119 11-01-2021 19:50:00 1.8 C 4.82 g/m*3 1.8 C 3.2 km/h
3120 11-01-2021 19:55:00 1.8 C 4.82 g/m*3 1.8 C 4.8 km/h
3121 11-01-2021 20:00:00 1.8 C 4.82 g/m*3 -0.1 C 6.4 km/h
3122 11-01-2021 20:05:00 1.9 C 4.86 g/m*3 -0.54 C 8.1 km/h
3123 11-01-2021 20:10:00 1.9 C 4.86 g/m*3 1.9 C 0 km/h
3124 11-01-2021 20:15:00 1.9 C 4.86 g/m*3 1.9 C 4.8 km/h
3125 11-01-2021 20:20:00 1.9 C 4.86 g/m*3 0.01 C 6.4 km/h
Sensor: Nr:Datum:Temp:Abs-Feuchte:Windchill:Wind:
Aussen-T/F 3126 11-01-2021 20:25:00 2 C 4.83 g/m*3 2 C 1.6 km/h
3127 11-01-2021 20:30:00 2 C 4.83 g/m*3 2 C 1.6 km/h
3128 11-01-2021 20:35:00 2.1 C 4.92 g/m*3 0.24 C 6.4 km/h
3129 11-01-2021 20:40:00 2.1 C 4.92 g/m*3 2.1 C 1.6 km/h
3130 11-01-2021 20:45:00 2.1 C 4.92 g/m*3 2.1 C 3.2 km/h
3131 11-01-2021 20:50:00 2.1 C 4.92 g/m*3 2.1 C 3.2 km/h
3132 11-01-2021 20:55:00 2.2 C 4.96 g/m*3 0.36 C 6.4 km/h
3133 11-01-2021 21:00:00 2.2 C 4.9 g/m*3 2.2 C 3.2 km/h
3134 11-01-2021 21:05:00 2.2 C 4.9 g/m*3 0.36 C 6.4 km/h
3135 11-01-2021 21:10:00 2.2 C 4.9 g/m*3 0.36 C 6.4 km/h
3136 11-01-2021 21:15:00 2.3 C 4.93 g/m*3 -0.07 C 8.1 km/h
3137 11-01-2021 21:20:00 2.3 C 4.93 g/m*3 2.3 C 4.8 km/h
3138 11-01-2021 21:25:00 2.3 C 4.93 g/m*3 -0.07 C 8.1 km/h
3139 11-01-2021 21:30:00 2.4 C 4.91 g/m*3 0.05 C 8.1 km/h
3140 11-01-2021 21:35:00 2.4 C 4.91 g/m*3 2.4 C 1.6 km/h
3141 11-01-2021 21:40:00 2.4 C 4.91 g/m*3 2.4 C 1.6 km/h
3142 11-01-2021 21:45:00 2.4 C 4.97 g/m*3 0.59 C 6.4 km/h
3143 11-01-2021 21:50:00 2.4 C 4.97 g/m*3 2.4 C 4.8 km/h
3144 11-01-2021 21:55:00 2.4 C 4.97 g/m*3 2.4 C 4.8 km/h
3145 11-01-2021 22:00:00 2.4 C 4.97 g/m*3 2.4 C 1.6 km/h
3146 11-01-2021 22:05:00 2.4 C 4.97 g/m*3 2.4 C 3.2 km/h
3147 11-01-2021 22:10:00 2.4 C 4.97 g/m*3 2.4 C 3.2 km/h
3148 11-01-2021 22:15:00 2.4 C 4.97 g/m*3 2.4 C 0 km/h
3149 11-01-2021 22:20:00 2.4 C 4.97 g/m*3 2.4 C 3.2 km/h
3150 11-01-2021 22:25:00 2.4 C 4.97 g/m*3 2.4 C 3.2 km/h
Sensor: Nr:Datum:Temp:Abs-Feuchte:Windchill:Wind:
Aussen-T/F 3151 11-01-2021 22:30:00 2.4 C 5.02 g/m*3 0.59 C 6.4 km/h
3152 11-01-2021 22:35:00 2.5 C 5.06 g/m*3 2.5 C 4.8 km/h
3153 11-01-2021 22:40:00 2.6 C 5.03 g/m*3 0.29 C 8.1 km/h
3154 11-01-2021 22:45:00 2.6 C 5.03 g/m*3 -0.83 C 12.9 km/h
3155 11-01-2021 22:50:00 2.7 C 5.07 g/m*3 -1 C 14.5 km/h
3156 11-01-2021 22:55:00 2.7 C 5.07 g/m*3 -1 C 14.5 km/h
3157 11-01-2021 23:00:00 2.8 C 5.1 g/m*3 -1.61 C 19.3 km/h
3158 11-01-2021 23:05:00 2.8 C 5.1 g/m*3 -0.59 C 12.9 km/h
3159 11-01-2021 23:10:00 2.8 C 5.1 g/m*3 -0.26 C 11.3 km/h
3160 11-01-2021 23:15:00 2.8 C 5.1 g/m*3 0.1 C 9.7 km/h
3161 11-01-2021 23:20:00 2.8 C 5.1 g/m*3 0.1 C 9.7 km/h
3162 11-01-2021 23:25:00 2.8 C 5.1 g/m*3 0.52 C 8.1 km/h
3163 11-01-2021 23:30:00 2.8 C 5.1 g/m*3 0.1 C 9.7 km/h
3164 11-01-2021 23:35:00 2.8 C 5.1 g/m*3 2.8 C 4.8 km/h
3165 11-01-2021 23:40:00 2.8 C 5.1 g/m*3 0.1 C 9.7 km/h
3166 11-01-2021 23:45:00 2.8 C 5.1 g/m*3 0.1 C 9.7 km/h
3167 11-01-2021 23:50:00 2.8 C 5.1 g/m*3 2.8 C 4.8 km/h
3168 11-01-2021 23:55:00 2.8 C 5.16 g/m*3 0.52 C 8.1 km/h
3169 12-01-2021 00:00:00 2.8 C 5.16 g/m*3 0.1 C 9.7 km/h
3170 12-01-2021 00:05:00 2.8 C 5.16 g/m*3 2.8 C 3.2 km/h
3171 12-01-2021 00:10:00 2.8 C 5.16 g/m*3 0.52 C 8.1 km/h
3172 12-01-2021 00:15:00 2.8 C 5.16 g/m*3 -0.26 C 11.3 km/h
3173 12-01-2021 00:20:00 2.9 C 5.2 g/m*3 -0.14 C 11.3 km/h
3174 12-01-2021 00:25:00 2.9 C 5.2 g/m*3 -0.14 C 11.3 km/h
3175 12-01-2021 00:30:00 3.1 C 5.27 g/m*3 -0.22 C 12.9 km/h
Sensor: Nr:Datum:Temp:Abs-Feuchte:Windchill:Wind:
Aussen-T/F 3176 12-01-2021 00:35:00 3.1 C 5.27 g/m*3 0.1 C 11.3 km/h
3177 12-01-2021 00:40:00 3.2 C 5.3 g/m*3 -0.89 C 17.7 km/h
3178 12-01-2021 00:45:00 3.2 C 5.3 g/m*3 -0.39 C 14.5 km/h
3179 12-01-2021 00:50:00 3.2 C 5.3 g/m*3 -0.89 C 17.7 km/h
3180 12-01-2021 00:55:00 3.2 C 5.36 g/m*3 -1.11 C 19.3 km/h
3181 12-01-2021 01:00:00 3.2 C 5.3 g/m*3 -1.11 C 19.3 km/h
3182 12-01-2021 01:05:00 3.2 C 5.36 g/m*3 -1.11 C 19.3 km/h
3183 12-01-2021 01:10:00 3.2 C 5.36 g/m*3 -0.1 C 12.9 km/h
3184 12-01-2021 01:15:00 3.2 C 5.36 g/m*3 -0.89 C 17.7 km/h
3185 12-01-2021 01:20:00 3.2 C 5.36 g/m*3 -0.39 C 14.5 km/h
3186 12-01-2021 01:25:00 3.2 C 5.36 g/m*3 -1.51 C 22.5 km/h
3187 12-01-2021 01:30:00 3.3 C 5.4 g/m*3 -1.39 C 22.5 km/h
3188 12-01-2021 01:35:00 3.3 C 5.4 g/m*3 -0.52 C 16.1 km/h
3189 12-01-2021 01:40:00 3.3 C 5.4 g/m*3 -0.52 C 16.1 km/h
3190 12-01-2021 01:45:00 3.3 C 5.4 g/m*3 0.02 C 12.9 km/h
3191 12-01-2021 01:50:00 3.4 C 5.44 g/m*3 -0.4 C 16.1 km/h
3192 12-01-2021 01:55:00 3.4 C 5.44 g/m*3 0.82 C 9.7 km/h
3193 12-01-2021 02:00:00 3.3 C 5.4 g/m*3 0.34 C 11.3 km/h
3194 12-01-2021 02:05:00 3.3 C 5.4 g/m*3 -0.26 C 14.5 km/h
3195 12-01-2021 02:10:00 3.3 C 5.4 g/m*3 -0.26 C 14.5 km/h
3196 12-01-2021 02:15:00 3.3 C 5.4 g/m*3 0.02 C 12.9 km/h
3197 12-01-2021 02:20:00 3.3 C 5.4 g/m*3 0.02 C 12.9 km/h
3198 12-01-2021 02:25:00 3.3 C 5.4 g/m*3 -0.26 C 14.5 km/h
3199 12-01-2021 02:30:00 3.3 C 5.4 g/m*3 -0.26 C 14.5 km/h
3200 12-01-2021 02:35:00 3.4 C 5.44 g/m*3 -0.4 C 16.1 km/h
Sensor: Nr:Datum:Temp:Abs-Feuchte:Windchill:Wind:
Aussen-T/F 3201 12-01-2021 02:40:00 3.4 C 5.44 g/m*3 -0.4 C 16.1 km/h
3202 12-01-2021 02:45:00 3.4 C 5.5 g/m*3 0.82 C 9.7 km/h
3203 12-01-2021 02:50:00 3.4 C 5.5 g/m*3 -0.86 C 19.3 km/h
3204 12-01-2021 02:55:00 3.4 C 5.44 g/m*3 -0.86 C 19.3 km/h
3205 12-01-2021 03:00:00 3.4 C 5.5 g/m*3 -0.4 C 16.1 km/h
3206 12-01-2021 03:05:00 3.4 C 5.5 g/m*3 0.46 C 11.3 km/h
3207 12-01-2021 03:10:00 3.4 C 5.5 g/m*3 1.23 C 8.1 km/h
3208 12-01-2021 03:15:00 3.4 C 5.5 g/m*3 -0.64 C 17.7 km/h
3209 12-01-2021 03:20:00 3.5 C 5.53 g/m*3 -0.51 C 17.7 km/h
3210 12-01-2021 03:25:00 3.5 C 5.53 g/m*3 -0.02 C 14.5 km/h
3211 12-01-2021 03:30:00 3.6 C 5.57 g/m*3 -0.61 C 19.3 km/h
3212 12-01-2021 03:35:00 3.6 C 5.57 g/m*3 -0.15 C 16.1 km/h
3213 12-01-2021 03:40:00 3.6 C 5.57 g/m*3 0.11 C 14.5 km/h
3214 12-01-2021 03:45:00 3.6 C 5.57 g/m*3 0.39 C 12.9 km/h
3215 12-01-2021 03:50:00 3.6 C 5.57 g/m*3 0.11 C 14.5 km/h
3216 12-01-2021 03:55:00 3.6 C 5.57 g/m*3 0.39 C 12.9 km/h
3217 12-01-2021 04:00:00 3.6 C 5.57 g/m*3 -0.15 C 16.1 km/h
3218 12-01-2021 04:05:00 3.6 C 5.57 g/m*3 0.11 C 14.5 km/h
3219 12-01-2021 04:10:00 3.7 C 5.61 g/m*3 0.23 C 14.5 km/h
3220 12-01-2021 04:15:00 3.7 C 5.61 g/m*3 -0.03 C 16.1 km/h
3221 12-01-2021 04:20:00 3.7 C 5.61 g/m*3 -0.26 C 17.7 km/h
3222 12-01-2021 04:25:00 3.7 C 5.61 g/m*3 0.23 C 14.5 km/h
3223 12-01-2021 04:30:00 3.7 C 5.55 g/m*3 0.23 C 14.5 km/h
3224 12-01-2021 04:35:00 3.8 C 5.65 g/m*3 -0.56 C 20.9 km/h
3225 12-01-2021 04:40:00 3.8 C 5.58 g/m*3 -0.14 C 17.7 km/h
Sensor: Nr:Datum:Temp:Abs-Feuchte:Windchill:Wind:
Aussen-T/F 3226 12-01-2021 04:45:00 3.8 C 5.58 g/m*3 -1.57 C 30.6 km/h
3227 12-01-2021 04:50:00 3.8 C 5.58 g/m*3 -0.56 C 20.9 km/h
3228 12-01-2021 04:55:00 3.8 C 5.58 g/m*3 -1.97 C 35.4 km/h
3229 12-01-2021 05:00:00 3.8 C 5.58 g/m*3 -0.14 C 17.7 km/h
3230 12-01-2021 05:05:00 3.8 C 5.58 g/m*3 -0.56 C 20.9 km/h
3231 12-01-2021 05:10:00 3.8 C 5.58 g/m*3 -0.56 C 20.9 km/h
3232 12-01-2021 05:15:00 3.9 C 5.62 g/m*3 -1.44 C 30.6 km/h
3233 12-01-2021 05:20:00 3.9 C 5.62 g/m*3 -1.58 C 32.2 km/h
3234 12-01-2021 05:25:00 3.9 C 5.62 g/m*3 -1.44 C 30.6 km/h
3235 12-01-2021 05:30:00 3.9 C 5.62 g/m*3 -0.43 C 20.9 km/h
3236 12-01-2021 05:35:00 3.9 C 5.62 g/m*3 0.47 C 14.5 km/h
3237 12-01-2021 05:40:00 3.9 C 5.62 g/m*3 -0.8 C 24.1 km/h
3238 12-01-2021 05:45:00 3.9 C 5.68 g/m*3 -0.23 C 19.3 km/h